[[{"header":{"parameterUnit":"m.s-1","parameterCategory":1,"la1":31.0,"la2":29.5877,"lo1":-88.7671,"lo2":-86.6584,"dy":0.0162,"dx":0.0185,"nx":115,"ny":88,"refTime":"2023-08-11T06:00:00:Z","depth":0,"parameterNumber":2,"parameterNumberName":"U-component_of_WINDS"},"data":[0.0,0.0,0.0,0.0,0.0,0.0,0.0,0.0,0.0,0.0,0.0,0.0,0.0,0.0,0.0,0.0,0.0,0.0,0.0,0.0,0.0,0.0,0.0,0.0,0.0,0.0,0.0,0.0,0.0,0.0,0.0,0.0,0.0,0.0,0.0,0.0,0.0,0.0,0.0,0.0,0.0,0.0,0.0,0.0,0.0,0.0,0.0,0.0,0.0,0.0,0.0,0.0,0.0,0.0,0.0,0.0,0.0,0.0,0.0,0.0,0.0,0.0,0.0,0.0,0.0,0.0,0.0,0.0,0.0,0.0,0.0,0.0,0.0,0.0,0.0,0.0,0.0,0.0,0.0,0.0,0.0,0.0,0.0,0.0,0.0,0.0,0.0,0.0,0.0,0.0,0.0,0.0,0.0,0.0,0.0,0.0,0.0,0.0,0.0,0.0,0.0,0.0,0.0,0.0,0.0,0.0,0.0,0.0,0.0,0.0,0.0,0.0,0.0,0.0,0.0,0.0,0.0,0.0,0.0,0.0,0.0,0.0,0.0,0.0,0.0,0.0,0.0,0.0,0.0,0.0,0.0,0.0,0.0,0.0,0.0,0.0,0.0,0.0,0.0,0.0,0.0,0.0,0.0,0.0,0.0,0.0,0.0,0.0,0.0,0.0,0.0,0.0,0.0,0.0,0.0,0.0,0.0,0.0,0.0,0.0,0.0,0.0,0.0,0.0,0.0,0.0,0.0,0.0,0.0,0.0,0.0,0.0,0.0,0.0,0.0,0.0,0.0,0.0,0.0,0.0,0.0,0.0,0.0,0.0,0.0,0.0,0.0,0.0,0.0,0.0,0.0,0.0,0.0,0.0,0.0,0.0,0.0,0.0,0.0,0.0,0.0,0.0,0.0,0.0,0.0,0.0,0.0,0.0,0.0,0.0,0.0,0.0,0.0,0.0,0.0,0.0,0.0,0.0,0.0,0.0,0.0,0.0,0.0,0.0,0.0,0.0,0.0,0.0,0.0,0.0,0.0,0.0,0.0,0.0,0.0,0.0,0.0,0.0,0.0,0.0,0.0,0.0,0.0,0.0,0.0,0.0,0.0,0.0,0.0,0.0,0.0,0.0,0.0,0.0,0.0,0.0,0.0,0.0,0.0,0.0,0.0,0.0,0.0,0.0,0.0,0.0,0.0,0.0,0.0,0.0,0.0,0.0,0.0,0.0,0.0,0.0,0.0,0.0,0.0,0.0,0.0,0.0,0.0,0.0,0.0,0.0,0.0,0.0,0.0,0.0,0.0,0.0,0.0,0.0,0.0,0.0,0.0,0.0,0.0,0.0,0.0,0.0,0.0,0.0,0.0,0.0,0.0,0.0,0.0,0.0,0.0,0.0,0.0,0.0,0.0,0.0,0.0,0.0,0.0,0.0,0.0,0.0,0.0,0.0,0.0,0.0,0.0,0.0,0.0,0.0,0.0,0.0,0.0,0.0,0.0,0.0,0.0,0.0,0.0,0.0,0.0,0.0,0.0,0.0,0.0,0.0,0.0,0.0,0.0,0.0,0.0,0.0,0.0,0.0,0.0,0.0,0.0,0.0,0.0,0.0,0.0,0.0,0.0,0.0,0.0,0.0,0.0,0.0,0.0,0.0,0.0,0.0,0.0,0.0,0.0,0.0,0.0,0.0,0.0,0.0,0.0,0.0,0.0,0.0,0.0,0.0,0.0,0.0,0.0,0.0,0.0,0.0,0.0,0.0,0.0,0.0,0.0,0.0,0.0,0.0,0.0,0.0,0.0,0.0,0.0,0.0,0.0,0.0,0.0,0.0,0.0,0.0,0.0,0.0,0.0,0.0,0.0,0.0,0.0,0.0,0.0,0.0,0.0,0.0,0.0,0.0,0.0,0.0,0.0,0.0,0.0,0.0,0.0,0.0,0.0,0.0,0.0,0.0,0.0,0.0,0.0,0.0,0.0,0.0,0.0,0.0,0.0,0.0,0.0,0.0,0.0,0.0,0.0,0.0,0.0,0.0,0.0,0.0,0.0,0.0,0.0,0.0,0.0,0.0,0.0,0.0,0.0,0.0,0.0,0.0,0.0,0.0,0.0,0.0,0.0,0.0,0.0,0.0,0.0,0.0,0.0,0.0,0.0,0.0,0.0,0.0,0.0,0.0,0.0,0.0,0.0,0.0,0.0,0.0,0.0,0.0,0.0,0.0,0.0,0.0,0.0,0.0,0.0,0.0,0.0,0.0,0.0,0.0,0.0,0.0,0.0,0.0,0.0,0.0,0.0,0.0,0.0,0.0,0.0,0.0,0.0,0.0,0.0,0.0,0.0,0.0,0.0,0.0,0.0,0.0,0.0,0.0,0.0,0.0,0.0,0.0,0.0,0.0,0.0,0.0,0.0,0.0,0.0,0.0,0.0,0.0,0.0,0.0,0.0,0.0,0.0,0.0,0.0,0.0,0.0,0.0,0.0,0.0,0.0,0.0,0.0,0.0,0.0,0.0,0.0,0.0,0.0,0.0,0.0,0.0,0.0,0.0,0.0,0.0,0.0,0.0,0.0,0.0,0.0,0.0,0.0,0.0,0.0,0.0,0.0,0.0,0.0,0.0,0.0,0.0,0.0,0.0,0.0,0.0,0.0,0.0,0.0,0.0,0.0,0.0,0.0,0.0,0.0,0.0,0.0,0.0,0.0,0.0,0.0,0.0,0.0,0.0,0.0,0.0,0.0,0.0,0.0,0.0,0.0,0.0,0.0,0.0,0.0,0.0,0.0,0.0,0.0,0.0,0.0,0.0,0.0,0.0,0.0,0.0,0.0,0.0,0.0,0.0,0.0,0.0,0.0,0.0,0.0,0.0,0.0,0.0,0.0,0.0,0.0,0.0,0.0,0.0,0.0,0.0,0.0,0.0,0.0,0.0,0.0,0.0,0.0,0.0,0.0,0.0,0.0,0.0,0.0,0.0,0.0,0.0,0.0,0.0,0.0,0.0,0.0,0.0,0.0,0.0,0.0,0.0,0.0,0.0,0.0,0.0,0.0,0.0,0.0,0.0,0.0,0.0,0.0,0.0,0.0,0.0,0.0,0.0,0.0,0.0,0.0,0.0,0.0,0.0,0.0,0.0,0.0,0.0,0.0,0.0,0.0,0.0,0.0,0.0,0.0,0.0,0.0,0.0,0.0,0.0,0.0,0.0,0.0,0.0,0.0,0.0,0.0,0.0,0.0,0.0,0.0,0.0,0.0,0.0,0.0,0.0,0.0,0.0,0.0,0.0,0.0,0.0,0.0,0.0,0.0,0.0,0.0,0.0,0.0,0.0,0.0,0.0,0.0,0.0,0.0,0.0,0.0,0.0,0.0,0.0,0.0,0.0,0.0,0.0,0.0,0.0,0.0,0.0,0.0,0.0,0.0,0.0,0.0,0.0,0.0,0.0,0.0,0.0,0.0,0.0,0.0,0.0,0.0,0.0,0.0,0.0,0.0,0.0,0.0,0.0,0.0,0.0,0.0,0.0,0.0,0.0,0.0,0.0,0.0,0.0,0.0,0.0,0.0,0.0,0.0,0.0,0.0,0.0,0.0,0.0,0.0,0.0,0.0,0.0,0.0,0.0,0.0,0.0,0.0,0.0,0.0,0.0,0.0,0.0,0.0,0.0,0.0,0.0,0.0,0.0,0.0,0.0,0.0,0.0,0.0,0.0,0.0,0.0,0.0,0.0,0.0,0.0,0.0,0.0,0.0,0.0,0.0,0.0,0.0,0.0,0.0,0.0,0.0,0.0,0.0,0.0,0.0,0.0,0.0,0.0,0.0,0.0,0.0,0.0,0.0,0.0,0.0,0.0,0.0,0.0,0.0,0.0,0.0,0.0,0.0,0.0,0.0,0.0,0.0,0.0,0.0,0.0,0.0,0.0,0.0,0.0,0.0,0.0,0.0,0.0,0.0,0.0,0.0,0.0,0.0,0.0,0.0,0.0,0.0,0.0,0.0,0.0,0.0,0.0,0.0,0.0,0.0,0.0,0.0,0.0,0.0,0.0,0.0,0.0,0.0,0.0,0.0,0.0,0.0,0.0,0.0,0.0,0.0,0.0,0.0,0.0,0.0,0.0,0.0,0.0,0.0,0.0,0.0,0.0,0.0,0.0,0.0,0.0,0.0,0.0,0.0,0.0,0.0,0.0,0.0,0.0,0.0,0.0,0.0,0.0,0.0,0.0,0.0,0.0,0.0,0.0,0.0,0.0,0.0,0.0,0.0,0.0,0.0,0.0,0.0,0.0,0.0,0.0,0.7086,0.0,0.0,0.0,0.0,0.0,0.0,0.0,0.0,0.0,0.0,0.0,0.0,0.0,0.0,0.0,0.0,0.0,0.0,0.0,0.0,0.0,0.0,0.0,0.0,0.0,0.0,0.0,0.0,0.0,0.0,0.0,0.0,0.0,0.0,0.0,0.0,0.0,0.0,0.0,0.0,0.0,0.0,0.0,0.0,0.0,0.0,0.0,0.0,0.0,0.0,0.0,0.0,0.0,0.0,0.0,0.0,0.0,0.0,0.0,0.0,0.0,0.0,0.0,0.0,0.0,0.0,0.0,0.0,0.0,0.0,0.0,0.0,0.0,0.0,0.0,0.0,0.0,0.0,0.0,0.0,0.0,0.0,0.0,0.0,0.0,0.0,0.0,0.0,0.0,0.0,0.0,0.0,0.0,0.0,0.0,0.0,0.0,0.0,0.0,0.0,0.0,0.0,0.0,0.0,0.0,0.0,0.0,0.0,0.0,0.0,0.7003,0.7322,0.6842,0.6734,0.6948,0.0,0.0,0.0,0.0,0.0,0.0,0.0,0.0,0.0,0.0,0.0,0.0,0.0,0.0,0.0,0.0,0.0,0.0,0.0,0.0,0.0,0.0,0.0,0.0,0.0,0.0,0.0,0.0,0.0,0.0,0.0,0.0,0.0,0.0,0.0,0.0,0.0,0.0,0.0,0.0,0.0,0.0,0.0,0.0,0.0,0.0,0.0,0.0,0.0,0.0,0.0,0.0,0.0,0.0,0.0,0.0,0.0,0.0,0.0,0.0,0.0,0.0,0.0,0.0,0.0,0.0,0.0,0.0,0.0,0.0,0.0,0.0,0.0,0.0,0.0,0.0,0.0,0.0,0.0,0.0,0.0,0.0,0.0,0.0,0.0,0.0,0.0,0.0,0.0,0.0,0.0,0.0,0.0,0.0,0.0,0.0,0.0,0.0,0.0,0.0,0.0,0.0,0.0,0.0,0.0,0.0,0.0,0.0,0.0,0.0,0.0,0.0,0.655,0.6518,0.6826,0.0,0.0,0.0,0.0,0.0,0.0,0.0,0.0,0.0,0.0,0.0,0.0,0.0,0.0,0.0,0.0,0.0,0.0,0.0,0.0,0.0,0.0,0.0,0.0,0.0,0.0,0.0,0.0,0.0,0.0,0.0,0.0,0.0,0.0,0.0,0.0,0.0,0.0,0.0,0.0,0.0,0.0,0.0,0.0,0.0,0.0,0.0,0.0,0.0,0.0,0.0,0.0,0.0,0.0,0.0,0.0,0.0,0.0,0.0,0.0,0.0,0.0,0.0,0.0,0.0,0.0,0.0,0.0,0.0,0.0,0.0,0.0,0.0,0.0,0.0,0.0,0.0,0.0,0.0,0.0,0.0,0.0,0.0,0.0,0.0,0.0,0.0,0.0,0.0,0.0,0.0,0.0,0.0,0.0,0.0,0.0,0.0,0.0,0.0,0.0,0.0,0.0,0.0,0.0,0.0,0.0,0.0,0.0,0.0,0.0,0.6032,0.6489,0.6327,0.0,0.6414,0.0,0.0,0.0,0.0,0.0,0.0,0.0,0.0,0.0,0.0,0.0,0.0,0.0,0.0,0.0,0.0,0.0,0.0,0.0,0.0,0.0,0.0,0.0,0.0,0.0,0.0,0.0,0.0,0.0,0.0,0.0,0.0,0.0,0.0,0.0,0.0,0.0,0.0,0.0,0.0,0.0,0.0,0.0,0.0,0.0,0.0,0.0,0.0,0.0,0.0,0.0,0.0,0.0,0.0,0.0,0.0,0.0,0.0,0.0,0.0,0.0,0.0,0.0,0.0,0.0,0.0,0.0,0.0,0.0,0.0,0.0,0.0,0.0,0.0,0.0,0.0,0.0,0.0,0.0,0.0,0.0,0.0,0.0,0.0,0.0,0.0,0.0,0.0,0.0,0.0,0.0,0.0,0.0,0.0,0.0,0.0,0.0,0.0,0.0,0.0,0.0,0.0,0.0,0.0,0.0,0.0,0.0,0.0,0.0,0.0,0.5782,0.6233,0.6301,0.6339,0.0,0.0,0.0,0.0,0.0,0.0,0.0,0.0,0.0,0.0,0.0,0.0,0.0,0.0,0.0,0.0,0.0,0.0,0.0,0.0,0.0,0.0,0.0,0.0,0.0,0.0,0.0,0.0,0.0,0.0,0.0,0.0,0.0,0.0,0.0,0.0,0.0,0.0,0.0,0.0,0.0,0.0,0.0,0.0,0.0,0.0,0.0,0.0,0.0,0.0,0.0,0.0,0.0,0.0,0.0,0.0,0.0,0.0,0.0,0.0,0.0,0.0,0.0,0.0,0.0,0.0,0.0,0.0,0.0,0.0,0.0,0.0,0.0,0.0,0.0,0.0,0.0,0.0,0.0,0.0,0.0,0.0,0.0,0.0,0.0,0.0,0.0,0.0,0.0,0.0,0.0,0.0,0.0,0.0,0.0,0.0,0.0,0.0,0.0,0.0,0.0,0.0,0.0,0.0,0.0,0.0,0.0,0.0,0.0,0.0,0.5385,0.5503,0.5814,0.6,0.6154,0.6152,0.0,0.0,0.0,0.0,0.0,0.0,0.0,0.0,0.0,0.0,0.0,0.0,0.0,0.0,0.0,0.0,0.0,0.0,0.0,0.0,0.0,0.0,0.0,0.0,0.0,0.0,0.0,0.0,0.0,0.0,0.0,0.0,0.0,0.0,0.0,0.0,0.0,0.0,0.0,0.0,0.0,0.0,0.0,0.0,0.0,0.0,0.0,0.0,0.0,0.0,0.0,0.0,0.0,0.0,0.0,0.0,0.0,0.0,0.0,0.0,0.0,0.0,0.0,0.0,0.0,0.0,0.0,0.0,0.0,0.0,0.0,0.0,0.0,0.0,0.0,0.0,0.0,0.0,0.0,0.0,0.0,0.0,0.0,0.0,0.0,0.0,0.0,0.0,0.0,0.0,0.0,0.0,0.0,0.0,0.0,0.0,0.0,0.0,0.0,0.0,0.0,0.0,0.0,0.0,0.0,0.0,0.0,0.0,0.5166,0.503,0.5033,0.5179,0.5306,0.5428,0.0,0.0,0.0,0.0,0.0,0.0,0.0,0.0,0.0,0.0,0.0,0.0,0.0,0.0,0.0,0.0,0.0,0.0,0.0,0.0,0.0,0.0,0.0,0.0,0.0,0.0,0.0,0.0,0.0,0.0,0.0,0.0,0.0,0.0,0.0,0.0,0.0,0.0,0.0,0.0,0.0,0.0,0.0,0.0,0.0,0.0,0.0,0.0,0.0,0.0,0.0,0.0,0.0,0.0,0.0,0.0,0.0,0.0,0.0,0.0,0.0,0.0,0.0,0.0,0.0,0.0,0.0,0.0,0.0,0.0,0.0,0.0,0.0,0.0,0.0,0.0,0.0,0.0,0.0,0.0,0.0,0.0,0.0,0.0,0.0,0.0,0.0,0.0,0.0,0.0,0.0,0.0,0.0,0.0,0.0,0.0,0.0,0.0,0.0,0.0,0.0,0.0,0.0,0.0,0.0,0.0,0.0,0.0,0.0,0.5087,0.4957,0.4891,0.4894,0.503,0.5229,0.0,0.0,0.0,0.0,0.0,0.0,0.0,0.0,0.0,0.0,0.0,0.0,0.0,0.0,0.0,0.0,0.0,0.0,0.0,0.0,0.0,0.0,0.0,0.0,0.0,0.0,0.0,0.0,0.0,0.0,0.0,0.0,0.0,0.0,0.0,0.0,0.0,0.0,0.0,0.0,0.0,0.0,0.0,0.0,0.0,0.0,0.0,0.0,0.0,0.0,0.0,0.0,0.0,0.0,0.0,0.0,0.0,0.0,0.0,0.0,0.0,0.0,0.0,0.0,0.0,0.0,0.0,0.0,0.0,0.0,0.0,0.0,0.0,0.0,0.0,0.0,0.0,0.0,0.0,0.0,0.0,0.0,0.0,0.0,0.0,0.0,0.0,0.0,0.0,0.0,0.0,0.0,0.0,0.0,0.0,0.0,0.0,0.0,0.0,0.0,0.0,0.0,0.0,0.0,0.0,0.0,0.0,0.0,0.0,0.4824,0.0,0.4428,0.4498,0.4564,0.4831,0.0,0.0,0.0,0.0,0.0,0.0,0.0,0.0,0.0,0.0,0.0,0.0,0.0,0.0,0.0,0.0,0.0,0.0,0.0,0.0,0.0,0.0,0.0,0.0,0.0,0.0,0.0,0.0,0.0,0.0,0.0,0.0,0.0,0.0,0.0,0.0,0.0,0.0,0.0,0.0,0.0,0.0,0.0,0.0,0.0,0.0,0.0,0.0,0.0,0.0,0.0,0.0,0.0,0.0,0.0,0.0,0.0,0.0,0.0,0.0,0.0,0.0,0.0,0.0,0.0,0.0,0.0,0.0,0.0,0.0,0.0,0.0,0.0,0.0,0.0,0.0,0.0,0.0,0.0,0.0,0.0,0.0,0.0,0.0,0.0,0.0,0.0,0.0,0.0,0.0,0.0,0.0,0.0,0.0,0.0,0.0,0.0,0.0,0.0,0.0,0.0,0.0,0.0,0.0,0.0,0.0,0.0,0.0,0.4824,0.43,0.3766,0.3629,0.3961,0.3892,0.4092,0.0,0.0,0.0,0.0,0.0,0.0,0.0,0.0,0.0,0.0,0.0,0.0,0.0,0.0,0.0,0.0,0.0,0.0,0.0,0.0,0.0,0.0,0.0,0.0,0.0,0.0,0.0,0.0,0.0,0.0,0.0,0.0,0.0,0.0,0.0,0.0,0.0,0.0,0.0,0.0,0.0,0.0,0.0,0.0,0.0,0.0,0.0,0.0,0.0,0.0,0.0,0.0,0.0,0.0,0.0,0.0,0.0,0.0,0.0,0.0,0.0,0.0,0.0,0.0,0.0,0.0,0.0,0.0,0.0,0.0,0.0,0.0,0.0,0.0,0.0,0.0,0.0,0.0,0.0,0.0,0.0,0.0,0.0,0.0,0.0,0.0,0.0,0.0,0.0,0.0,0.0,0.0,0.0,0.0,0.0,0.0,0.0,0.0,0.0,0.0,0.0,0.0,0.0,0.0,0.0,0.0,0.0,0.0,0.0,0.356,0.3295,0.3159,0.3088,0.3157,0.3491,0.0,0.0,0.0,0.0,0.0,0.0,0.0,0.0,0.0,0.0,0.0,0.0,0.0,0.0,0.0,0.0,0.0,0.0,0.0,0.0,0.0,0.0,0.0,0.0,0.0,0.0,0.0,0.0,0.0,0.0,0.0,0.0,0.0,0.0,0.0,0.0,0.0,0.0,0.0,0.0,0.0,0.0,0.0,0.0,0.0,0.0,0.0,0.0,0.0,0.0,0.0,0.0,0.0,0.0,0.0,0.0,0.0,0.0,0.0,0.0,0.0,0.0,0.0,0.0,0.0,0.0,0.0,0.0,0.0,0.0,0.0,0.0,0.0,0.0,0.0,0.0,0.0,0.0,0.0,0.0,0.0,0.0,0.0,0.0,0.0,0.0,0.0,0.0,0.0,0.0,0.0,0.0,0.0,0.0,0.0,0.0,0.0,0.0,0.0,0.0,0.0,0.0,0.0,0.0,0.0,0.0,0.0,0.0,0.0,0.2418,0.2621,0.2636,0.2525,0.2458,0.2742,0.3322,0.0,0.0,0.0,0.0,0.0,0.0,0.0,0.0,0.0,0.0,0.0,0.0,0.0,0.0,0.0,0.0,0.0,0.0,0.0,0.0,0.0,0.0,0.0,0.0,0.0,0.0,0.0,0.0,0.0,0.0,0.0,0.0,0.0,0.0,0.0,0.0,0.0,0.0,0.0,0.0,0.0,0.0,0.0,0.0,0.0,0.0,0.0,0.0,0.0,0.0,0.0,0.0,0.0,0.0,0.0,0.0,0.0,0.0,0.0,0.0,0.0,0.0,0.0,0.0,0.0,0.0,0.0,0.0,0.0,0.0,0.0,0.0,0.0,0.0,0.0,0.0,0.0,0.0,0.0,0.0,0.0,0.0,0.0,0.0,0.0,0.0,0.0,0.0,0.0,0.0,0.0,0.0,0.0,0.0,0.0,0.0,0.0,0.0,0.0,0.0,0.0,0.0,0.0,0.0,0.0,0.0,0.0,0.0,0.1076,0.1683,0.205,0.2101,0.1681,0.1916,0.0,0.0,0.0,0.0,0.0,0.0,0.0,0.0,0.0,0.0,0.0,0.0,0.0,0.0,0.0,0.0,0.0,0.0,0.0,0.0,0.0,0.0,0.0,0.0,0.0,0.0,0.0,0.0,0.0,0.0,0.0,0.0,0.0,0.0,0.0,0.0,0.0,0.0,0.0,0.0,0.0,0.0,0.0,0.0,0.0,0.0,0.0,0.0,0.0,0.0,0.0,0.0,0.0,0.0,0.0,0.0,0.0,0.0,0.0,0.0,0.0,0.0,0.0,0.0,0.0,0.0,0.0,0.0,0.0,0.0,0.0,0.0,0.0,0.0,0.0,0.0,0.0,0.0,0.0,0.0,0.0,0.0,0.0,0.0,0.0,0.0,0.0,0.0,0.0,0.0,0.0,0.0,0.0,0.0,0.0,0.0,0.0,0.0,0.0,0.0,0.0,0.0,0.0,0.0,0.0,0.0,0.0,0.0,0.0,0.0336,0.0069,0.0278,0.0841,0.0981,0.1418,0.0,0.0,0.0,0.0,0.0,0.0,0.0,0.0,0.0,0.0,0.0,0.0,0.0,0.0,0.0,0.0,0.0,0.0,0.0,0.0,0.0,0.0,0.0,0.0,0.0,0.0,0.0,0.0,0.0,0.0,0.0,0.0,0.0,0.0,0.0,0.0,0.0,0.0,0.0,0.0,0.0,0.0,0.0,0.0,0.0,0.0,0.0,0.0,0.0,0.0,0.0,0.0,0.0,0.0,0.0,0.0,0.0,0.0,0.0,0.0,0.0,0.0,0.0,0.0,0.0,0.0,0.0,0.0,0.0,0.0,0.0,0.0,0.0,0.0,0.0,0.0,0.0,0.0,0.0,0.0,0.0,0.0,0.0,0.0,0.0,0.0,0.0,0.0,0.0,0.0,0.0,0.0,0.0,0.0,0.0,0.0,0.0,0.0,0.0,0.0,0.0,0.0,0.0,0.0,0.0,0.0,0.0,0.0,0.0538,-0.0336,-0.0819,-0.0831,-0.042,-0.0,0.066,0.0,0.0,0.0,0.0,0.0,0.0,0.0,0.0,0.0,0.0,0.0,0.0,0.0,0.0,0.0,0.0,0.0,0.0,0.0,0.0,0.0,0.0,0.0,0.0,0.0,0.0,0.0,0.0,0.0,0.0,0.0,0.0,0.0,0.0,0.0,0.0,0.0,0.0,0.0,0.0,0.0,0.0,0.0,0.0,0.0,0.0,0.0,0.0,0.0,0.0,0.0,0.0,0.0,0.0,0.0,0.0,0.0,0.0,0.0,0.0,0.0,0.0,0.0,0.0,0.0,0.0,0.0,0.0,0.0,0.0,0.0,0.0,0.0,0.0,0.0,0.0,0.0,0.0,0.0,0.0,0.0,0.0,0.0,0.0,0.0,0.0,0.0,0.0,0.0,0.0,0.0,0.0,0.0,0.0,0.0,0.0,0.0,0.0,0.0,0.0,0.0,0.0,0.0,0.0,0.0,0.0,0.0,0.0,-0.0067,-0.0873,-0.1281,-0.1504,-0.1542,-0.0957,-0.0,0.0,0.0,0.0,0.0,0.0,0.0,0.0,0.0,0.0,0.0,0.0,0.0,0.0,0.0,0.0,0.0,0.0,0.0,0.0,0.0,0.0,0.0,0.0,0.0,0.0,0.0,0.0,0.0,0.0,0.0,0.0,0.0,0.0,0.0,0.0,0.0,0.0,0.0,0.0,0.0,0.0,0.0,0.0,0.0,0.0,0.0,0.0,0.0,0.0,0.0,0.0,0.0,0.0,0.0,0.0,0.0,0.0,0.0,0.0,0.0,0.0,0.0,0.0,0.0,0.0,0.0,0.0,0.0,0.0,0.0,0.0,0.0,0.0,0.0,0.0,0.0,0.0,0.0,0.0,0.0,0.0,0.0,0.0,0.0,0.0,0.0,0.0,0.0,0.0,0.0,0.0,0.0,0.0,0.0,0.0,0.0,0.0,0.0,0.0,0.0,0.0,0.0,0.0,0.0,0.0,0.0,0.0,0.0,-0.0336,-0.1548,-0.1649,-0.1672,-0.1683,-0.1012,-0.0074,0.0,0.0,0.0,0.0,0.0,0.0,0.0,0.0,0.0,0.0,0.0,0.0,0.0,0.0,0.0,0.0,0.0,0.0,0.0,0.0,0.0,0.0,0.0,0.0,0.0,0.0,0.0,0.0,0.0,0.0,0.0,0.0,0.0,0.0,0.0,0.0,0.0,0.0,0.0,0.0,0.0,0.0,0.0,0.0,0.0,0.0,0.0,0.0,0.6591,0.0,0.0,0.0,0.0,0.0,0.0,0.0,0.0,0.0,0.0,0.0,0.0,0.0,0.0,0.0,0.0,0.0,0.0,0.0,0.0,0.0,0.0,0.0,0.0,0.0,0.0,0.0,0.0,0.0,0.0,0.0,0.0,0.0,0.0,0.0,0.0,0.0,0.0,0.0,0.0,0.0,0.0,0.0,0.0,0.0,0.0,0.0,0.0,0.0,0.0,0.0,0.0,0.0,0.0,0.0,0.0,0.0,0.0,0.0,-0.0334,-0.1387,-0.154,-0.1551,-0.1485,-0.1246,-0.0503,0.0,0.0,0.0,0.0,0.0,0.0,0.0,0.0,0.0,0.0,0.0,0.0,0.0,0.0,0.0,0.0,0.0,0.0,0.0,0.0,0.0,0.0,0.0,0.0,0.0,0.0,0.0,0.0,0.0,0.0,0.0,0.0,0.0,0.0,0.0,0.0,0.0,0.0,0.0,0.0,0.0,0.0,0.0,0.0,0.0,0.0,0.0,0.0,0.0,0.0,0.0,0.0,0.0,0.0,0.0,0.0,0.0,0.0,0.0,0.0,0.0,0.0,0.0,0.0,0.0,0.0,0.0,0.0,0.0,0.0,0.0,0.0,0.0,0.0,0.0,0.0,0.0,0.0,0.0,0.0,0.0,0.0,0.0,0.0,0.0,0.0,0.0,0.0,0.0,0.0,0.0,0.0,0.0,0.0,0.0,0.0,0.0,0.0,0.0,0.0,0.0,0.0,0.0,0.0,0.0,0.0,0.0,0.0335,-0.0331,-0.1029,-0.1351,-0.1414,-0.1345,-0.1514,-0.097,0.0298,0.0,0.0,0.0,0.0,0.0,0.0,0.0,0.0,0.0,0.0,0.0,0.0,0.0,0.0,0.0,0.0,0.0,0.0,0.0,0.0,0.0,0.0,0.0,0.0,0.0,0.0,0.0,0.0,0.0,0.0,0.0,0.0,0.0,0.0,0.0,0.0,0.0,0.0,0.7477,0.6769,0.0,0.0,0.0,0.0,0.0,0.0,0.0,0.0,0.5557,0.0,0.0,0.0,0.0,0.0,0.0,0.0,0.0,0.0,0.0,0.0,0.0,0.0,0.0,0.0,0.0,0.0,0.0,0.0,0.0,0.0,0.0,0.0,0.0,0.0,0.0,0.0,0.0,0.0,0.0,0.0,0.0,0.0,0.0,0.0,0.0,0.0,0.0,0.0,0.0,0.0,0.0,0.0,0.0,0.0,0.0,0.0,0.0,0.0,0.0,0.0,0.0,0.0,0.0,0.0,0.0,0.0259,0.0067,-0.046,-0.1372,-0.1465,-0.1466,-0.1496,-0.147,-0.0935,0.0142,0.0,0.0,0.0,0.0,0.0,0.0,0.0,0.0,0.0,0.0,0.0,0.0,0.0,0.0,0.0,0.0,0.0,0.0,0.0,0.0,0.0,0.0,0.0,0.0,0.0,0.0,0.0,0.0,0.0,0.0,0.0,0.0,0.0,0.0,0.0,0.0,0.0,0.0,0.0,0.646,0.6153,0.0,0.0,0.0,0.0,0.0,0.0,0.0,0.0,0.4343,0.0,0.0,0.0,0.0,0.0,0.0,0.0,0.0,0.0,0.0,0.0,0.0,0.0,0.0,0.0,0.0,0.0,0.0,0.0,0.0,0.0,0.0,0.0,0.0,0.0,0.0,0.0,0.0,0.0,0.0,0.0,0.0,0.0,0.0,0.0,0.0,0.0,0.0,0.0,0.0,0.0,0.0,0.0,0.0,0.0,0.0,0.0,0.0,0.0,0.0,0.0,0.0,0.0,0.0,0.0,-0.0323,-0.0398,-0.072,-0.1363,-0.1524,-0.1601,-0.158,-0.1471,-0.1066,0.0,0.0,0.0,0.0,0.0,0.0,0.0,0.0,0.0,0.0,0.0,0.0,0.0,0.0,0.0,0.0,0.0,0.0,0.0,0.0,0.0,0.0,0.0,0.0,0.0,0.0,0.0,0.0,0.0,0.0,0.0,0.0,0.0,0.0,0.0,0.0,0.0,0.0,0.0,0.0,0.6043,0.5703,0.5277,0.0,0.0,0.0,0.0,0.0,0.0,0.3855,0.3273,0.0,0.0,0.0,0.0,0.0,0.0,0.0,0.0,0.0,0.0,0.0,0.0,0.0,0.0,0.0,0.0,0.0,0.0,0.0,0.0,0.0,0.0,0.0,0.0,0.0,0.0,0.0,0.0,0.0,0.0,0.0,0.0,0.0,0.0,0.0,0.0,0.0,0.0,0.0,0.0,0.0,0.0,0.0,0.0,0.0,0.0,0.0,0.0,0.0,0.0,0.0,0.0,0.0,0.0,0.0,-0.0706,-0.086,-0.0979,-0.1353,-0.1583,-0.1671,-0.1597,-0.1541,-0.1204,0.0,0.0,0.0,0.0,0.0,0.0,0.0,0.0,0.0,0.0,0.0,0.0,0.0,0.0,0.0,0.0,0.0,0.0,0.0,0.0,0.0,0.0,0.0,0.0,0.0,0.0,0.0,0.0,0.0,0.0,0.0,0.0,0.0,0.0,0.0,0.0,0.0,0.0,0.0,0.0,0.0,0.5237,0.499,0.4657,0.0,0.0,0.0,0.0,0.4123,0.276,0.0,0.0,0.0,0.0,0.0,0.0,0.0,0.0,0.0,0.0,0.0,0.0,0.0,0.0,0.0,0.0,0.0,0.0,0.0,0.0,0.0,0.0,0.0,0.0,0.0,0.0,0.0,0.0,0.0,0.0,0.0,0.0,0.0,0.0,0.0,0.0,0.0,0.0,0.0,0.0,0.0,0.0,0.0,0.0,0.0,0.0,0.0,0.0,0.0,0.0,0.0,0.0,0.0,0.0,0.0,0.0,-0.0436,-0.1113,-0.1422,-0.1374,-0.1566,-0.1719,-0.1674,-0.1652,-0.1325,0.0,0.0,0.0,0.0,0.0,0.0,0.0,0.0,0.0,0.0,0.0,0.0,0.0,0.0,0.0,0.0,0.0,0.0,0.0,0.0,0.0,0.0,0.0,0.0,0.0,0.0,0.0,0.0,0.0,0.0,0.0,0.0,0.0,0.0,0.0,0.0,0.0,0.0,0.0,0.0,0.0,0.5281,0.4475,0.4227,0.4064,0.0,0.0,0.3618,0.2626,0.0635,0.0,0.0,0.0,0.0,0.0,0.0,0.0,0.0,0.0,0.0,0.0,0.0,0.0,0.0,0.0,0.0,0.0,0.0,0.0,0.0,0.0,0.0,0.0,0.0,0.0,0.0,0.0,0.0,0.0,0.0,0.0,0.0,0.0,0.0,0.0,0.0,0.0,0.0,0.0,0.0,0.0,0.0,0.0,0.0,0.0,0.0,0.0,0.0,0.0,0.0,0.0,0.0,0.0,0.0,0.0,0.0461,-0.0763,-0.1385,-0.164,-0.162,-0.1876,-0.1971,-0.1945,-0.1772,-0.1492,0.0,0.0,0.0,0.0,0.0,0.0,0.0,0.0,0.0,0.0,0.0,0.0,0.0,0.0,0.0,0.0,0.0,0.0,0.0,0.0,0.0,0.0,0.0,0.0,0.0,0.0,0.0,0.0,0.0,0.0,0.0,0.0,0.0,0.0,0.0,0.0,0.0,0.0,0.0,0.0,0.0,0.0,0.4237,0.3831,0.0,0.0,0.0,0.2659,0.0763,0.0,0.0,0.0,0.0,0.0,0.0,0.0,0.0,0.0,0.0,0.0,0.0,0.0,0.0,0.0,0.0,0.0,0.0,0.0,0.0,0.0,0.0,0.0,0.0,0.0,0.0,0.0,0.0,0.0,0.0,0.0,0.0,0.0,0.0,0.0,0.0,0.0,0.0,0.0,0.0,0.0,0.0,0.0,0.0,0.0,0.0,0.0,0.0,0.0,0.0,0.0,0.0,0.0,0.0,0.0,0.0,0.0,-0.1165,-0.1593,-0.1791,-0.1808,-0.2056,-0.2221,-0.2221,-0.1816,0.0,0.0,0.0,0.0,0.0,0.0,0.0,0.0,0.0,0.0,0.0,0.0,0.0,0.0,0.0,0.0,0.0,0.0,0.0,0.0,0.0,0.0,0.0,0.0,0.0,0.0,0.0,0.9397,0.0,0.0,0.0,0.0,0.0,0.0,0.0,0.0,0.0,0.0,0.0,0.0,0.0,0.0,0.4612,0.395,0.3354,0.2837,0.0,0.0,0.1707,-0.0759,-0.2789,-0.3671,0.0,0.0,0.0,0.0,0.0,0.0,0.0,0.0,0.0,0.0,0.0,0.0,0.0,0.0,0.0,0.0,0.0,0.0,0.0,0.0,0.0,0.0,0.0,0.0,0.0,0.0,0.0,0.0,0.0,0.0,0.0,0.0,0.0,0.0,0.0,0.0,0.0,0.0,0.0,0.0,0.0,0.0,0.0,0.0,0.0,0.0,0.0,0.0,0.0,0.0,0.0,0.0,0.0,0.0,-0.0273,-0.1491,-0.1726,-0.1794,-0.1809,-0.2055,-0.2221,-0.2221,-0.1681,-0.145,0.0,0.0,0.0,0.0,0.0,0.0,0.0,0.0,0.0,0.0,0.0,0.0,0.0,0.0,0.0,0.0,0.0,0.0,0.0,0.0,0.0,0.0,0.0,0.0,0.0,0.0,0.0,0.0,0.0,0.0,0.0,0.0,0.0,0.0,0.0,0.0,0.0,0.0,0.0,0.0,0.0,0.4204,0.3429,0.2555,0.1779,0.0,0.1377,0.0835,-0.1476,-0.36,-0.4468,-0.3168,0.0,0.0,0.0,0.0,0.0,0.0,0.0,0.0,0.0,0.0,0.0,0.0,0.0,0.0,0.0,0.0,0.0,0.0,0.0,0.0,0.0,0.0,0.0,0.0,0.0,0.0,0.0,0.0,0.0,0.0,0.0,0.0,0.0,0.0,0.0,0.0,0.0,0.0,0.0,0.0,0.0,0.0,0.0,0.0,0.0,0.0,0.0,0.0,0.0,0.0,0.0,0.0,0.0,-0.0427,-0.1326,-0.1619,-0.1745,-0.1837,-0.2059,-0.2122,-0.202,-0.1614,-0.145,0.0,0.0,0.0,0.0,0.0,0.0,0.0,0.0,0.0,0.0,0.0,0.0,0.0,0.0,0.0,0.0,0.0,0.0,0.0,0.0,0.0,0.0,0.0,0.0,0.0,0.0,0.0,0.0,0.8556,0.8174,0.7407,0.0,0.0,0.0,0.0,0.0,0.0,0.0,0.0,0.0,0.0,0.2694,0.168,0.1183,0.0,0.0,-0.0078,-0.07,-0.3427,-0.4571,-0.4973,-0.425,-0.3341,0.0,0.0,0.0,0.0,0.0,0.0,0.0,0.0,0.0,0.0,0.0,0.0,0.0,0.0,0.0,0.0,0.0,0.0,0.0,0.0,0.0,0.0,0.0,0.0,0.0,0.0,0.0,0.0,0.0,0.0,0.0,0.0,0.0,0.0,0.0,0.0,0.0,0.0,0.0,0.0,0.0,0.0,0.0,0.0,0.0,0.0,0.0,0.0,0.0,0.0,0.0,0.0,-0.0735,-0.1604,-0.1823,-0.1951,-0.2127,-0.2252,-0.2223,-0.191,-0.1634,-0.1531,0.0,0.0,0.0,0.0,0.0,0.0,0.0,0.0,0.0,0.0,0.0,0.0,0.0,0.0,0.0,0.0,0.0,0.0,0.0,0.0,0.0,0.0,0.0,0.0,0.0,0.0,0.0,0.0,0.7868,0.7484,0.6791,0.0,0.0,0.0,0.0,0.0,0.0,0.0,0.0,0.0,0.0,0.1065,-0.0,-0.0574,-0.1141,-0.2005,-0.1679,-0.217,-0.4577,-0.5175,-0.533,-0.4915,0.0,0.0,0.0,0.0,0.0,0.0,0.0,0.0,0.0,0.0,0.0,0.0,0.0,0.0,0.0,0.0,0.0,0.0,0.0,0.0,0.0,0.0,0.0,0.0,0.0,0.0,0.0,-0.2431,0.0,0.0,-0.1568,0.0,0.0,0.0,0.0,0.0,0.0,0.0,0.0,0.0,0.0,0.0,0.0,0.0,0.0,0.0,0.0,0.0,0.0,0.0,0.0,0.0,0.0,-0.1421,-0.2484,-0.2409,-0.2477,-0.2545,-0.2556,-0.2384,-0.2031,-0.1891,-0.1703,-0.1604,0.0,0.0,0.0,0.0,0.0,0.0,0.0,0.0,0.0,0.0,0.0,0.0,0.0,0.0,0.0,0.0,0.0,0.0,0.0,0.0,0.0,0.0,0.0,0.0,0.0,0.0,0.7783,0.7246,0.6714,0.0,0.0,0.0,0.0,0.0,0.0,0.0,0.0,0.0,0.1301,0.0248,-0.0755,-0.1343,-0.2687,-0.369,-0.4026,-0.3515,-0.3428,-0.4606,-0.529,-0.551,0.0,0.0,0.0,0.0,0.0,0.0,0.0,0.0,0.0,0.0,0.0,0.0,0.0,0.0,0.0,0.0,0.0,0.0,0.0,0.0,0.0,0.0,0.0,0.0,0.0,0.0,0.0,-0.3652,-0.3566,0.0,0.0,0.0,0.0,0.0,0.0,0.0,0.0,0.0,0.0,0.0,-0.3571,-0.3939,0.0,0.0,0.0,0.0,0.0,0.0,0.0,0.0,0.0,0.0,0.0,0.0,-0.224,-0.2836,-0.2757,-0.2582,-0.2464,-0.2443,-0.2269,-0.1945,-0.1727,-0.1238,-0.0448,0.0,0.0,0.0,0.0,0.0,0.0,0.0,0.0,0.0,0.0,0.0,0.0,0.0,0.0,0.0,0.0,0.0,0.0,0.0,0.0,0.0,0.0,0.0,0.0,0.0,0.7092,0.0,0.0,0.0,0.0,0.0,0.0,0.0,0.0,0.0,0.0,0.0,0.0904,-0.0085,-0.1012,-0.2025,-0.3088,-0.3731,-0.4195,0.0,0.0,0.0,0.0,0.0,0.0,0.0,0.0,0.0,0.0,0.0,0.0,0.0,0.0,-0.4021,-0.3108,-0.3455,-0.4168,-0.491,0.0,0.0,0.0,0.0,0.0,0.0,0.0,0.0,0.0,0.0,0.0,0.0,0.0,0.0,-0.4477,0.0,-0.3992,0.0,0.0,0.0,0.0,0.0,0.0,0.0,0.0,-0.3472,-0.3766,-0.3819,-0.4285,-0.4299,0.0,-0.3512,-0.302,0.0,0.0,0.0,0.0,0.0,0.0,0.0,0.0,-0.3055,-0.362,-0.3351,-0.3074,-0.2948,-0.267,-0.2402,-0.2144,-0.133,-0.0523,0.023,0.0942,0.1442,0.0,0.0,0.0,0.0,0.0,0.0,0.0,0.0,0.0,0.0,0.0,0.0,0.0,0.0,0.0,0.0,0.0,0.0,0.0,0.0,0.0,0.0,0.0,0.578,0.0,0.0,0.0,0.0,0.0,0.0,0.0,0.0,0.0,0.1561,0.091,-0.0,-0.1038,-0.2058,-0.3074,-0.4161,0.0,0.0,0.0,0.0,0.0,0.0,0.0,-0.6001,-0.5296,-0.5133,-0.5065,-0.5039,-0.4981,-0.5038,-0.5227,0.0,0.0,-0.3953,-0.4212,-0.4767,-0.5434,-0.505,-0.4856,-0.5519,-0.593,-0.6596,0.0,0.0,0.0,0.0,0.0,0.0,0.0,0.0,-0.5122,-0.5053,0.0,-0.4695,0.0,0.0,0.0,0.0,0.0,-0.3031,0.0,0.0,-0.4054,-0.4264,-0.4191,-0.4545,-0.4316,-0.3599,-0.36,-0.3296,-0.2879,-0.2818,0.0,0.0,0.0,0.0,0.0,0.0,-0.3865,-0.4622,-0.4114,-0.3901,-0.3816,-0.3113,-0.2582,-0.2351,-0.0758,0.023,0.0629,0.1045,0.1385,0.1633,0.1869,0.0,0.0,0.0,0.0,0.0,0.0,0.0,0.0,0.0,0.0,0.0,0.0,0.0,0.0,0.0,0.0,0.0,0.0,0.0,0.0,0.4928,0.0,0.0,0.0,0.0,0.0,0.0,0.0,0.0,0.0,0.0,-0.0169,-0.0429,-0.0956,-0.1827,0.0,0.0,0.0,0.0,-0.5684,-0.606,-0.6271,-0.6296,-0.5855,-0.617,-0.6375,-0.6389,0.0,0.0,-0.5705,-0.5526,-0.5406,-0.5606,-0.5326,-0.512,-0.533,-0.5319,-0.5448,-0.5638,-0.5546,-0.5626,-0.6005,-0.6484,-0.7092,-0.5947,0.0,0.0,0.0,0.0,-0.5815,-0.5735,-0.5518,-0.5468,-0.5322,-0.4987,-0.4825,0.0,0.0,0.0,0.0,0.0,0.0,-0.3372,-0.3334,-0.4045,-0.4301,-0.4267,-0.4098,-0.4111,-0.4113,-0.3728,-0.3597,-0.3627,-0.3327,-0.304,-0.2695,0.0,0.0,0.0,0.0,-0.3867,-0.4797,-0.4178,-0.3579,-0.3243,-0.2877,-0.2026,-0.0797,-0.0235,0.0393,0.1047,0.1217,0.1488,0.196,0.164,0.0,0.0,0.0,0.0,0.0,0.0,0.0,0.0,0.0,0.0,0.0,0.0,0.0,0.0,0.0,0.0,0.0,0.0,0.0,0.4329,0.3884,0.346,0.0,0.0,0.0,0.0,0.0,0.0,0.0,0.0,0.0,-0.2159,-0.1877,-0.2222,0.0,0.0,-0.5228,-0.5769,-0.6461,-0.7001,-0.7044,-0.7183,0.0,-0.7082,-0.7032,-0.6816,-0.6508,-0.5942,-0.5693,-0.6035,-0.588,-0.5702,-0.5733,-0.5611,-0.5546,-0.5527,-0.5374,-0.5353,-0.575,-0.5849,-0.5945,-0.6235,-0.6663,-0.7161,-0.5061,-0.5444,-0.5502,-0.5578,-0.558,-0.5531,-0.5526,-0.5489,-0.5177,-0.4933,-0.4578,-0.4374,-0.4164,-0.4131,-0.3718,0.0,0.0,0.0,-0.3422,-0.337,-0.3884,-0.412,-0.4168,-0.3974,-0.3584,-0.3102,-0.283,-0.2619,-0.2574,-0.24,-0.2155,-0.1863,0.0,0.0,-0.3723,-0.3629,-0.3787,-0.411,-0.39,-0.3608,-0.3233,-0.2448,-0.1337,0.0165,0.0407,0.0813,0.132,0.1414,0.1607,0.1996,0.1752,0.1947,0.0,0.0,0.0,0.0,0.0,0.0,0.0,0.0,0.0,0.0,0.0,0.6257,0.6166,0.0,0.0,0.0,0.5399,0.4471,0.3285,0.3026,0.0,0.0,0.0,0.0,0.0,0.0,0.0,0.2045,-0.009,-0.1826,-0.2589,-0.2565,-0.2994,-0.4624,-0.5238,-0.573,-0.6364,0.0,-0.7176,-0.7389,-0.7649,-0.7714,-0.7634,-0.7388,-0.6964,-0.6315,-0.5937,-0.5675,-0.5985,-0.5798,-0.5709,-0.5737,-0.5514,-0.5263,-0.5205,-0.5067,-0.5039,-0.5636,-0.5839,-0.5939,-0.6139,-0.6446,-0.6737,-0.3944,-0.3944,-0.427,-0.4526,-0.462,-0.47,-0.4787,-0.4914,-0.4589,-0.4139,-0.3823,-0.3589,-0.3388,-0.3241,-0.3049,0.0,-0.2859,-0.3055,-0.3151,-0.3153,-0.3343,-0.3539,-0.3641,-0.3642,-0.2872,-0.134,-0.1266,-0.0974,-0.0576,-0.0584,-0.0584,-0.0479,-0.1914,-0.3155,-0.4102,-0.3903,-0.349,-0.2965,-0.3458,-0.357,-0.3319,-0.1876,-0.059,0.0506,0.118,0.1432,0.1436,0.1634,0.1827,0.1831,0.2043,0.2243,0.2242,0.0,0.0,0.0,0.0,0.0,0.0,0.0,0.0,0.0,0.0,0.0,0.0,0.0,0.0,0.5473,0.4406,0.0,0.2633,0.2374,0.0,0.0,0.0,0.2056,0.166,0.0801,0.0544,0.1108,0.0,0.0,-0.2135,-0.2693,-0.3527,-0.4635,-0.5191,-0.5837,-0.6525,-0.6714,-0.6886,-0.735,-0.7698,-0.7893,-0.7736,-0.7307,-0.6719,-0.6037,-0.5737,-0.5574,-0.5667,-0.5386,-0.532,-0.5277,-0.4924,-0.4556,-0.4555,-0.4483,-0.4535,-0.522,-0.552,-0.562,-0.5797,-0.592,-0.6016,-0.3117,-0.2733,-0.2092,-0.2773,-0.4207,-0.4225,-0.4121,-0.4,-0.416,-0.4027,-0.37,-0.3276,-0.3061,-0.3049,-0.3049,-0.2572,-0.181,-0.1836,-0.1655,-0.1363,-0.1878,-0.189,-0.1592,-0.1395,-0.1096,-0.0698,-0.04,-0.01,0.0199,0.02,0.05,0.0997,0.01,-0.1079,-0.267,-0.2475,-0.266,-0.3123,-0.3108,-0.2511,-0.1367,-0.0615,0.0172,0.1123,0.1698,0.1866,0.1724,0.208,0.2278,0.2314,0.2235,0.233,0.2689,0.3318,0.0,0.0,0.0,0.0,0.0,0.0,0.0,0.0,0.0,0.5811,0.5722,0.0,0.5681,0.0,0.4019,0.3092,0.2356,0.2264,0.0,0.0,0.1836,0.1764,0.1026,-0.0,-0.0374,0.0185,-0.1331,-0.2408,-0.2274,-0.3065,-0.3962,-0.4827,-0.541,-0.6181,-0.7082,-0.7351,-0.7504,-0.7688,-0.7962,-0.8157,-0.7959,-0.6883,-0.5937,-0.5737,-0.5334,-0.4966,-0.4953,-0.4453,-0.4152,-0.3956,-0.3846,-0.3816,-0.397,-0.3841,-0.381,-0.4058,-0.4634,-0.5201,-0.5225,-0.5382,-0.5548,-0.157,-0.125,-0.0735,-0.1243,-0.222,-0.2441,-0.2538,-0.2519,-0.2514,-0.2211,-0.1708,-0.1605,-0.1596,-0.1684,-0.1684,-0.138,-0.0783,-0.0791,-0.0596,-0.0397,-0.0703,-0.0605,-0.0202,-0.0101,0.0101,0.0505,0.0606,0.0808,0.101,0.1111,0.1414,0.1819,0.1515,0.0799,-0.0195,-0.0977,-0.1363,-0.1448,-0.1531,-0.1038,0.0093,0.0452,0.0979,0.1765,0.1917,0.2003,0.2027,0.2293,0.2484,0.2511,0.251,0.2776,0.3226,0.3855,0.4412,0.0,0.0,0.0,0.0,0.0,0.0,0.0,0.0,0.0,0.0,0.0,0.4719,0.3743,0.3279,0.2718,0.2158,0.2064,0.1877,0.1501,0.1705,0.1435,0.0482,-0.0773,-0.1545,-0.1542,-0.2047,-0.2445,-0.2416,-0.2898,-0.358,-0.416,-0.4649,-0.5327,-0.654,-0.7003,-0.7143,-0.7095,-0.7413,-0.7174,-0.6216,-0.5194,-0.4632,-0.4935,-0.4636,-0.4149,-0.3676,-0.3582,-0.3483,-0.3176,-0.3174,-0.337,-0.3438,-0.3531,-0.3401,-0.3219,-0.3578,-0.4046,-0.4391,-0.4727,-0.4788,0.0105,0.0204,0.0207,0.0206,0.0203,-0.0309,-0.0718,-0.0908,-0.0514,0.0104,0.0729,0.0423,0.0317,0.0208,0.0208,0.0207,0.0204,0.0203,0.0203,0.0203,0.0303,0.0404,0.0707,0.0808,0.1111,0.1718,0.1718,0.1718,0.1718,0.192,0.2021,0.2021,0.2322,0.2422,0.222,0.0504,0.01,0.1084,0.0677,0.0665,0.1306,0.1489,0.184,0.2165,0.2073,0.2069,0.2244,0.2424,0.2602,0.2603,0.2778,0.3136,0.3587,0.4582,0.4992,0.0,0.4818,0.0,0.0,0.0,0.0,0.0,0.0,0.0,0.0,0.4482,0.3728,0.2485,0.2485,0.2391,0.2011,0.1915,0.1724,0.1532,0.1536,0.1064,0.0098,-0.138,-0.248,-0.2918,-0.2487,-0.2265,-0.2254,-0.2419,-0.2783,-0.3372,-0.3658,-0.4129,-0.5174,-0.5828,-0.6143,-0.6074,-0.6388,-0.5925,-0.3995,-0.3115,-0.3021,-0.3731,-0.3531,-0.313,-0.212,-0.2323,-0.2624,-0.2322,-0.2324,-0.2625,-0.2826,-0.2826,-0.2691,-0.2211,-0.2194,-0.2664,-0.3587,-0.391,-0.3959,0.0524,0.1374,0.1378,0.1366,0.1344,0.1244,0.0719,-0.0202,0.0206,0.0838,0.1592,0.1491,0.1491,0.1486,0.138,0.1376,0.137,0.1352,0.1344,0.1343,0.1628,0.1718,0.1718,0.212,0.2321,0.222,0.2221,0.222,0.2221,0.2322,0.2321,0.2321,0.2623,0.2826,0.2928,0.0,0.0,0.0,0.2269,0.2048,0.2332,0.2489,0.2444,0.2212,0.2486,0.0,0.2427,0.2871,0.3048,0.3048,0.2959,0.0,0.0,0.0,0.0,0.0,0.0,0.0,0.0,0.0,0.0,0.0,0.4883,0.482,0.4587,0.3964,0.3318,0.2536,0.2438,0.2342,0.2051,0.1758,0.1661,0.1564,0.1585,0.1302,0.0402,-0.0904,-0.1802,-0.1879,-0.2293,-0.2394,-0.187,-0.2078,-0.2494,-0.299,-0.3495,-0.3394,-0.259,-0.4025,-0.5101,-0.539,-0.561,-0.512,-0.3521,-0.1711,-0.1108,-0.1714,-0.1714,-0.1209,-0.0805,-0.0403,-0.0202,-0.0,-0.0101,-0.0505,-0.1109,-0.111,-0.0699,-0.0096,-0.0572,-0.1604,-0.3016,-0.3347,-0.3424,0.1152,0.1664,0.1679,0.1668,0.0,0.164,0.1325,0.0809,0.1031,0.137,0.1837,0.1963,0.1961,0.1945,0.2053,0.2149,0.2129,0.2112,0.2104,0.2103,0.2293,0.2387,0.2282,0.2467,0.2557,0.2454,0.2533,0.2623,0.2623,0.3026,0.3226,0.3226,0.3629,0.3932,0.4135,0.4029,0.3927,0.4036,0.35,0.3271,0.3436,0.2915,0.2873,0.3194,0.3379,0.0,0.0,0.0,0.0,0.0,0.0,0.0,0.0,0.5971,0.0,0.6558,0.6236,0.6029,0.5942,0.5563,0.5386,0.5334,0.5035,0.4598,0.4317,0.3859,0.3384,0.2886,0.2686,0.2487,0.219,0.209,0.1991,0.1992,0.1908,0.1716,0.1009,0.0101,-0.0804,-0.1497,-0.2107,-0.2112,-0.0996,-0.1003,-0.1312,-0.1716,-0.2019,-0.1918,-0.1512,-0.2999,-0.4591,-0.5543,-0.4338,-0.2923,-0.1209,-0.0604,0.01,-0.01,0.0099,0.0594,0.1374,0.168,0.179,0.1792,0.1704,0.1514,0.0706,0.0706,0.1,0.1072,0.0576,-0.0283,-0.1466,-0.2168,-0.2689,0.1662,0.1721,0.1747,0.1742,0.1717,0.1718,0.1717,0.1719,0.0,0.0,0.0,0.2099,0.2207,0.2287,0.2504,0.2597,0.257,0.2562,0.2562,0.2569,0.2668,0.2664,0.2662,0.2729,0.2705,0.2694,0.2961,0.3136,0.3128,0.3831,0.4236,0.4334,0.4834,0.5135,0.5436,0.5734,0.5839,0.5646,0.4738,0.4403,0.4534,0.3442,0.3313,0.4305,0.4304,0.4265,0.3999,0.4272,0.4326,0.4346,0.4154,0.4548,0.5453,0.698,0.767,0.7318,0.7255,0.7018,0.6628,0.6339,0.6142,0.6042,0.5336,0.4634,0.4034,0.3734,0.3534,0.323,0.2928,0.2724,0.2422,0.2422,0.2422,0.2422,0.2321,0.2118,0.1816,0.1109,0.0202,-0.0907,-0.1412,-0.1313,0.0101,0.0202,0.0101,-0.0202,-0.0404,-0.0202,-0.0504,-0.1913,-0.3726,-0.4746,-0.3127,-0.0806,0.1104,0.1303,0.0995,0.1467,0.1658,0.2134,0.3072,0.3283,0.3124,0.2849,0.2984,0.2709,0.2116,0.2017,0.2306,0.1971,0.1551,0.1047,0.0279,-0.0639,-0.1533,0.1727,0.1921,0.1926,0.2126,0.2321,0.2321,0.2321,0.2325,0.2058,0.2204,0.2353,0.2467,0.2466,0.2459,0.246,0.2585,0.2613,0.2575,0.2579,0.2613,0.2791,0.2984,0.2984,0.3507,0.3683,0.3629,0.403,0.44,0.4541,0.4839,0.514,0.5436,0.5937,0.6229,0.6313,0.6924,0.7839,0.8862,0.6642,0.5429,0.5415,0.4808,0.4464,0.4677,0.5555,0.5701,0.5016,0.5393,0.567,0.5837,0.6026,0.6315,0.6708,0.7879,0.8468,0.8322,0.7838,0.7508,0.7431,0.7235,0.6836,0.6337,0.5639,0.4836,0.4034,0.3734,0.3433,0.323,0.3029,0.2725,0.2422,0.2422,0.2522,0.2422,0.2522,0.2623,0.2522,0.1917,0.1412,0.1109,0.0806,0.0706,0.1212,0.1111,0.0808,0.0505,0.0505,0.0707,0.1212,0.0101,-0.1411,-0.2017,-0.1513,0.01,0.2082,0.3057,0.2833,0.2688,0.287,0.3056,0.3416,0.3431,0.3366,0.3421,0.3142,0.2871,0.2809,0.2522,0.25,0.2757,0.2441,0.193,0.1497,0.1017,0.0183,0.2021,0.2221,0.2221,0.2322,0.2422,0.2422,0.2522,0.2625,0.2646,0.2582,0.2522,0.2863,0.2981,0.2982,0.3302,0.3424,0.345,0.3563,0.358,0.3823,0.3941,0.4161,0.4264,0.4552,0.462,0.4579,0.5063,0.5437,0.5702,0.6266,0.6639,0.7033,0.7669,0.7717,0.74,0.8216,0.9137,0.9958,0.8141,0.7129,0.7329,0.6515,0.6187,0.6238,0.7239,0.728,0.6466,0.675,0.6908,0.702,0.7771,0.8186,0.8361,0.9515,1.0101,0.9604,0.9477,0.9217,0.9122,0.8623,0.7928,0.7132,0.6537,0.5737,0.4529,0.4033,0.3732,0.3632,0.353,0.3429,0.3328,0.3226,0.3228,0.3226,0.323,0.323,0.313,0.2624,0.2321,0.2422,0.2118,0.2018,0.2424,0.212,0.1817,0.1515,0.1514,0.1817,0.2323,0.1614,0.0706,0.0302,0.06,0.1585,0.3048,0.3307,0.3355,0.3477,0.3655,0.3731,0.3796,0.3809,0.376,0.37,0.3449,0.3291,0.3231,0.3062,0.3062,0.3054,0.3041,0.2622,0.2203,0.1693,0.0643,0.2222,0.2522,0.2522,0.2522,0.2624,0.2723,0.2925,0.3229,0.3331,0.3356,0.3197,0.3451,0.368,0.3785,0.4208,0.4429,0.4559,0.4632,0.4789,0.5029,0.5111,0.5373,0.5588,0.5516,0.5471,0.5773,0.6131,0.66,0.7064,0.7595,0.8136,0.8704,0.9183,0.9106,0.859,0.941,1.0036,1.0448,0.9533,0.8924,0.8924,0.8206,0.7905,0.8014,0.873,0.878,0.8174,0.8254,0.829,0.8361,0.9206,0.9742,0.9865,1.0875,1.125,1.069,1.0801,1.0801,1.0605,0.9912,0.9114,0.8223,0.7733,0.683,0.5522,0.4828,0.4433,0.4334,0.4236,0.4133,0.4033,0.4133,0.4133,0.4034,0.3935,0.3835,0.3835,0.3531,0.3228,0.3228,0.2925,0.3025,0.333,0.3026,0.2623,0.2522,0.2522,0.2522,0.2522,0.2522,0.2318,0.2201,0.2278,0.2648,0.3514,0.3548,0.3477,0.3959,0.4038,0.4104,0.4158,0.4093,0.3954,0.3981,0.3842,0.3607,0.3433,0.3376,0.3406,0.3309,0.3307,0.3113,0.2616,0.208,0.1104,0.2523,0.2725,0.2826,0.3029,0.3433,0.3732,0.3932,0.4236,0.4237,0.4541,0.4857,0.456,0.4463,0.4657,0.497,0.532,0.5606,0.5702,0.5797,0.5995,0.6102,0.6154,0.6262,0.6026,0.6196,0.6877,0.7393,0.7912,0.8522,0.8794,0.9206,0.9764,0.9924,1.0019,1.0109,1.0314,1.0618,1.1119,1.0811,1.0212,0.9624,0.9731,0.9735,0.9426,0.9735,1.004,1.01,0.9908,0.9882,1.016,1.0445,1.0747,1.1058,1.1165,1.1272,1.1194,1.1194,1.1194,1.1096,1.0605,1.0109,0.9805,0.8825,0.7922,0.7012,0.6517,0.5929,0.5639,0.5039,0.4736,0.4437,0.4636,0.4736,0.4537,0.4636,0.4734,0.4634,0.4634,0.4228,0.3318,0.3723,0.4228,0.4533,0.4031,0.3428,0.2925,0.2826,0.2826,0.2826,0.2825,0.3007,0.3067,0.2943,0.282,0.3547,0.3944,0.3963,0.3978,0.4137,0.4222,0.4218,0.4133,0.3886,0.4032,0.388,0.373,0.3683,0.344,0.3343,0.3636,0.3637,0.3542,0.305,0.2634,0.1843,0.2927,0.3232,0.3232,0.3533,0.3835,0.4135,0.4437,0.4636,0.5133,0.5536,0.5937,0.6137,0.6137,0.5737,0.6237,0.6467,0.6625,0.681,0.7129,0.7514,0.7713,0.8033,0.8361,0.8251,0.8436,0.861,0.9047,0.937,0.9692,1.0199,1.0509,1.0555,1.092,1.1019,1.09,1.1194,1.1492,1.1693,1.159,1.1394,1.11,1.1012,1.0854,1.0642,1.0637,1.095,1.126,1.0941,1.0775,1.1086,1.1487,1.1785,1.1878,1.2078,1.217,1.2175,1.2175,1.2078,1.1878,1.159,1.1194,1.0792,1.0207,0.9304,0.8287,0.7892,0.8001,0.8131,0.683,0.5729,0.5834,0.5834,0.5734,0.5639,0.5539,0.5539,0.5539,0.5338,0.5133,0.483,0.4728,0.4931,0.5438,0.4937,0.4234,0.3833,0.3632,0.3531,0.3531,0.3531,0.3501,0.3543,0.3399,0.3442,0.3944,0.4143,0.4262,0.4224,0.421,0.4297,0.43,0.421,0.4137,0.417,0.4087,0.4012,0.4126,0.3999,0.3932,0.4034,0.37,0.3433,0.3049,0.2748,0.2158,0.333,0.3739,0.3857,0.4079,0.44,0.4784,0.5177,0.5569,0.6242,0.6828,0.7229,0.7925,0.7949,0.7582,0.7691,0.7795,0.7932,0.8294,0.8635,0.9086,0.9349,0.9585,1.0021,1.0135,1.0135,1.0241,1.0468,1.0707,1.095,1.1394,1.1559,1.1425,1.1773,1.1829,1.1471,1.1815,1.2083,1.2191,1.2083,1.2073,1.2078,1.198,1.1686,1.1392,1.1367,1.1452,1.1806,1.1542,1.1532,1.1686,1.2231,1.2467,1.2467,1.2662,1.2759,1.2759,1.2759,1.2764,1.2467,1.2273,1.1878,1.1487,1.1194,1.0587,0.9669,0.9469,0.9989,1.073,0.9126,0.7925,0.7126,0.7132,0.7033,0.6833,0.6736,0.6736,0.6836,0.6534,0.6531,0.6534,0.6022,0.5824,0.6439,0.6042,0.5238,0.4738,0.4334,0.4133,0.4034,0.393,0.3906,0.3832,0.3759,0.3877,0.4262,0.4276,0.4314,0.4302,0.4297,0.4297,0.4297,0.4297,0.4297,0.4232,0.4304,0.4306,0.4248,0.4288,0.4223,0.4145,0.3914,0.3504,0.3238,0.2866,0.2402,0.3934,0.4046,0.4623,0.5012,0.5193,0.6142,0.681,0.7193,0.7688,0.8326,0.8916,0.9312,0.9701,0.9948,0.9252,0.9267,0.9717,1.0128,1.0285,1.0408,1.049,1.0582,1.0692,1.1038,1.1143,1.1126,1.1586,1.1815,1.2023,1.2144,1.2437,1.2607,1.243,1.2219,1.1944,1.1973,1.2288,1.2581,1.2278,1.2165,1.2365,1.2365,1.2164,1.1767,1.1652,1.1541,1.1472,1.1718,1.1941,1.1957,1.2443,1.2759,1.2759,1.2764,1.2759,1.2759,1.2759,1.2759,1.2764,1.2565,1.2273,1.2165,1.178,1.138,1.1068,1.0979,1.1404,1.2459,1.1742,1.0529,0.852,0.8425,0.8425,0.8028,0.8322,0.8528,0.8623,0.8428,0.8623,0.8319,0.7608,0.7313,0.7836,0.7241,0.6242,0.5441,0.4937,0.4634,0.4234,0.4034,0.41,0.413,0.4051,0.3971,0.4266,0.418,0.4218,0.421,0.421,0.421,0.43,0.4297,0.4304,0.4312,0.4334,0.4336,0.4312,0.431,0.4324,0.4172,0.4042,0.3725,0.3325,0.3,0.2539,0.4669,0.5237,0.5747,0.6128,0.6579,0.7064,0.7617,0.8245,0.8805,0.9218,0.9731,1.001,1.0345,1.0622,1.0569,1.0578,1.0604,1.0847,1.1069,1.1305,1.148,1.1782,1.2114,1.2232,1.245,1.255,1.2663,1.2778,1.2679,1.2785,1.2784,1.2663,1.2777,1.2552,1.2169,1.2376,1.2506,1.2384,1.2485,1.2501,1.2384,1.2587,1.2486,1.2024,1.1992,1.1794,1.1658,1.1732,1.1907,1.2209,1.24,1.2608,1.2743,1.2759,1.2759,1.2759,1.2759,1.2759,1.2764,1.2764,1.2662,1.2559,1.2467,1.2268,1.2262,1.217,1.2283,1.2396,1.251,1.1702,1.0699,1.0006,0.9715,0.9418,0.9422,0.9521,0.9324,0.9324,0.9324,0.9221,0.8718,0.8524,0.8233,0.764,0.6742,0.5842,0.534,0.4937,0.4634,0.4535,0.4506,0.4534,0.4483,0.4432,0.4442,0.4118,0.3855,0.3855,0.3857,0.3773,0.3773,0.3917,0.3934,0.4217,0.4318,0.4438,0.4434,0.4385,0.4373,0.4254,0.4122,0.3923,0.3417,0.3012,0.2468,0.5289,0.611,0.6608,0.7093,0.7761,0.8355,0.8772,0.9343,1.0002,1.0384,1.0524,1.0801,1.1035,1.1331,1.16,1.1704,1.1617,1.1713,1.1916,1.2252,1.238,1.2659,1.2989,1.2989,1.3098,1.332,1.332,1.3229,1.3209,1.3189,1.3213,1.3195,1.3153,1.297,1.2571,1.2713,1.2667,1.2475,1.2684,1.2678,1.2565,1.2678,1.2533,1.2124,1.2043,1.1898,1.1701,1.1731,1.1951,1.2258,1.2441,1.2597,1.2743,1.2759,1.2759,1.2759,1.2759,1.2759,1.2759,1.2759,1.2759,1.2759,1.2759,1.2759,1.2759,1.2759,1.2662,1.2565,1.257,1.2483,1.2083,1.1487,1.0998,1.0609,1.0609,1.0605,1.0413,1.0413,1.0314,1.0109,0.9916,0.9426,0.8829,0.8035,0.7138,0.6342,0.5842,0.534,0.5135,0.5033,0.502,0.4956,0.4818,0.4776,0.4712,0.4504,0.4062,0.4055,0.3762,0.3564,0.3562,0.3612,0.3828,0.4116,0.4328,0.4458,0.4542,0.4578,0.453,0.4391,0.4258,0.4062,0.3556,0.2935,0.2482,0.6015,0.674,0.7308,0.791,0.8749,0.9723,1.0302,1.0522,1.1383,1.1596,1.1595,1.1878,1.1983,1.2164,1.2123,1.2449,1.2765,1.2802,1.2935,1.3176,1.3202,1.3202,1.3315,1.3315,1.3315,1.3428,1.332,1.3532,1.3722,1.3717,1.3814,1.3976,1.3602,1.3394,1.3459,1.3023,1.277,1.2716,1.2818,1.2727,1.2754,1.2727,1.2522,1.2216,1.2059,1.1844,1.1413,1.179,1.2102,1.2108,1.2484,1.2743,1.2754,1.2759,1.2861,1.2861,1.2764,1.2759,1.2861,1.2856,1.2861,1.2759,1.2759,1.2861,1.2764,1.2759,1.2764,1.2764,1.2764,1.2759,1.2759,1.2565,1.2273,1.1785,1.1688,1.178,1.1878,1.1883,1.178,1.1179,1.0792,1.01,0.9106,0.8226,0.7537,0.6842,0.6242,0.5842,0.5536,0.5436,0.5534,0.5515,0.5268,0.502,0.4973,0.4925,0.4602,0.4284,0.3882,0.3487,0.3574,0.3602,0.3711,0.4007,0.4616,0.4842,0.4895,0.4935,0.4904,0.4877,0.4557,0.4302,0.3784,0.3254,0.2796,0.7271,0.7858,0.8269,0.9099,1.0025,1.0627,1.118,1.161,1.2045,1.2023,1.1923,1.198,1.2021,1.2117,1.2248,1.2496,1.2848,1.3105,1.327,1.33,1.332,1.3428,1.3532,1.3532,1.364,1.3862,1.3975,1.3975,1.4083,1.4083,1.4083,1.4126,1.3868,1.3636,1.3475,1.3157,1.297,1.2762,1.2623,1.2522,1.2527,1.2527,1.2447,1.2307,1.214,1.1988,1.1794,1.182,1.1887,1.2135,1.235,1.2597,1.2727,1.2759,1.2856,1.2958,1.305,1.3055,1.3249,1.3249,1.3147,1.2948,1.2948,1.2958,1.2861,1.2764,1.2764,1.2759,1.2759,1.2759,1.2759,1.2759,1.2565,1.217,1.2273,1.217,1.2073,1.1878,1.178,1.1688,1.0895,0.9899,0.9008,0.8223,0.7537,0.6942,0.6345,0.5942,0.5737,0.5636,0.5534,0.5527,0.5392,0.5376,0.5344,0.5326,0.521,0.4677,0.4069,0.367,0.3667,0.3577,0.3686,0.4089,0.471,0.5198,0.525,0.5305,0.5272,0.517,0.491,0.4562,0.4212,0.3668,0.3013,0.8032,0.8699,0.9219,1.0025,1.1008,1.1489,1.1917,1.2452,1.2547,1.2414,1.2319,1.2273,1.2273,1.2319,1.2516,1.2756,1.2972,1.3335,1.3635,1.3619,1.3645,1.3759,1.3867,1.3867,1.3975,1.4191,1.4196,1.4299,1.4293,1.4407,1.4401,1.4471,1.4261,1.3964,1.3778,1.3467,1.3243,1.3091,1.2885,1.283,1.283,1.283,1.2786,1.2686,1.2538,1.2431,1.2305,1.227,1.2257,1.2373,1.2642,1.28,1.2829,1.2948,1.3055,1.3147,1.3244,1.3346,1.3443,1.3443,1.3443,1.3244,1.3244,1.3152,1.3055,1.2958,1.2856,1.2764,1.2759,1.2759,1.2759,1.2759,1.2759,1.2565,1.2565,1.2467,1.2273,1.217,1.2181,1.2001,1.09,0.9596,0.84,0.7922,0.7335,0.6842,0.6442,0.6139,0.5937,0.5937,0.5937,0.5837,0.5924,0.5819,0.5732,0.5732,0.5737,0.5088,0.4349,0.3942,0.3836,0.3555,0.3569,0.436,0.498,0.5577,0.5731,0.5679,0.5642,0.5458,0.5079,0.4812,0.4354,0.3695,0.3027,0.8692,0.9475,1.0029,1.0785,1.1733,1.2209,1.2735,1.312,1.3121,1.299,1.2894,1.2861,1.2861,1.291,1.3007,1.3306,1.3561,1.3811,1.4033,1.4212,1.4175,1.4299,1.4191,1.4299,1.4299,1.4299,1.4299,1.4401,1.46,1.4606,1.4713,1.4905,1.473,1.4571,1.4244,1.4072,1.3757,1.3616,1.3528,1.342,1.3409,1.3386,1.3318,1.3197,1.3145,1.302,1.2957,1.3067,1.3014,1.2923,1.3199,1.321,1.3022,1.3232,1.3437,1.3335,1.3443,1.3539,1.3539,1.3636,1.3647,1.3756,1.3642,1.3448,1.3357,1.3255,1.305,1.2953,1.2958,1.2856,1.2856,1.2861,1.2861,1.2861,1.2764,1.2764,1.2759,1.2764,1.2683,1.2412,1.0988,0.9068,0.769,0.7515,0.7335,0.6942,0.6539,0.6337,0.6337,0.6237,0.6337,0.6337,0.6237,0.6137,0.6037,0.6039,0.6042,0.5727,0.499,0.4587,0.4185,0.3902,0.3814,0.462,0.5222,0.5729,0.6014,0.5953,0.5637,0.5062,0.487,0.4773,0.4394,0.3723,0.3229,0.9838,1.0501,1.0962,1.1589,1.2316,1.2664,1.3055,1.3323,1.3441,1.3358,1.3288,1.3346,1.3249,1.3374,1.3599,1.3751,1.3926,1.428,1.4483,1.4579,1.4753,1.4713,1.4611,1.4719,1.4826,1.4832,1.4724,1.4826,1.4928,1.4928,1.4934,1.5035,1.4967,1.4959,1.4897,1.4637,1.4372,1.4038,1.3774,1.3556,1.3528,1.3362,1.3322,1.3324,1.3254,1.3327,1.3537,1.3683,1.3514,1.3239,1.3352,1.3443,1.3335,1.3443,1.3539,1.363,1.3732,1.3823,1.4016,1.4112,1.4124,1.4148,1.3943,1.3744,1.3659,1.3551,1.3346,1.3346,1.3346,1.3249,1.3346,1.3249,1.3249,1.3249,1.3055,1.2856,1.2759,1.2764,1.2775,1.2607,1.0881,0.9076,0.7888,0.7409,0.7434,0.6942,0.6642,0.6437,0.6537,0.6537,0.6537,0.6437,0.6337,0.6337,0.6337,0.6337,0.6339,0.6239,0.5724,0.532,0.4916,0.4522,0.4628,0.5035,0.5432,0.5934,0.6034,0.6004,0.5425,0.4922,0.4818,0.4706,0.4316,0.3734,0.333,1.0725,1.1366,1.1912,1.2418,1.2929,1.3143,1.3362,1.3624,1.3594,1.3487,1.346,1.3443,1.3443,1.3579,1.3905,1.4065,1.4133,1.4596,1.4824,1.4853,1.4978,1.4928,1.4821,1.4934,1.5041,1.5041,1.5041,1.5035,1.5148,1.5261,1.5256,1.5357,1.5357,1.5394,1.5499,1.524,1.4965,1.4737,1.4301,1.3998,1.3975,1.3736,1.3677,1.368,1.366,1.3791,1.3986,1.4075,1.3963,1.3782,1.3823,1.3829,1.3823,1.3823,1.3919,1.4016,1.4016,1.4106,1.4298,1.4298,1.431,1.4322,1.4124,1.4033,1.3846,1.3744,1.3636,1.3539,1.3539,1.3448,1.3448,1.3448,1.3448,1.3443,1.3249,1.305,1.2958,1.2861,1.2786,1.2299,1.0988,0.9182,0.7991,0.772,0.7431,0.7039,0.6939,0.6839,0.6836,0.6736,0.6736,0.6637,0.6534,0.6531,0.6634,0.6736,0.6637,0.6437,0.6239,0.5839,0.5539,0.5135,0.5135,0.5336,0.5737,0.5937,0.6137,0.6037,0.5532,0.5029,0.4832,0.4634,0.4236,0.4137,0.3732,1.147,1.2191,1.273,1.3141,1.3405,1.3507,1.3717,1.3825,1.3653,1.3556,1.363,1.3431,1.3534,1.3568,1.405,1.4332,1.4389,1.492,1.5045,1.5209,1.525,1.5256,1.5143,1.5143,1.525,1.5143,1.5148,1.5256,1.5476,1.5589,1.569,1.5785,1.5785,1.5885,1.5819,1.5662,1.5541,1.5372,1.4879,1.4628,1.4532,1.431,1.4184,1.4184,1.419,1.416,1.4268,1.4274,1.4292,1.4298,1.4298,1.4298,1.4298,1.4298,1.4298,1.4304,1.4298,1.4298,1.4298,1.4298,1.4298,1.4304,1.4304,1.4208,1.4022,1.3925,1.3829,1.3727,1.3636,1.3636,1.363,1.3636,1.3636,1.3636,1.3539,1.3346,1.3152,1.2958,1.278,1.2634,1.0904,0.9604,0.8718,0.8134,0.7543,0.7138,0.7039,0.7036,0.7036,0.7036,0.7036,0.7036,0.6933,0.6728,0.693,0.7135,0.6936,0.6736,0.6539,0.6239,0.5939,0.5737,0.5636,0.5737,0.6137,0.6339,0.6542,0.6237,0.5634,0.5233,0.5035,0.4836,0.4537,0.4539,0.4336,1.2173,1.2899,1.3394,1.3667,1.3802,1.3834,1.3802,1.3916,1.3864,1.3925,1.4112,1.41,1.4106,1.4124,1.4248,1.4483,1.4922,1.5261,1.5469,1.5672,1.5785,1.5785,1.5678,1.5672,1.5678,1.5678,1.5678,1.5785,1.5785,1.5791,1.5785,1.5891,1.5885,1.5885,1.5867,1.5819,1.5804,1.5713,1.5293,1.4932,1.4714,1.4479,1.4316,1.4298,1.4298,1.4298,1.4298,1.4298,1.4298,1.4298,1.4298,1.4298,1.4298,1.4298,1.4298,1.4298,1.4298,1.4298,1.4298,1.4298,1.4298,1.4298,1.4298,1.4298,1.4208,1.4208,1.4208,1.4112,1.4106,1.4106,1.4112,1.4112,1.4112,1.4016,1.3732,1.3443,1.3147,1.2958,1.278,1.2407,1.1203,0.969,0.8396,0.8322,0.7832,0.7335,0.7235,0.7235,0.7235,0.7235,0.7335,0.7338,0.7235,0.7132,0.7235,0.7441,0.7341,0.7039,0.6839,0.6739,0.6439,0.6339,0.6237,0.6337,0.6537,0.6739,0.6945,0.6639,0.6134,0.5737,0.5336,0.5138,0.5037,0.5039,0.5039,1.2745,1.345,1.3882,1.4051,1.4131,1.4119,1.414,1.4136,1.4112,1.4208,1.4298,1.4298,1.4298,1.4322,1.4484,1.4754,1.5155,1.5517,1.5753,1.5873,1.5891,1.5885,1.5885,1.5885,1.5885,1.5885,1.5885,1.5885,1.5885,1.5885,1.5891,1.5885,1.5885,1.5885,1.5885,1.5885,1.5931,1.5791,1.5536,1.5167,1.4902,1.4636,1.4401,1.4322,1.4298,1.4298,1.4298,1.4298,1.4298,1.4298,1.4298,1.4298,1.4298,1.4298,1.4298,1.4298,1.4298,1.4298,1.4298,1.4298,1.4298,1.4304,1.4304,1.4298,1.4298,1.4298,1.4298,1.4298,1.4298,1.4298,1.4298,1.4298,1.4298,1.4202,1.3925,1.3539,1.3152,1.2964,1.2683,1.2206,1.1002,0.9702,0.881,0.8421,0.8131,0.7637,0.7637,0.7637,0.7637,0.7637,0.7637,0.764,0.764,0.764,0.764,0.7743,0.7646,0.7444,0.7138,0.7039,0.6936,0.6939,0.6942,0.7039,0.7039,0.7141,0.7244,0.6939,0.6639,0.6442,0.6142,0.5839,0.5739,0.5839,0.5839,1.3255,1.3931,1.4208,1.4298,1.4298,1.431,1.431,1.4304,1.4298,1.4304,1.4298,1.4298,1.4298,1.4352,1.4521,1.4811,1.5185,1.5614,1.5873,1.5879,1.5885,1.5885,1.5885,1.5885,1.5885,1.5885,1.5885,1.5885,1.5885,1.5885,1.5885,1.5885,1.5885,1.5885,1.5885,1.5885,1.5873,1.5819,1.559,1.5384,1.5131,1.4859,1.4564,1.4346,1.4298,1.4394,1.44,1.44,1.44,1.4394,1.4388,1.4292,1.4394,1.4298,1.4298,1.4298,1.4298,1.4298,1.4298,1.4304,1.431,1.4334,1.437,1.4377,1.4383,1.4389,1.4364,1.4316,1.4298,1.4298,1.4298,1.4298,1.4298,1.4202,1.4022,1.3636,1.3152,1.2872,1.2402,1.1923,1.0614,0.9205,0.8715,0.8326,0.8134,0.8038,0.8038,0.8038,0.8038,0.7939,0.7939,0.7839,0.7839,0.7839,0.7842,0.7842,0.7846,0.7743,0.7437,0.7437,0.7335,0.7437,0.7441,0.7341,0.7441,0.7543,0.7547,0.7341,0.7141,0.7048,0.6845,0.6439,0.6539,0.6739,0.6539,1.334,1.3931,1.4208,1.4298,1.4298,1.4298,1.4298,1.4298,1.4298,1.4298,1.4298,1.4298,1.4298,1.4322,1.4328,1.4648,1.5131,1.5731,1.5992,1.5992,1.5998,1.5998,1.5992,1.5885,1.5885,1.5885,1.5885,1.5885,1.5885,1.5885,1.5885,1.5885,1.5885,1.5885,1.5885,1.5885,1.5885,1.5861,1.5668,1.5499,1.5324,1.495,1.4606,1.4358,1.4418,1.449,1.4592,1.4694,1.479,1.4885,1.4555,1.4561,1.458,1.449,1.44,1.44,1.44,1.4406,1.4437,1.4322,1.4431,1.457,1.4642,1.4642,1.4648,1.4636,1.4545,1.4377,1.4316,1.4298,1.4298,1.4298,1.4298,1.4202,1.3823,1.3443,1.2958,1.2483,1.2109,1.1629,1.0212,0.8806,0.8513,0.8223,0.8134,0.8038,0.8038,0.8038,0.8038,0.8038,0.7939,0.7939,0.7939,0.7939,0.7939,0.7939,0.7942,0.7942,0.7839,0.7839,0.7736,0.7839,0.7839,0.7739,0.7743,0.7842,0.7743,0.7643,0.7543,0.7444,0.7241,0.7036,0.7138,0.7138,0.6942,1.363,1.4118,1.4208,1.4298,1.4298,1.449,1.449,1.4496,1.4688,1.4592,1.4496,1.4496,1.4394,1.4298,1.4298,1.4692,1.5322,1.6064,1.6293,1.6311,1.6217,1.6111,1.6105,1.5998,1.5885,1.5885,1.5885,1.5891,1.5885,1.5885,1.5885,1.5885,1.5885,1.5885,1.5885,1.5885,1.5885,1.5849,1.5759,1.562,1.5463,1.498,1.4734,1.4716,1.466,1.4682,1.4885,1.4994,1.5089,1.5077,1.4867,1.4867,1.4987,1.5096,1.5006,1.4808,1.47,1.4762,1.4861,1.4905,1.5035,1.537,1.532,1.542,1.532,1.5189,1.4874,1.4454,1.4334,1.4298,1.4298,1.431,1.4298,1.4202,1.3835,1.3465,1.3066,1.2494,1.2011,1.1428,0.9706,0.8605,0.8209,0.8117,0.8131,0.8038,0.8038,0.8038,0.8038,0.8038,0.8137,0.8035,0.8035,0.8137,0.8137,0.8137,0.8137,0.8137,0.8137,0.8137,0.8038,0.8137,0.8038,0.7842,0.7942,0.8041,0.7942,0.7839,0.7743,0.7743,0.764,0.7537,0.7537,0.754,0.7341,1.3823,1.4298,1.4394,1.4394,1.4394,1.4688,1.479,1.4885,1.4987,1.4987,1.479,1.479,1.4688,1.4514,1.4606,1.4949,1.5626,1.6327,1.6529,1.663,1.653,1.643,1.6318,1.6205,1.6092,1.6205,1.6099,1.5998,1.5885,1.5885,1.5885,1.5885,1.5885,1.5998,1.5998,1.5992,1.5992,1.6105,1.5986,1.5858,1.5542,1.5291,1.5202,1.527,1.5052,1.5164,1.5415,1.5641,1.5628,1.5583,1.5416,1.5358,1.546,1.5632,1.5728,1.5556,1.5223,1.5242,1.5407,1.5484,1.5505,1.5853,1.5992,1.61,1.5967,1.5601,1.5281,1.4769,1.4643,1.46,1.4709,1.4485,1.4491,1.4419,1.4163,1.3803,1.3624,1.3122,1.2175,1.1053,0.9414,0.8803,0.8609,0.8315,0.8428,0.8428,0.8333,0.8333,0.8333,0.8336,0.8333,0.8134,0.8131,0.8237,0.8237,0.8333,0.8333,0.8333,0.8333,0.8333,0.8336,0.8237,0.8237,0.8137,0.8237,0.8336,0.8137,0.8038,0.7939,0.7939,0.8038,0.8038,0.8134,0.7935,0.764,1.4022,1.4298,1.4592,1.4694,1.4688,1.4885,1.5089,1.5191,1.5185,1.5185,1.5191,1.5083,1.4981,1.5025,1.5234,1.5505,1.5929,1.6234,1.6637,1.681,1.6736,1.663,1.663,1.6511,1.6405,1.6518,1.6518,1.6311,1.6099,1.5992,1.5992,1.5998,1.5992,1.6111,1.6324,1.6092,1.6199,1.6643,1.6518,1.6274,1.6264,1.624,1.617,1.591,1.5789,1.5831,1.6117,1.6335,1.6461,1.6315,1.6006,1.5908,1.6082,1.587,1.6025,1.5873,1.566,1.521,1.5588,1.5697,1.5895,1.6273,1.6375,1.6272,1.6337,1.6177,1.5935,1.5878,1.5512,1.5256,1.5243,1.5145,1.5047,1.5011,1.4886,1.4695,1.453,1.4015,1.3044,1.2226,1.1077,1.0031,0.9513,0.9019,0.8726,0.8726,0.8722,0.8726,0.873,0.8733,0.8531,0.8329,0.8329,0.8432,0.8638,0.8634,0.8531,0.863,0.863,0.863,0.8531,0.8531,0.863,0.863,0.8627,0.8428,0.8233,0.8134,0.8137,0.8237,0.8333,0.8531,0.8627,0.8333,0.7939,1.4598,1.4592,1.479,1.4885,1.4981,1.5261,1.5363,1.5465,1.5458,1.5458,1.5369,1.5363,1.5267,1.523,1.5557,1.5841,1.613,1.6599,1.699,1.7121,1.7067,1.7073,1.6961,1.6849,1.6842,1.673,1.6723,1.6624,1.6418,1.6311,1.6305,1.6305,1.6305,1.6411,1.653,1.6405,1.663,1.6849,1.6723,1.6554,1.6657,1.686,1.6935,1.6464,1.641,1.6452,1.6546,1.6633,1.6834,1.668,1.6427,1.6321,1.6293,1.6056,1.5939,1.6323,1.6075,1.6026,1.6393,1.6445,1.6682,1.6931,1.6971,1.7088,1.6945,1.6652,1.6593,1.6939,1.6225,1.5863,1.5838,1.5632,1.5632,1.5589,1.5487,1.5524,1.5352,1.4921,1.4254,1.3502,1.2766,1.1895,1.0936,1.0404,1.0109,0.9715,0.9715,0.9719,0.9422,0.9133,0.8928,0.8623,0.8627,0.873,0.8935,0.9137,0.8829,0.8829,0.8726,0.8726,0.8726,0.8726,0.8829,0.8825,0.8726,0.8627,0.8329,0.8428,0.8531,0.8531,0.8627,0.8726,0.8825,0.8528,0.8134,1.5077,1.4879,1.5077,1.5172,1.5267,1.5445,1.554,1.5635,1.5737,1.573,1.5635,1.554,1.5452,1.5395,1.568,1.6039,1.6426,1.6846,1.7255,1.7482,1.7609,1.7503,1.7285,1.7173,1.706,1.6948,1.7054,1.6942,1.6942,1.6942,1.6836,1.6723,1.6617,1.6723,1.6723,1.6723,1.6842,1.7173,1.706,1.6935,1.7002,1.7317,1.7231,1.7111,1.6959,1.6927,1.6921,1.6954,1.6954,1.6954,1.6968,1.6847,1.658,1.6348,1.6137,1.6414,1.6328,1.674,1.7027,1.7174,1.7321,1.7475,1.7589,1.7443,1.7457,1.718,1.7081,1.7439,1.683,1.6462,1.6328,1.6227,1.6126,1.6151,1.6119,1.6215,1.6202,1.5732,1.5669,1.5355,1.466,1.3895,1.3002,1.2211,1.159,1.0998,1.0708,1.0609,1.0216,0.9826,0.9422,0.9118,0.9023,0.9126,0.9232,0.9335,0.9126,0.9027,0.8924,0.9023,0.9027,0.9027,0.9126,0.9027,0.8924,0.9023,0.8928,0.8928,0.8829,0.8829,0.8931,0.8928,0.8928,0.873,0.8432,1.5452,1.5445,1.5452,1.5452,1.5445,1.573,1.5825,1.573,1.5825,1.5825,1.573,1.5737,1.573,1.575,1.5823,1.6109,1.6607,1.6727,1.7101,1.7435,1.7589,1.7595,1.7483,1.7483,1.7483,1.7483,1.7371,1.7371,1.7477,1.7371,1.716,1.6829,1.6836,1.6948,1.6948,1.6935,1.7041,1.7371,1.7378,1.7477,1.7477,1.7549,1.7528,1.7535,1.7515,1.7522,1.7515,1.7442,1.7408,1.7395,1.7448,1.7292,1.6927,1.6774,1.666,1.6658,1.6826,1.7121,1.7355,1.7335,1.7335,1.7488,1.7589,1.7589,1.7589,1.7589,1.7555,1.762,1.7151,1.7052,1.6922,1.6922,1.6716,1.6742,1.6698,1.6873,1.6847,1.6762,1.66,1.685,1.643,1.542,1.4813,1.3918,1.3008,1.2299,1.178,1.1585,1.0998,1.0605,1.001,0.971,0.9521,0.9525,0.9525,0.9525,0.9327,0.9327,0.9324,0.9422,0.9426,0.9426,0.9327,0.9426,0.9324,0.9426,0.9426,0.9225,0.9126,0.9133,0.9133,0.9229,0.9229,0.913,0.8832,1.5642,1.5642,1.573,1.573,1.5737,1.5737,1.5825,1.5825,1.5825,1.5825,1.5825,1.5825,1.5825,1.5832,1.5858,1.6146,1.6647,1.6707,1.7088,1.7408,1.7589,1.7589,1.7589,1.7589,1.7589,1.7589,1.7589,1.7589,1.7589,1.7589,1.7477,1.7265,1.716,1.7265,1.7364,1.7259,1.7364,1.747,1.7589,1.7589,1.7589,1.7589,1.7589,1.7589,1.7589,1.7589,1.7575,1.7582,1.7589,1.7562,1.758,1.7452,1.7421,1.7265,1.717,1.7038,1.7174,1.7315,1.7515,1.7468,1.7482,1.7522,1.7589,1.7589,1.7589,1.7589,1.7589,1.7535,1.7482,1.7382,1.7408,1.7311,1.7324,1.7239,1.7279,1.7351,1.7331,1.7206,1.7224,1.7221,1.7094,1.6678,1.6186,1.5712,1.4624,1.3705,1.3077,1.2462,1.178,1.1096,1.0502,1.001,0.9821,0.9624,0.9624,0.9624,0.9624,0.9624,0.9624,0.9624,0.9624,0.9624,0.9525,0.9624,0.9624,0.9525,0.9525,0.9426,0.9327,0.9331,0.943,0.943,0.9529,0.9426,0.9229,1.5651,1.5591,1.5665,1.5752,1.5818,1.5825,1.5825,1.5825,1.5825,1.5825,1.5825,1.5825,1.5825,1.5845,1.5959,1.6213,1.664,1.684,1.7161,1.7422,1.7589,1.7589,1.7589,1.7589,1.7589,1.7589,1.7589,1.7589,1.7589,1.7589,1.7582,1.7582,1.7589,1.7582,1.7582,1.7589,1.7589,1.7589,1.7589,1.7589,1.7589,1.7589,1.7589,1.7589,1.7589,1.7589,1.7589,1.7589,1.7589,1.7589,1.7654,1.7593,1.759,1.7626,1.7626,1.7509,1.7522,1.7388,1.7522,1.7582,1.7582,1.7589,1.7589,1.7589,1.7589,1.7589,1.7589,1.7589,1.7575,1.7589,1.7589,1.7555,1.7542,1.7423,1.743,1.7483,1.7589,1.7508,1.7448,1.7472,1.7338,1.7197,1.6462,1.5846,1.4967,1.401,1.3391,1.2678,1.1975,1.1296,1.0712,1.0216,0.992,0.9727,0.9624,0.9624,0.9624,0.9624,0.9624,0.9624,0.9624,0.9624,0.9624,0.9624,0.9624,0.9624,0.9525,0.9525,0.9525,0.9624,0.9628,0.9529,0.9529,0.9525,0.9525,1.5349,1.5224,1.5402,1.5571,1.5792,1.5825,1.5825,1.5825,1.5825,1.5825,1.5825,1.5825,1.5825,1.5885,1.6066,1.6386,1.67,1.6981,1.7281,1.7508,1.7589,1.7589,1.7589,1.7589,1.7589,1.7589,1.7589,1.7589,1.7589,1.7589,1.7589,1.7589,1.7589,1.7589,1.7589,1.7589,1.7589,1.7589,1.7589,1.7589,1.7589,1.7589,1.7589,1.7589,1.7589,1.7589,1.7589,1.7589,1.7589,1.7589,1.7589,1.766,1.7634,1.7627,1.7627,1.7634,1.7535,1.7562,1.7589,1.7589,1.7589,1.7589,1.7589,1.7589,1.7589,1.7589,1.7589,1.7589,1.7589,1.7589,1.7589,1.7589,1.7589,1.7589,1.7589,1.7589,1.7589,1.7589,1.762,1.7593,1.7576,1.7311,1.6573,1.5733,1.4977,1.415,1.3567,1.2894,1.2083,1.1492,1.0712,1.0323,0.9924,0.9727,0.9624,0.9624,0.9624,0.9624,0.9624,0.9624,0.9624,0.9624,0.9624,0.9624,0.9624,0.9624,0.9624,0.9624,0.9624,0.9624,0.9624,0.9628,0.9624,0.9624,0.9624,1.5057,1.5093,1.5277,1.5451,1.5565,1.5752,1.5825,1.5825,1.5825,1.5825,1.5825,1.5825,1.5825,1.5919,1.6152,1.6446,1.672,1.7014,1.7301,1.7555,1.7589,1.7589,1.7589,1.7589,1.7589,1.7589,1.7589,1.7589,1.7589,1.7589,1.7589,1.7589,1.7589,1.7589,1.7589,1.7589,1.7589,1.7589,1.7589,1.7589,1.7589,1.7589,1.7589,1.7589,1.7589,1.7589,1.7589,1.7589,1.7589,1.7589,1.7589,1.7589,1.7589,1.7589,1.7589,1.7589,1.7589,1.7589,1.7589,1.7589,1.7589,1.7589,1.7589,1.7589,1.7589,1.7589,1.7589,1.7589,1.7589,1.7589,1.7589,1.7589,1.7589,1.7589,1.7589,1.7589,1.7589,1.7589,1.7562,1.7589,1.7522,1.6361,1.5467,1.5124,1.4468,1.3802,1.3111,1.2536,1.1785,1.1296,1.0712,1.0323,1.0027,0.9727,0.9624,0.9624,0.9624,0.9624,0.9624,0.9624,0.9624,0.9624,0.9624,0.9624,0.9624,0.9624,0.9624,0.9624,0.9624,0.9624,0.9624,0.9624,0.9624,0.9624,0.9624,1.475,1.4696,1.4977,1.5157,1.5304,1.5665,1.5825,1.5825,1.5825,1.5825,1.5825,1.5825,1.5825,1.5945,1.6239,1.648,1.6747,1.7134,1.7341,1.7582,1.7589,1.7589,1.7589,1.7589,1.7589,1.7589,1.7589,1.7589,1.7589,1.7589,1.7589,1.7589,1.7589,1.7589,1.7589,1.7589,1.7589,1.7589,1.7589,1.7589,1.7589,1.7589,1.7589,1.7589,1.7589,1.7589,1.7589,1.7589,1.7589,1.7589,1.7589,1.7589,1.7582,1.7589,1.7589,1.7589,1.7589,1.7589,1.7589,1.7589,1.7589,1.7589,1.7589,1.7589,1.7589,1.7589,1.7589,1.7589,1.7589,1.7589,1.7589,1.7589,1.7694,1.7694,1.7694,1.7694,1.7687,1.7687,1.7589,1.7516,1.7192,1.5843,1.4596,1.4295,1.3964,1.3292,1.2641,1.2068,1.1511,1.1007,1.0614,1.022,1.0027,0.9727,0.9628,0.9624,0.9624,0.9624,0.9624,0.9624,0.9624,0.9624,0.9624,0.9624,0.9624,0.9624,0.9624,0.9624,0.9624,0.9624,0.9624,0.9624,0.9624,0.9624,0.9624,1.4342,1.4148,1.4396,1.4703,1.5017,1.5545,1.5798,1.5825,1.5825,1.5825,1.5825,1.5825,1.5825,1.5945,1.642,1.6673,1.6814,1.7295,1.7495,1.7569,1.7589,1.7589,1.7589,1.7589,1.7589,1.7589,1.7589,1.7589,1.7589,1.7694,1.7694,1.7694,1.7793,1.7681,1.7674,1.7687,1.7687,1.7687,1.7589,1.7589,1.7589,1.7589,1.7589,1.7589,1.7589,1.7589,1.7589,1.7589,1.7589,1.7589,1.7589,1.7582,1.7582,1.7589,1.7589,1.7694,1.7694,1.7694,1.7694,1.7694,1.7694,1.7694,1.7687,1.7589,1.7589,1.7589,1.7589,1.7694,1.7694,1.7694,1.7687,1.7687,1.7687,1.7687,1.7687,1.7687,1.7687,1.7687,1.7477,1.7272,1.6849,1.5843,1.45,1.3927,1.3925,1.3164,1.2613,1.1888,1.1335,1.0717,1.0323,1.0019,0.9826,0.9727,0.9727,0.9727,0.9624,0.9624,0.9624,0.9624,0.9624,0.9624,0.9624,0.9624,0.9624,0.9624,0.9723,0.9723,0.9624,0.9624,0.9624,0.9624,0.9624,0.9624,0.9624,1.4162,1.4115,1.4402,1.4569,1.4723,1.5271,1.5631,1.5812,1.5825,1.5825,1.5825,1.5825,1.5825,1.5885,1.644,1.6653,1.6927,1.7235,1.7495,1.7589,1.7582,1.7589,1.7589,1.7589,1.7589,1.7582,1.7582,1.7694,1.7687,1.7799,1.801,1.8213,1.8108,1.7982,1.7864,1.7982,1.7891,1.7799,1.7694,1.7589,1.7589,1.7589,1.7589,1.7589,1.7694,1.7694,1.7687,1.7687,1.7687,1.7687,1.7582,1.7681,1.7905,1.7905,1.7905,1.8108,1.8122,1.8023,1.7911,1.7694,1.7694,1.7806,1.7905,1.7793,1.7694,1.7582,1.7687,1.7793,1.7911,1.8016,1.7905,1.801,1.801,1.8003,1.8003,1.8003,1.8003,1.8003,1.7793,1.7364,1.6935,1.608,1.4731,1.4297,1.4278,1.332,1.2585,1.1958,1.1239,1.0807,1.0323,1.0117,0.992,0.9924,0.9924,0.9924,0.9727,0.9624,0.9723,0.9727,0.9727,0.9727,0.9723,0.9723,0.9817,0.9817,0.992,0.9821,0.962,0.9624,0.9624,0.9624,0.9624,0.9624,0.9624,1.425,1.4271,1.4433,1.4489,1.4589,1.5023,1.5391,1.5638,1.5778,1.5825,1.5825,1.5825,1.5832,1.5925,1.6511,1.692,1.6975,1.7502,1.7806,1.7799,1.7687,1.7582,1.7589,1.7589,1.7694,1.7687,1.7793,1.7898,1.7898,1.8003,1.8213,1.8318,1.8422,1.8192,1.8073,1.8199,1.8338,1.8233,1.8023,1.7799,1.7687,1.7589,1.7694,1.7793,1.7799,1.7799,1.7898,1.7898,1.7898,1.7898,1.7891,1.8003,1.8115,1.8115,1.822,1.8318,1.8325,1.8227,1.8115,1.8003,1.801,1.8122,1.8122,1.8115,1.7884,1.7765,1.7884,1.7996,1.8227,1.8345,1.8331,1.8325,1.8325,1.8422,1.8422,1.8422,1.8422,1.8422,1.7996,1.7569,1.6935,1.6299,1.5654,1.5238,1.4731,1.3952,1.3257,1.2802,1.201,1.116,1.0762,1.0417,1.0319,1.022,1.022,1.0122,1.0023,1.0023,1.0019,1.0019,0.9924,0.992,1.0019,1.0113,1.0006,1.0109,1.0117,0.9813,0.9612,0.962,0.9624,0.9624,0.9624,0.9624,0.9624,1.4566,1.4398,1.4482,1.4511,1.463,1.4912,1.5208,1.5411,1.5665,1.5805,1.5818,1.5832,1.5832,1.6034,1.6667,1.7052,1.7237,1.7661,1.7955,1.801,1.7905,1.7793,1.7793,1.7687,1.7905,1.801,1.8016,1.8115,1.8318,1.8429,1.8429,1.8422,1.8527,1.852,1.852,1.8527,1.8764,1.88,1.8464,1.8016,1.7799,1.7694,1.7799,1.801,1.801,1.8115,1.8325,1.8429,1.8422,1.8422,1.8318,1.8325,1.8429,1.8534,1.8527,1.8534,1.8541,1.8541,1.8436,1.8325,1.8429,1.8429,1.8429,1.8429,1.8311,1.8087,1.8101,1.8443,1.8681,1.8667,1.8555,1.8646,1.8743,1.8743,1.8743,1.8743,1.8743,1.8639,1.8429,1.801,1.7707,1.7073,1.6855,1.643,1.5755,1.4773,1.419,1.3663,1.2869,1.1831,1.1283,1.0893,1.0726,1.0627,1.0516,1.0516,1.0417,1.0417,1.0413,1.0314,1.0216,1.0314,1.0408,1.0404,1.04,1.031,1.0216,0.9908,0.9608,0.962,0.9624,0.9624,0.9624,0.9624,0.9624,1.465,1.465,1.465,1.4746,1.5023,1.4945,1.5198,1.5575,1.5557,1.5631,1.5798,1.6028,1.6123,1.6198,1.6711,1.7183,1.7462,1.7816,1.8088,1.8241,1.8192,1.8108,1.8206,1.8108,1.8213,1.8318,1.8325,1.8429,1.8646,1.8757,1.8862,1.9063,1.9056,1.8952,1.8959,1.8959,1.9085,1.9233,1.8891,1.8436,1.822,1.8213,1.8213,1.8213,1.8206,1.8436,1.8541,1.8534,1.8429,1.8422,1.8422,1.8534,1.8757,1.8959,1.9063,1.9063,1.8981,1.8876,1.8764,1.8757,1.875,1.8757,1.8757,1.8966,1.8855,1.8639,1.8548,1.8898,1.9009,1.8891,1.8876,1.8966,1.9063,1.9063,1.9063,1.9063,1.9063,1.8855,1.875,1.8562,1.8373,1.8163,1.784,1.7384,1.6711,1.6045,1.5443,1.4798,1.3811,1.2859,1.2054,1.1616,1.1185,1.1044,1.0941,1.0909,1.0909,1.0708,1.0708,1.0511,1.0511,1.0708,1.0998,1.09,1.0797,1.0703,1.04,0.9895,0.9702,0.9817,0.9723,0.9821,0.9821,0.9821,0.9723,1.4992,1.4908,1.4741,1.4832,1.4979,1.4836,1.5088,1.5382,1.5456,1.5889,1.6232,1.6293,1.6319,1.6462,1.691,1.7197,1.7584,1.7994,1.8235,1.8412,1.8464,1.8415,1.8422,1.8429,1.8541,1.8541,1.8743,1.8959,1.9027,1.9078,1.9175,1.9264,1.9264,1.9279,1.9279,1.9279,1.9301,1.9308,1.9107,1.8981,1.8757,1.8639,1.8527,1.8415,1.8534,1.8757,1.8855,1.8855,1.8855,1.8848,1.8848,1.8855,1.9071,1.9175,1.9272,1.9279,1.9189,1.9204,1.9085,1.8974,1.8966,1.8966,1.9071,1.9175,1.9175,1.8959,1.8959,1.9204,1.9197,1.9071,1.9071,1.9168,1.9168,1.9168,1.9168,1.9168,1.9168,1.9168,1.9063,1.8966,1.8891,1.8807,1.8478,1.7932,1.7364,1.6717,1.6206,1.5328,1.4417,1.3693,1.2977,1.2377,1.1947,1.1686,1.1676,1.1594,1.1497,1.1296,1.0998,1.1198,1.1296,1.1394,1.1492,1.1389,1.1282,1.1082,1.0779,1.0485,1.0194,1.0306,1.0212,1.0019,1.0019,1.0117,1.0216,1.5264,1.509,1.4908,1.4831,1.4824,1.4741,1.497,1.5246,1.5562,1.6127,1.6791,1.6524,1.6571,1.6852,1.7134,1.7359,1.7566,1.791,1.8182,1.8475,1.8447,1.8547,1.8617,1.8639,1.8708,1.8873,1.8948,1.8993,1.903,1.9096,1.9155,1.9213,1.9264,1.9294,1.9316,1.9352,1.9411,1.9484,1.9477,1.9381,1.9121,1.8869,1.875,1.875,1.8855,1.9071,1.9168,1.9272,1.9272,1.9272,1.9168,1.9175,1.9175,1.9279,1.9279,1.9279,1.9279,1.9286,1.9279,1.9279,1.9279,1.9272,1.9272,1.9272,1.9272,1.9279,1.9279,1.9279,1.9279,1.9272,1.9272,1.9272,1.9272,1.9272,1.9272,1.9272,1.9272,1.9272,1.9272,1.9272,1.9301,1.9226,1.9002,1.8457,1.7918,1.7279,1.653,1.5672,1.4883,1.4232,1.3546,1.3069,1.2776,1.2531,1.2349,1.2213,1.1983,1.1785,1.159,1.1785,1.198,1.198,1.198,1.1975,1.177,1.176,1.1673,1.1482,1.1194,1.0998,1.09,1.0801,1.09,1.0998,1.11,1.5347,1.534,1.5257,1.5264,1.5257,1.5082,1.5205,1.546,1.5648,1.6014,1.6657,1.712,1.7255,1.7241,1.7283,1.745,1.7652,1.7996,1.8323,1.8665,1.868,1.8846,1.8998,1.8952,1.8897,1.8906,1.8913,1.8745,1.8767,1.8847,1.8899,1.8921,1.9213,1.9269,1.9389,1.9531,1.9696,1.9747,1.9696,1.9601,1.9513,1.9328,1.9189,1.9175,1.9168,1.9272,1.9272,1.9272,1.9272,1.9272,1.9272,1.9272,1.9272,1.9272,1.9272,1.9272,1.9272,1.9272,1.9272,1.9272,1.9272,1.9272,1.9272,1.9272,1.9272,1.9272,1.9279,1.9279,1.9272,1.9272,1.9272,1.9272,1.9272,1.9272,1.9272,1.9272,1.9272,1.9272,1.9272,1.9272,1.9279,1.9294,1.9189,1.8757,1.8227,1.7477,1.6624,1.5773,1.5035,1.4454,1.3987,1.3726,1.3462,1.2977,1.2506,1.253,1.2412,1.2185,1.2078,1.2175,1.2273,1.2473,1.2467,1.2559,1.2549,1.2441,1.236,1.2473,1.2278,1.2078,1.1883,1.1785,1.178,1.1878,1.1975]},{"header":{"parameterUnit":"m.s-1","parameterCategory":1,"la1":31.0,"la2":29.5877,"lo1":-88.7671,"lo2":-86.6584,"dy":0.0162,"dx":0.0185,"nx":115,"ny":88,"refTime":"2023-08-11T06:00:00:Z","depth":0,"parameterNumber":3,"parameterNumberName":"V-component_of_WINDS"},"data":[0.0,0.0,0.0,0.0,0.0,0.0,0.0,0.0,0.0,0.0,0.0,0.0,0.0,0.0,0.0,0.0,0.0,0.0,0.0,0.0,0.0,0.0,0.0,0.0,0.0,0.0,0.0,0.0,0.0,0.0,0.0,0.0,0.0,0.0,0.0,0.0,0.0,0.0,0.0,0.0,0.0,0.0,0.0,0.0,0.0,0.0,0.0,0.0,0.0,0.0,0.0,0.0,0.0,0.0,0.0,0.0,0.0,0.0,0.0,0.0,0.0,0.0,0.0,0.0,0.0,0.0,0.0,0.0,0.0,0.0,0.0,0.0,0.0,0.0,0.0,0.0,0.0,0.0,0.0,0.0,0.0,0.0,0.0,0.0,0.0,0.0,0.0,0.0,0.0,0.0,0.0,0.0,0.0,0.0,0.0,0.0,0.0,0.0,0.0,0.0,0.0,0.0,0.0,0.0,0.0,0.0,0.0,0.0,0.0,0.0,0.0,0.0,0.0,0.0,0.0,0.0,0.0,0.0,0.0,0.0,0.0,0.0,0.0,0.0,0.0,0.0,0.0,0.0,0.0,0.0,0.0,0.0,0.0,0.0,0.0,0.0,0.0,0.0,0.0,0.0,0.0,0.0,0.0,0.0,0.0,0.0,0.0,0.0,0.0,0.0,0.0,0.0,0.0,0.0,0.0,0.0,0.0,0.0,0.0,0.0,0.0,0.0,0.0,0.0,0.0,0.0,0.0,0.0,0.0,0.0,0.0,0.0,0.0,0.0,0.0,0.0,0.0,0.0,0.0,0.0,0.0,0.0,0.0,0.0,0.0,0.0,0.0,0.0,0.0,0.0,0.0,0.0,0.0,0.0,0.0,0.0,0.0,0.0,0.0,0.0,0.0,0.0,0.0,0.0,0.0,0.0,0.0,0.0,0.0,0.0,0.0,0.0,0.0,0.0,0.0,0.0,0.0,0.0,0.0,0.0,0.0,0.0,0.0,0.0,0.0,0.0,0.0,0.0,0.0,0.0,0.0,0.0,0.0,0.0,0.0,0.0,0.0,0.0,0.0,0.0,0.0,0.0,0.0,0.0,0.0,0.0,0.0,0.0,0.0,0.0,0.0,0.0,0.0,0.0,0.0,0.0,0.0,0.0,0.0,0.0,0.0,0.0,0.0,0.0,0.0,0.0,0.0,0.0,0.0,0.0,0.0,0.0,0.0,0.0,0.0,0.0,0.0,0.0,0.0,0.0,0.0,0.0,0.0,0.0,0.0,0.0,0.0,0.0,0.0,0.0,0.0,0.0,0.0,0.0,0.0,0.0,0.0,0.0,0.0,0.0,0.0,0.0,0.0,0.0,0.0,0.0,0.0,0.0,0.0,0.0,0.0,0.0,0.0,0.0,0.0,0.0,0.0,0.0,0.0,0.0,0.0,0.0,0.0,0.0,0.0,0.0,0.0,0.0,0.0,0.0,0.0,0.0,0.0,0.0,0.0,0.0,0.0,0.0,0.0,0.0,0.0,0.0,0.0,0.0,0.0,0.0,0.0,0.0,0.0,0.0,0.0,0.0,0.0,0.0,0.0,0.0,0.0,0.0,0.0,0.0,0.0,0.0,0.0,0.0,0.0,0.0,0.0,0.0,0.0,0.0,0.0,0.0,0.0,0.0,0.0,0.0,0.0,0.0,0.0,0.0,0.0,0.0,0.0,0.0,0.0,0.0,0.0,0.0,0.0,0.0,0.0,0.0,0.0,0.0,0.0,0.0,0.0,0.0,0.0,0.0,0.0,0.0,0.0,0.0,0.0,0.0,0.0,0.0,0.0,0.0,0.0,0.0,0.0,0.0,0.0,0.0,0.0,0.0,0.0,0.0,0.0,0.0,0.0,0.0,0.0,0.0,0.0,0.0,0.0,0.0,0.0,0.0,0.0,0.0,0.0,0.0,0.0,0.0,0.0,0.0,0.0,0.0,0.0,0.0,0.0,0.0,0.0,0.0,0.0,0.0,0.0,0.0,0.0,0.0,0.0,0.0,0.0,0.0,0.0,0.0,0.0,0.0,0.0,0.0,0.0,0.0,0.0,0.0,0.0,0.0,0.0,0.0,0.0,0.0,0.0,0.0,0.0,0.0,0.0,0.0,0.0,0.0,0.0,0.0,0.0,0.0,0.0,0.0,0.0,0.0,0.0,0.0,0.0,0.0,0.0,0.0,0.0,0.0,0.0,0.0,0.0,0.0,0.0,0.0,0.0,0.0,0.0,0.0,0.0,0.0,0.0,0.0,0.0,0.0,0.0,0.0,0.0,0.0,0.0,0.0,0.0,0.0,0.0,0.0,0.0,0.0,0.0,0.0,0.0,0.0,0.0,0.0,0.0,0.0,0.0,0.0,0.0,0.0,0.0,0.0,0.0,0.0,0.0,0.0,0.0,0.0,0.0,0.0,0.0,0.0,0.0,0.0,0.0,0.0,0.0,0.0,0.0,0.0,0.0,0.0,0.0,0.0,0.0,0.0,0.0,0.0,0.0,0.0,0.0,0.0,0.0,0.0,0.0,0.0,0.0,0.0,0.0,0.0,0.0,0.0,0.0,0.0,0.0,0.0,0.0,0.0,0.0,0.0,0.0,0.0,0.0,0.0,0.0,0.0,0.0,0.0,0.0,0.0,0.0,0.0,0.0,0.0,0.0,0.0,0.0,0.0,0.0,0.0,0.0,0.0,0.0,0.0,0.0,0.0,0.0,0.0,0.0,0.0,0.0,0.0,0.0,0.0,0.0,0.0,0.0,0.0,0.0,0.0,0.0,0.0,0.0,0.0,0.0,0.0,0.0,0.0,0.0,0.0,0.0,0.0,0.0,0.0,0.0,0.0,0.0,0.0,0.0,0.0,0.0,0.0,0.0,0.0,0.0,0.0,0.0,0.0,0.0,0.0,0.0,0.0,0.0,0.0,0.0,0.0,0.0,0.0,0.0,0.0,0.0,0.0,0.0,0.0,0.0,0.0,0.0,0.0,0.0,0.0,0.0,0.0,0.0,0.0,0.0,0.0,0.0,0.0,0.0,0.0,0.0,0.0,0.0,0.0,0.0,0.0,0.0,0.0,0.0,0.0,0.0,0.0,0.0,0.0,0.0,0.0,0.0,0.0,0.0,0.0,0.0,0.0,0.0,0.0,0.0,0.0,0.0,0.0,0.0,0.0,0.0,0.0,0.0,0.0,0.0,0.0,0.0,0.0,0.0,0.0,0.0,0.0,0.0,0.0,0.0,0.0,0.0,0.0,0.0,0.0,0.0,0.0,0.0,0.0,0.0,0.0,0.0,0.0,0.0,0.0,0.0,0.0,0.0,0.0,0.0,0.0,0.0,0.0,0.0,0.0,0.0,0.0,0.0,0.0,0.0,0.0,0.0,0.0,0.0,0.0,0.0,0.0,0.0,0.0,0.0,0.0,0.0,0.0,0.0,0.0,0.0,0.0,0.0,0.0,0.0,0.0,0.0,0.0,0.0,0.0,0.0,0.0,0.0,0.0,0.0,0.0,0.0,0.0,0.0,0.0,0.0,0.0,0.0,0.0,0.0,0.0,0.0,0.0,0.0,0.0,0.0,0.0,0.0,0.0,0.0,0.0,0.0,0.0,0.0,0.0,0.0,0.0,0.0,0.0,0.0,0.0,0.0,0.0,0.0,0.0,0.0,0.0,0.0,0.0,0.0,0.0,0.0,0.0,0.0,0.0,0.0,0.0,0.0,0.0,0.0,0.0,0.0,0.0,0.0,0.0,0.0,0.0,0.0,0.0,0.0,0.0,0.0,0.0,0.0,0.0,0.0,0.0,0.0,0.0,0.0,0.0,0.0,0.0,0.0,0.0,0.0,0.0,0.0,0.0,0.0,0.0,0.0,0.0,0.0,0.0,0.0,0.0,0.0,0.0,0.0,0.0,0.0,0.0,0.0,0.0,0.0,0.0,0.0,0.0,0.0,0.0,0.0,0.0,0.0,0.0,0.0,0.0,0.0,0.0,0.0,0.0,0.0,0.0,0.0,0.0,0.0,0.0,0.0,0.0,0.0,0.0,0.0,0.0,0.0,0.0,0.0,0.0,0.0,0.0,0.0,0.0,0.0,0.0,0.0,0.0,0.0,0.0,0.0,0.0,0.0,0.0,0.0,0.0,0.0,0.0,0.0,0.0,0.0,0.0,0.0,0.0,0.0,0.0,0.0,0.0,0.0,0.0,0.0,0.0,0.0,0.0,0.0,0.0,0.0,0.0,0.0,0.0,0.0,0.0,0.0,0.0,0.0,0.0,-3.2638,0.0,0.0,0.0,0.0,0.0,0.0,0.0,0.0,0.0,0.0,0.0,0.0,0.0,0.0,0.0,0.0,0.0,0.0,0.0,0.0,0.0,0.0,0.0,0.0,0.0,0.0,0.0,0.0,0.0,0.0,0.0,0.0,0.0,0.0,0.0,0.0,0.0,0.0,0.0,0.0,0.0,0.0,0.0,0.0,0.0,0.0,0.0,0.0,0.0,0.0,0.0,0.0,0.0,0.0,0.0,0.0,0.0,0.0,0.0,0.0,0.0,0.0,0.0,0.0,0.0,0.0,0.0,0.0,0.0,0.0,0.0,0.0,0.0,0.0,0.0,0.0,0.0,0.0,0.0,0.0,0.0,0.0,0.0,0.0,0.0,0.0,0.0,0.0,0.0,0.0,0.0,0.0,0.0,0.0,0.0,0.0,0.0,0.0,0.0,0.0,0.0,0.0,0.0,0.0,0.0,0.0,0.0,0.0,0.0,0.0,-3.481,-3.5203,-3.3627,-3.2732,-3.2688,0.0,0.0,0.0,0.0,0.0,0.0,0.0,0.0,0.0,0.0,0.0,0.0,0.0,0.0,0.0,0.0,0.0,0.0,0.0,0.0,0.0,0.0,0.0,0.0,0.0,0.0,0.0,0.0,0.0,0.0,0.0,0.0,0.0,0.0,0.0,0.0,0.0,0.0,0.0,0.0,0.0,0.0,0.0,0.0,0.0,0.0,0.0,0.0,0.0,0.0,0.0,0.0,0.0,0.0,0.0,0.0,0.0,0.0,0.0,0.0,0.0,0.0,0.0,0.0,0.0,0.0,0.0,0.0,0.0,0.0,0.0,0.0,0.0,0.0,0.0,0.0,0.0,0.0,0.0,0.0,0.0,0.0,0.0,0.0,0.0,0.0,0.0,0.0,0.0,0.0,0.0,0.0,0.0,0.0,0.0,0.0,0.0,0.0,0.0,0.0,0.0,0.0,0.0,0.0,0.0,0.0,0.0,0.0,0.0,0.0,0.0,0.0,-3.3307,-3.2398,-3.2114,0.0,0.0,0.0,0.0,0.0,0.0,0.0,0.0,0.0,0.0,0.0,0.0,0.0,0.0,0.0,0.0,0.0,0.0,0.0,0.0,0.0,0.0,0.0,0.0,0.0,0.0,0.0,0.0,0.0,0.0,0.0,0.0,0.0,0.0,0.0,0.0,0.0,0.0,0.0,0.0,0.0,0.0,0.0,0.0,0.0,0.0,0.0,0.0,0.0,0.0,0.0,0.0,0.0,0.0,0.0,0.0,0.0,0.0,0.0,0.0,0.0,0.0,0.0,0.0,0.0,0.0,0.0,0.0,0.0,0.0,0.0,0.0,0.0,0.0,0.0,0.0,0.0,0.0,0.0,0.0,0.0,0.0,0.0,0.0,0.0,0.0,0.0,0.0,0.0,0.0,0.0,0.0,0.0,0.0,0.0,0.0,0.0,0.0,0.0,0.0,0.0,0.0,0.0,0.0,0.0,0.0,0.0,0.0,0.0,0.0,-3.2948,-3.3001,-3.2177,0.0,-3.0505,0.0,0.0,0.0,0.0,0.0,0.0,0.0,0.0,0.0,0.0,0.0,0.0,0.0,0.0,0.0,0.0,0.0,0.0,0.0,0.0,0.0,0.0,0.0,0.0,0.0,0.0,0.0,0.0,0.0,0.0,0.0,0.0,0.0,0.0,0.0,0.0,0.0,0.0,0.0,0.0,0.0,0.0,0.0,0.0,0.0,0.0,0.0,0.0,0.0,0.0,0.0,0.0,0.0,0.0,0.0,0.0,0.0,0.0,0.0,0.0,0.0,0.0,0.0,0.0,0.0,0.0,0.0,0.0,0.0,0.0,0.0,0.0,0.0,0.0,0.0,0.0,0.0,0.0,0.0,0.0,0.0,0.0,0.0,0.0,0.0,0.0,0.0,0.0,0.0,0.0,0.0,0.0,0.0,0.0,0.0,0.0,0.0,0.0,0.0,0.0,0.0,0.0,0.0,0.0,0.0,0.0,0.0,0.0,0.0,0.0,-3.2378,-3.2831,-3.2043,-3.1158,0.0,0.0,0.0,0.0,0.0,0.0,0.0,0.0,0.0,0.0,0.0,0.0,0.0,0.0,0.0,0.0,0.0,0.0,0.0,0.0,0.0,0.0,0.0,0.0,0.0,0.0,0.0,0.0,0.0,0.0,0.0,0.0,0.0,0.0,0.0,0.0,0.0,0.0,0.0,0.0,0.0,0.0,0.0,0.0,0.0,0.0,0.0,0.0,0.0,0.0,0.0,0.0,0.0,0.0,0.0,0.0,0.0,0.0,0.0,0.0,0.0,0.0,0.0,0.0,0.0,0.0,0.0,0.0,0.0,0.0,0.0,0.0,0.0,0.0,0.0,0.0,0.0,0.0,0.0,0.0,0.0,0.0,0.0,0.0,0.0,0.0,0.0,0.0,0.0,0.0,0.0,0.0,0.0,0.0,0.0,0.0,0.0,0.0,0.0,0.0,0.0,0.0,0.0,0.0,0.0,0.0,0.0,0.0,0.0,0.0,-3.1338,-3.1614,-3.2154,-3.1603,-3.0937,-3.024,0.0,0.0,0.0,0.0,0.0,0.0,0.0,0.0,0.0,0.0,0.0,0.0,0.0,0.0,0.0,0.0,0.0,0.0,0.0,0.0,0.0,0.0,0.0,0.0,0.0,0.0,0.0,0.0,0.0,0.0,0.0,0.0,0.0,0.0,0.0,0.0,0.0,0.0,0.0,0.0,0.0,0.0,0.0,0.0,0.0,0.0,0.0,0.0,0.0,0.0,0.0,0.0,0.0,0.0,0.0,0.0,0.0,0.0,0.0,0.0,0.0,0.0,0.0,0.0,0.0,0.0,0.0,0.0,0.0,0.0,0.0,0.0,0.0,0.0,0.0,0.0,0.0,0.0,0.0,0.0,0.0,0.0,0.0,0.0,0.0,0.0,0.0,0.0,0.0,0.0,0.0,0.0,0.0,0.0,0.0,0.0,0.0,0.0,0.0,0.0,0.0,0.0,0.0,0.0,0.0,0.0,0.0,0.0,-3.0463,-3.0466,-3.0486,-3.054,-3.0479,-3.0398,0.0,0.0,0.0,0.0,0.0,0.0,0.0,0.0,0.0,0.0,0.0,0.0,0.0,0.0,0.0,0.0,0.0,0.0,0.0,0.0,0.0,0.0,0.0,0.0,0.0,0.0,0.0,0.0,0.0,0.0,0.0,0.0,0.0,0.0,0.0,0.0,0.0,0.0,0.0,0.0,0.0,0.0,0.0,0.0,0.0,0.0,0.0,0.0,0.0,0.0,0.0,0.0,0.0,0.0,0.0,0.0,0.0,0.0,0.0,0.0,0.0,0.0,0.0,0.0,0.0,0.0,0.0,0.0,0.0,0.0,0.0,0.0,0.0,0.0,0.0,0.0,0.0,0.0,0.0,0.0,0.0,0.0,0.0,0.0,0.0,0.0,0.0,0.0,0.0,0.0,0.0,0.0,0.0,0.0,0.0,0.0,0.0,0.0,0.0,0.0,0.0,0.0,0.0,0.0,0.0,0.0,0.0,0.0,0.0,-3.0398,-3.0439,-3.0449,-3.0469,-3.0466,-3.0433,0.0,0.0,0.0,0.0,0.0,0.0,0.0,0.0,0.0,0.0,0.0,0.0,0.0,0.0,0.0,0.0,0.0,0.0,0.0,0.0,0.0,0.0,0.0,0.0,0.0,0.0,0.0,0.0,0.0,0.0,0.0,0.0,0.0,0.0,0.0,0.0,0.0,0.0,0.0,0.0,0.0,0.0,0.0,0.0,0.0,0.0,0.0,0.0,0.0,0.0,0.0,0.0,0.0,0.0,0.0,0.0,0.0,0.0,0.0,0.0,0.0,0.0,0.0,0.0,0.0,0.0,0.0,0.0,0.0,0.0,0.0,0.0,0.0,0.0,0.0,0.0,0.0,0.0,0.0,0.0,0.0,0.0,0.0,0.0,0.0,0.0,0.0,0.0,0.0,0.0,0.0,0.0,0.0,0.0,0.0,0.0,0.0,0.0,0.0,0.0,0.0,0.0,0.0,0.0,0.0,0.0,0.0,0.0,0.0,-3.046,0.0,-3.054,-3.055,-3.054,-3.0499,0.0,0.0,0.0,0.0,0.0,0.0,0.0,0.0,0.0,0.0,0.0,0.0,0.0,0.0,0.0,0.0,0.0,0.0,0.0,0.0,0.0,0.0,0.0,0.0,0.0,0.0,0.0,0.0,0.0,0.0,0.0,0.0,0.0,0.0,0.0,0.0,0.0,0.0,0.0,0.0,0.0,0.0,0.0,0.0,0.0,0.0,0.0,0.0,0.0,0.0,0.0,0.0,0.0,0.0,0.0,0.0,0.0,0.0,0.0,0.0,0.0,0.0,0.0,0.0,0.0,0.0,0.0,0.0,0.0,0.0,0.0,0.0,0.0,0.0,0.0,0.0,0.0,0.0,0.0,0.0,0.0,0.0,0.0,0.0,0.0,0.0,0.0,0.0,0.0,0.0,0.0,0.0,0.0,0.0,0.0,0.0,0.0,0.0,0.0,0.0,0.0,0.0,0.0,0.0,0.0,0.0,0.0,0.0,-3.046,-3.0598,-3.0668,-3.0665,-3.0604,-3.0593,-3.0567,0.0,0.0,0.0,0.0,0.0,0.0,0.0,0.0,0.0,0.0,0.0,0.0,0.0,0.0,0.0,0.0,0.0,0.0,0.0,0.0,0.0,0.0,0.0,0.0,0.0,0.0,0.0,0.0,0.0,0.0,0.0,0.0,0.0,0.0,0.0,0.0,0.0,0.0,0.0,0.0,0.0,0.0,0.0,0.0,0.0,0.0,0.0,0.0,0.0,0.0,0.0,0.0,0.0,0.0,0.0,0.0,0.0,0.0,0.0,0.0,0.0,0.0,0.0,0.0,0.0,0.0,0.0,0.0,0.0,0.0,0.0,0.0,0.0,0.0,0.0,0.0,0.0,0.0,0.0,0.0,0.0,0.0,0.0,0.0,0.0,0.0,0.0,0.0,0.0,0.0,0.0,0.0,0.0,0.0,0.0,0.0,0.0,0.0,0.0,0.0,0.0,0.0,0.0,0.0,0.0,0.0,0.0,0.0,0.0,-3.0653,-3.0703,-3.0697,-3.0665,-3.0678,-3.0642,0.0,0.0,0.0,0.0,0.0,0.0,0.0,0.0,0.0,0.0,0.0,0.0,0.0,0.0,0.0,0.0,0.0,0.0,0.0,0.0,0.0,0.0,0.0,0.0,0.0,0.0,0.0,0.0,0.0,0.0,0.0,0.0,0.0,0.0,0.0,0.0,0.0,0.0,0.0,0.0,0.0,0.0,0.0,0.0,0.0,0.0,0.0,0.0,0.0,0.0,0.0,0.0,0.0,0.0,0.0,0.0,0.0,0.0,0.0,0.0,0.0,0.0,0.0,0.0,0.0,0.0,0.0,0.0,0.0,0.0,0.0,0.0,0.0,0.0,0.0,0.0,0.0,0.0,0.0,0.0,0.0,0.0,0.0,0.0,0.0,0.0,0.0,0.0,0.0,0.0,0.0,0.0,0.0,0.0,0.0,0.0,0.0,0.0,0.0,0.0,0.0,0.0,0.0,0.0,0.0,0.0,0.0,0.0,0.0,-3.0725,-3.0728,-3.0903,-3.1207,-3.1231,-3.1345,-3.1603,0.0,0.0,0.0,0.0,0.0,0.0,0.0,0.0,0.0,0.0,0.0,0.0,0.0,0.0,0.0,0.0,0.0,0.0,0.0,0.0,0.0,0.0,0.0,0.0,0.0,0.0,0.0,0.0,0.0,0.0,0.0,0.0,0.0,0.0,0.0,0.0,0.0,0.0,0.0,0.0,0.0,0.0,0.0,0.0,0.0,0.0,0.0,0.0,0.0,0.0,0.0,0.0,0.0,0.0,0.0,0.0,0.0,0.0,0.0,0.0,0.0,0.0,0.0,0.0,0.0,0.0,0.0,0.0,0.0,0.0,0.0,0.0,0.0,0.0,0.0,0.0,0.0,0.0,0.0,0.0,0.0,0.0,0.0,0.0,0.0,0.0,0.0,0.0,0.0,0.0,0.0,0.0,0.0,0.0,0.0,0.0,0.0,0.0,0.0,0.0,0.0,0.0,0.0,0.0,0.0,0.0,0.0,0.0,-3.0801,-3.0833,-3.128,-3.206,-3.2085,-3.2483,0.0,0.0,0.0,0.0,0.0,0.0,0.0,0.0,0.0,0.0,0.0,0.0,0.0,0.0,0.0,0.0,0.0,0.0,0.0,0.0,0.0,0.0,0.0,0.0,0.0,0.0,0.0,0.0,0.0,0.0,0.0,0.0,0.0,0.0,0.0,0.0,0.0,0.0,0.0,0.0,0.0,0.0,0.0,0.0,0.0,0.0,0.0,0.0,0.0,0.0,0.0,0.0,0.0,0.0,0.0,0.0,0.0,0.0,0.0,0.0,0.0,0.0,0.0,0.0,0.0,0.0,0.0,0.0,0.0,0.0,0.0,0.0,0.0,0.0,0.0,0.0,0.0,0.0,0.0,0.0,0.0,0.0,0.0,0.0,0.0,0.0,0.0,0.0,0.0,0.0,0.0,0.0,0.0,0.0,0.0,0.0,0.0,0.0,0.0,0.0,0.0,0.0,0.0,0.0,0.0,0.0,0.0,0.0,0.0,-3.0818,-3.1426,-3.1874,-3.2098,-3.2114,-3.2489,0.0,0.0,0.0,0.0,0.0,0.0,0.0,0.0,0.0,0.0,0.0,0.0,0.0,0.0,0.0,0.0,0.0,0.0,0.0,0.0,0.0,0.0,0.0,0.0,0.0,0.0,0.0,0.0,0.0,0.0,0.0,0.0,0.0,0.0,0.0,0.0,0.0,0.0,0.0,0.0,0.0,0.0,0.0,0.0,0.0,0.0,0.0,0.0,0.0,0.0,0.0,0.0,0.0,0.0,0.0,0.0,0.0,0.0,0.0,0.0,0.0,0.0,0.0,0.0,0.0,0.0,0.0,0.0,0.0,0.0,0.0,0.0,0.0,0.0,0.0,0.0,0.0,0.0,0.0,0.0,0.0,0.0,0.0,0.0,0.0,0.0,0.0,0.0,0.0,0.0,0.0,0.0,0.0,0.0,0.0,0.0,0.0,0.0,0.0,0.0,0.0,0.0,0.0,0.0,0.0,0.0,0.0,0.0,-3.0796,-3.0799,-3.1278,-3.1727,-3.2107,-3.2812,-3.3607,0.0,0.0,0.0,0.0,0.0,0.0,0.0,0.0,0.0,0.0,0.0,0.0,0.0,0.0,0.0,0.0,0.0,0.0,0.0,0.0,0.0,0.0,0.0,0.0,0.0,0.0,0.0,0.0,0.0,0.0,0.0,0.0,0.0,0.0,0.0,0.0,0.0,0.0,0.0,0.0,0.0,0.0,0.0,0.0,0.0,0.0,0.0,0.0,0.0,0.0,0.0,0.0,0.0,0.0,0.0,0.0,0.0,0.0,0.0,0.0,0.0,0.0,0.0,0.0,0.0,0.0,0.0,0.0,0.0,0.0,0.0,0.0,0.0,0.0,0.0,0.0,0.0,0.0,0.0,0.0,0.0,0.0,0.0,0.0,0.0,0.0,0.0,0.0,0.0,0.0,0.0,0.0,0.0,0.0,0.0,0.0,0.0,0.0,0.0,0.0,0.0,0.0,0.0,0.0,0.0,0.0,0.0,0.0,-3.0801,-3.0788,-3.0891,-3.1311,-3.2111,-3.3717,-3.498,0.0,0.0,0.0,0.0,0.0,0.0,0.0,0.0,0.0,0.0,0.0,0.0,0.0,0.0,0.0,0.0,0.0,0.0,0.0,0.0,0.0,0.0,0.0,0.0,0.0,0.0,0.0,0.0,0.0,0.0,0.0,0.0,0.0,0.0,0.0,0.0,0.0,0.0,0.0,0.0,0.0,0.0,0.0,0.0,0.0,0.0,0.0,0.0,0.0,0.0,0.0,0.0,0.0,0.0,0.0,0.0,0.0,0.0,0.0,0.0,0.0,0.0,0.0,0.0,0.0,0.0,0.0,0.0,0.0,0.0,0.0,0.0,0.0,0.0,0.0,0.0,0.0,0.0,0.0,0.0,0.0,0.0,0.0,0.0,0.0,0.0,0.0,0.0,0.0,0.0,0.0,0.0,0.0,0.0,0.0,0.0,0.0,0.0,0.0,0.0,0.0,0.0,0.0,0.0,0.0,0.0,0.0,0.0,-3.0799,-3.082,-3.1461,-3.1909,-3.2104,-3.3109,-3.4082,0.0,0.0,0.0,0.0,0.0,0.0,0.0,0.0,0.0,0.0,0.0,0.0,0.0,0.0,0.0,0.0,0.0,0.0,0.0,0.0,0.0,0.0,0.0,0.0,0.0,0.0,0.0,0.0,0.0,0.0,0.0,0.0,0.0,0.0,0.0,0.0,0.0,0.0,0.0,0.0,0.0,0.0,0.0,0.0,0.0,0.0,0.0,0.0,-3.2761,0.0,0.0,0.0,0.0,0.0,0.0,0.0,0.0,0.0,0.0,0.0,0.0,0.0,0.0,0.0,0.0,0.0,0.0,0.0,0.0,0.0,0.0,0.0,0.0,0.0,0.0,0.0,0.0,0.0,0.0,0.0,0.0,0.0,0.0,0.0,0.0,0.0,0.0,0.0,0.0,0.0,0.0,0.0,0.0,0.0,0.0,0.0,0.0,0.0,0.0,0.0,0.0,0.0,0.0,0.0,0.0,0.0,0.0,0.0,-3.0604,-3.0261,-3.0664,-3.0879,-3.0921,-3.1714,-3.2965,0.0,0.0,0.0,0.0,0.0,0.0,0.0,0.0,0.0,0.0,0.0,0.0,0.0,0.0,0.0,0.0,0.0,0.0,0.0,0.0,0.0,0.0,0.0,0.0,0.0,0.0,0.0,0.0,0.0,0.0,0.0,0.0,0.0,0.0,0.0,0.0,0.0,0.0,0.0,0.0,0.0,0.0,0.0,0.0,0.0,0.0,0.0,0.0,0.0,0.0,0.0,0.0,0.0,0.0,0.0,0.0,0.0,0.0,0.0,0.0,0.0,0.0,0.0,0.0,0.0,0.0,0.0,0.0,0.0,0.0,0.0,0.0,0.0,0.0,0.0,0.0,0.0,0.0,0.0,0.0,0.0,0.0,0.0,0.0,0.0,0.0,0.0,0.0,0.0,0.0,0.0,0.0,0.0,0.0,0.0,0.0,0.0,0.0,0.0,0.0,0.0,0.0,0.0,0.0,0.0,0.0,0.0,-3.074,-3.035,-2.9455,-2.9461,-2.9439,-2.9344,-3.0138,-3.1762,-3.4178,0.0,0.0,0.0,0.0,0.0,0.0,0.0,0.0,0.0,0.0,0.0,0.0,0.0,0.0,0.0,0.0,0.0,0.0,0.0,0.0,0.0,0.0,0.0,0.0,0.0,0.0,0.0,0.0,0.0,0.0,0.0,0.0,0.0,0.0,0.0,0.0,0.0,0.0,-3.1447,-3.1508,0.0,0.0,0.0,0.0,0.0,0.0,0.0,0.0,-3.4596,0.0,0.0,0.0,0.0,0.0,0.0,0.0,0.0,0.0,0.0,0.0,0.0,0.0,0.0,0.0,0.0,0.0,0.0,0.0,0.0,0.0,0.0,0.0,0.0,0.0,0.0,0.0,0.0,0.0,0.0,0.0,0.0,0.0,0.0,0.0,0.0,0.0,0.0,0.0,0.0,0.0,0.0,0.0,0.0,0.0,0.0,0.0,0.0,0.0,0.0,0.0,0.0,0.0,0.0,0.0,0.0,-2.9725,-3.0488,-3.0114,-2.8561,-2.9162,-2.9182,-2.8554,-2.9279,-3.0591,-3.2461,0.0,0.0,0.0,0.0,0.0,0.0,0.0,0.0,0.0,0.0,0.0,0.0,0.0,0.0,0.0,0.0,0.0,0.0,0.0,0.0,0.0,0.0,0.0,0.0,0.0,0.0,0.0,0.0,0.0,0.0,0.0,0.0,0.0,0.0,0.0,0.0,0.0,0.0,0.0,-3.211,-3.2409,0.0,0.0,0.0,0.0,0.0,0.0,0.0,0.0,-3.6697,0.0,0.0,0.0,0.0,0.0,0.0,0.0,0.0,0.0,0.0,0.0,0.0,0.0,0.0,0.0,0.0,0.0,0.0,0.0,0.0,0.0,0.0,0.0,0.0,0.0,0.0,0.0,0.0,0.0,0.0,0.0,0.0,0.0,0.0,0.0,0.0,0.0,0.0,0.0,0.0,0.0,0.0,0.0,0.0,0.0,0.0,0.0,0.0,0.0,0.0,0.0,0.0,0.0,0.0,0.0,-2.9647,-3.0427,-3.0011,-2.8385,-2.9081,-2.9331,-2.8941,-2.9299,-3.0528,0.0,0.0,0.0,0.0,0.0,0.0,0.0,0.0,0.0,0.0,0.0,0.0,0.0,0.0,0.0,0.0,0.0,0.0,0.0,0.0,0.0,0.0,0.0,0.0,0.0,0.0,0.0,0.0,0.0,0.0,0.0,0.0,0.0,0.0,0.0,0.0,0.0,0.0,0.0,0.0,-3.2211,-3.1936,-3.1118,0.0,0.0,0.0,0.0,0.0,0.0,-3.52,-3.6494,0.0,0.0,0.0,0.0,0.0,0.0,0.0,0.0,0.0,0.0,0.0,0.0,0.0,0.0,0.0,0.0,0.0,0.0,0.0,0.0,0.0,0.0,0.0,0.0,0.0,0.0,0.0,0.0,0.0,0.0,0.0,0.0,0.0,0.0,0.0,0.0,0.0,0.0,0.0,0.0,0.0,0.0,0.0,0.0,0.0,0.0,0.0,0.0,0.0,0.0,0.0,0.0,0.0,0.0,0.0,-2.9406,-3.03,-2.9906,-2.8171,-2.9,-2.9425,-2.9253,-2.9413,-3.064,0.0,0.0,0.0,0.0,0.0,0.0,0.0,0.0,0.0,0.0,0.0,0.0,0.0,0.0,0.0,0.0,0.0,0.0,0.0,0.0,0.0,0.0,0.0,0.0,0.0,0.0,0.0,0.0,0.0,0.0,0.0,0.0,0.0,0.0,0.0,0.0,0.0,0.0,0.0,0.0,0.0,-3.1719,-3.1067,-3.0703,0.0,0.0,0.0,0.0,-3.3576,-3.5067,0.0,0.0,0.0,0.0,0.0,0.0,0.0,0.0,0.0,0.0,0.0,0.0,0.0,0.0,0.0,0.0,0.0,0.0,0.0,0.0,0.0,0.0,0.0,0.0,0.0,0.0,0.0,0.0,0.0,0.0,0.0,0.0,0.0,0.0,0.0,0.0,0.0,0.0,0.0,0.0,0.0,0.0,0.0,0.0,0.0,0.0,0.0,0.0,0.0,0.0,0.0,0.0,0.0,0.0,0.0,0.0,-2.8571,-2.9999,-2.9614,-2.7368,-2.8688,-2.9149,-2.8388,-2.9094,-3.0342,0.0,0.0,0.0,0.0,0.0,0.0,0.0,0.0,0.0,0.0,0.0,0.0,0.0,0.0,0.0,0.0,0.0,0.0,0.0,0.0,0.0,0.0,0.0,0.0,0.0,0.0,0.0,0.0,0.0,0.0,0.0,0.0,0.0,0.0,0.0,0.0,0.0,0.0,0.0,0.0,0.0,-3.2879,-3.288,-3.1574,-3.1398,0.0,0.0,-3.3713,-3.5332,-3.6401,0.0,0.0,0.0,0.0,0.0,0.0,0.0,0.0,0.0,0.0,0.0,0.0,0.0,0.0,0.0,0.0,0.0,0.0,0.0,0.0,0.0,0.0,0.0,0.0,0.0,0.0,0.0,0.0,0.0,0.0,0.0,0.0,0.0,0.0,0.0,0.0,0.0,0.0,0.0,0.0,0.0,0.0,0.0,0.0,0.0,0.0,0.0,0.0,0.0,0.0,0.0,0.0,0.0,0.0,0.0,-3.0211,-2.9131,-3.0203,-3.0033,-2.8528,-2.9609,-3.0072,-2.9682,-3.0045,-3.1058,0.0,0.0,0.0,0.0,0.0,0.0,0.0,0.0,0.0,0.0,0.0,0.0,0.0,0.0,0.0,0.0,0.0,0.0,0.0,0.0,0.0,0.0,0.0,0.0,0.0,0.0,0.0,0.0,0.0,0.0,0.0,0.0,0.0,0.0,0.0,0.0,0.0,0.0,0.0,0.0,0.0,0.0,-3.3306,-3.2981,0.0,0.0,0.0,-3.3782,-3.4972,0.0,0.0,0.0,0.0,0.0,0.0,0.0,0.0,0.0,0.0,0.0,0.0,0.0,0.0,0.0,0.0,0.0,0.0,0.0,0.0,0.0,0.0,0.0,0.0,0.0,0.0,0.0,0.0,0.0,0.0,0.0,0.0,0.0,0.0,0.0,0.0,0.0,0.0,0.0,0.0,0.0,0.0,0.0,0.0,0.0,0.0,0.0,0.0,0.0,0.0,0.0,0.0,0.0,0.0,0.0,0.0,0.0,-2.9645,-3.0388,-3.0377,-2.9554,-3.036,-3.0799,-3.0799,-3.0786,0.0,0.0,0.0,0.0,0.0,0.0,0.0,0.0,0.0,0.0,0.0,0.0,0.0,0.0,0.0,0.0,0.0,0.0,0.0,0.0,0.0,0.0,0.0,0.0,0.0,0.0,0.0,-3.4768,0.0,0.0,0.0,0.0,0.0,0.0,0.0,0.0,0.0,0.0,0.0,0.0,0.0,0.0,-3.503,-3.401,-3.4054,-3.414,0.0,0.0,-3.3981,-3.4777,-3.5437,-3.6456,0.0,0.0,0.0,0.0,0.0,0.0,0.0,0.0,0.0,0.0,0.0,0.0,0.0,0.0,0.0,0.0,0.0,0.0,0.0,0.0,0.0,0.0,0.0,0.0,0.0,0.0,0.0,0.0,0.0,0.0,0.0,0.0,0.0,0.0,0.0,0.0,0.0,0.0,0.0,0.0,0.0,0.0,0.0,0.0,0.0,0.0,0.0,0.0,0.0,0.0,0.0,0.0,0.0,0.0,-3.1229,-2.9689,-3.04,-3.0416,-2.9574,-3.0341,-3.0799,-3.0799,-3.0794,-3.1627,0.0,0.0,0.0,0.0,0.0,0.0,0.0,0.0,0.0,0.0,0.0,0.0,0.0,0.0,0.0,0.0,0.0,0.0,0.0,0.0,0.0,0.0,0.0,0.0,0.0,0.0,0.0,0.0,0.0,0.0,0.0,0.0,0.0,0.0,0.0,0.0,0.0,0.0,0.0,0.0,0.0,-3.4865,-3.5616,-3.4378,-3.3938,0.0,-3.5051,-3.4795,-3.5594,-3.5757,-3.6387,-3.813,0.0,0.0,0.0,0.0,0.0,0.0,0.0,0.0,0.0,0.0,0.0,0.0,0.0,0.0,0.0,0.0,0.0,0.0,0.0,0.0,0.0,0.0,0.0,0.0,0.0,0.0,0.0,0.0,0.0,0.0,0.0,0.0,0.0,0.0,0.0,0.0,0.0,0.0,0.0,0.0,0.0,0.0,0.0,0.0,0.0,0.0,0.0,0.0,0.0,0.0,0.0,0.0,0.0,-3.2595,-3.1965,-3.2244,-3.1964,-3.1157,-3.1417,-3.1334,-3.0813,-3.0798,-3.1627,0.0,0.0,0.0,0.0,0.0,0.0,0.0,0.0,0.0,0.0,0.0,0.0,0.0,0.0,0.0,0.0,0.0,0.0,0.0,0.0,0.0,0.0,0.0,0.0,0.0,0.0,0.0,0.0,-3.4964,-3.5056,-3.5226,0.0,0.0,0.0,0.0,0.0,0.0,0.0,0.0,0.0,0.0,-3.6248,-3.6641,-3.6133,0.0,0.0,-3.5605,-3.5657,-3.6421,-3.6571,-3.7149,-3.8811,-3.9174,0.0,0.0,0.0,0.0,0.0,0.0,0.0,0.0,0.0,0.0,0.0,0.0,0.0,0.0,0.0,0.0,0.0,0.0,0.0,0.0,0.0,0.0,0.0,0.0,0.0,0.0,0.0,0.0,0.0,0.0,0.0,0.0,0.0,0.0,0.0,0.0,0.0,0.0,0.0,0.0,0.0,0.0,0.0,0.0,0.0,0.0,0.0,0.0,0.0,0.0,0.0,0.0,-3.3664,-3.3399,-3.3388,-3.3087,-3.245,-3.2206,-3.1797,-3.1231,-3.1188,-3.1877,0.0,0.0,0.0,0.0,0.0,0.0,0.0,0.0,0.0,0.0,0.0,0.0,0.0,0.0,0.0,0.0,0.0,0.0,0.0,0.0,0.0,0.0,0.0,0.0,0.0,0.0,0.0,0.0,-3.5126,-3.5209,-3.535,0.0,0.0,0.0,0.0,0.0,0.0,0.0,0.0,0.0,0.0,-3.7524,-3.7578,-3.7574,-3.7346,-3.6723,-3.6622,-3.6791,-3.7279,-3.7417,-3.7928,-3.9323,0.0,0.0,0.0,0.0,0.0,0.0,0.0,0.0,0.0,0.0,0.0,0.0,0.0,0.0,0.0,0.0,0.0,0.0,0.0,0.0,0.0,0.0,0.0,0.0,0.0,0.0,0.0,-3.7088,0.0,0.0,-3.5903,0.0,0.0,0.0,0.0,0.0,0.0,0.0,0.0,0.0,0.0,0.0,0.0,0.0,0.0,0.0,0.0,0.0,0.0,0.0,0.0,0.0,0.0,-3.4267,-3.3423,-3.3409,-3.3326,-3.3262,-3.2478,-3.2079,-3.2065,-3.2073,-3.2494,-3.3399,0.0,0.0,0.0,0.0,0.0,0.0,0.0,0.0,0.0,0.0,0.0,0.0,0.0,0.0,0.0,0.0,0.0,0.0,0.0,0.0,0.0,0.0,0.0,0.0,0.0,0.0,-3.5105,-3.5219,-3.5364,0.0,0.0,0.0,0.0,0.0,0.0,0.0,0.0,0.0,-3.7243,-3.7948,-3.8469,-3.8473,-3.8422,-3.8319,-3.8305,-3.8257,-3.8225,-3.82,-3.8249,-3.8593,0.0,0.0,0.0,0.0,0.0,0.0,0.0,0.0,0.0,0.0,0.0,0.0,0.0,0.0,0.0,0.0,0.0,0.0,0.0,0.0,0.0,0.0,0.0,0.0,0.0,0.0,0.0,-3.793,-3.7899,0.0,0.0,0.0,0.0,0.0,0.0,0.0,0.0,0.0,0.0,0.0,-3.886,-3.9118,0.0,0.0,0.0,0.0,0.0,0.0,0.0,0.0,0.0,0.0,0.0,0.0,-3.5359,-3.5061,-3.5028,-3.4748,-3.4169,-3.3877,-3.3497,-3.2989,-3.2962,-3.3375,-3.4235,0.0,0.0,0.0,0.0,0.0,0.0,0.0,0.0,0.0,0.0,0.0,0.0,0.0,0.0,0.0,0.0,0.0,0.0,0.0,0.0,0.0,0.0,0.0,0.0,0.0,-3.5251,0.0,0.0,0.0,0.0,0.0,0.0,0.0,0.0,0.0,0.0,0.0,-3.7645,-3.8789,-3.8639,-3.8638,-3.9234,-3.8746,-3.8306,0.0,0.0,0.0,0.0,0.0,0.0,0.0,0.0,0.0,0.0,0.0,0.0,0.0,0.0,-4.2741,-4.3091,-4.2712,-4.2315,-4.2274,0.0,0.0,0.0,0.0,0.0,0.0,0.0,0.0,0.0,0.0,0.0,0.0,0.0,0.0,-3.9296,0.0,-3.8799,0.0,0.0,0.0,0.0,0.0,0.0,0.0,0.0,-3.8712,-3.9116,-3.966,-3.9927,-4.0063,0.0,-4.014,-3.9474,0.0,0.0,0.0,0.0,0.0,0.0,0.0,0.0,-3.6768,-3.6756,-3.6467,-3.6041,-3.5483,-3.4898,-3.435,-3.3838,-3.3841,-3.4273,-3.5116,-3.5984,-3.671,0.0,0.0,0.0,0.0,0.0,0.0,0.0,0.0,0.0,0.0,0.0,0.0,0.0,0.0,0.0,0.0,0.0,0.0,0.0,0.0,0.0,0.0,0.0,-3.5489,0.0,0.0,0.0,0.0,0.0,0.0,0.0,0.0,0.0,-3.7643,-3.7919,-3.8516,-3.9654,-3.9262,-3.9059,-3.9587,0.0,0.0,0.0,0.0,0.0,0.0,0.0,-4.2035,-4.3133,-4.3369,-4.3613,-4.4225,-4.4586,-4.509,-4.5875,0.0,0.0,-4.4081,-4.3743,-4.3529,-4.347,-4.3477,-4.346,-4.3381,-4.2873,-4.2242,0.0,0.0,0.0,0.0,0.0,0.0,0.0,0.0,-4.1718,-4.1156,0.0,-3.9664,0.0,0.0,0.0,0.0,0.0,-3.8514,0.0,0.0,-3.9401,-3.9733,-3.9878,-4.0684,-4.1063,-4.1132,-4.1151,-4.0746,-3.9916,-3.9078,0.0,0.0,0.0,0.0,0.0,0.0,-3.838,-3.8336,-3.7568,-3.712,-3.7089,-3.5587,-3.4748,-3.4706,-3.4718,-3.5155,-3.601,-3.6841,-3.7318,-3.7406,-3.892,0.0,0.0,0.0,0.0,0.0,0.0,0.0,0.0,0.0,0.0,0.0,0.0,0.0,0.0,0.0,0.0,0.0,0.0,0.0,0.0,-3.6209,0.0,0.0,0.0,0.0,0.0,0.0,0.0,0.0,0.0,0.0,-3.8691,-3.9334,-3.9832,-3.9841,0.0,0.0,0.0,0.0,-3.9811,-4.0546,-4.1343,-4.213,-4.3021,-4.3214,-4.3303,-4.3399,0.0,0.0,-4.5641,-4.6686,-4.7447,-4.8269,-4.7672,-4.6752,-4.5037,-4.4114,-4.3586,-4.3562,-4.3594,-4.3465,-4.3415,-4.3385,-4.2954,-4.2318,0.0,0.0,0.0,0.0,-4.2731,-4.284,-4.2633,-4.2245,-4.1831,-4.1361,-4.077,0.0,0.0,0.0,0.0,0.0,0.0,-4.0583,-4.1213,-4.2013,-4.2714,-4.3325,-4.3558,-4.3694,-4.3713,-4.3708,-4.3288,-4.2521,-4.2272,-4.0903,-3.8539,0.0,0.0,0.0,0.0,-3.8399,-3.8373,-3.8151,-3.8035,-3.8026,-3.7605,-3.7113,-3.6534,-3.5937,-3.6033,-3.6899,-3.7168,-3.7861,-3.9033,-3.9536,0.0,0.0,0.0,0.0,0.0,0.0,0.0,0.0,0.0,0.0,0.0,0.0,0.0,0.0,0.0,0.0,0.0,0.0,0.0,-3.7996,-3.775,-3.7654,0.0,0.0,0.0,0.0,0.0,0.0,0.0,0.0,0.0,-4.1193,-4.0933,-4.0701,0.0,0.0,-4.1094,-4.041,-4.0226,-4.0215,-4.0466,-4.0739,0.0,-4.2896,-4.3181,-4.3651,-4.4882,-4.5138,-4.5544,-4.6623,-4.7036,-4.7294,-4.7546,-4.7403,-4.686,-4.584,-4.5406,-4.5231,-4.5202,-4.5189,-4.5157,-4.5079,-4.4583,-4.3971,-4.442,-4.4335,-4.4013,-4.3846,-4.3865,-4.4245,-4.4207,-4.3916,-4.3738,-4.3294,-4.2665,-4.251,-4.2276,-4.1945,-4.1455,0.0,0.0,0.0,-4.2303,-4.2817,-4.3303,-4.3791,-4.4296,-4.4314,-4.4308,-4.4364,-4.4676,-4.4415,-4.3655,-4.3958,-4.2915,-4.0641,0.0,0.0,-4.0513,-4.0462,-4.0252,-3.9945,-3.9593,-3.9268,-3.8909,-3.8633,-3.8277,-3.7832,-3.7302,-3.7276,-3.7789,-3.8118,-3.8756,-3.9735,-4.0137,-4.0539,0.0,0.0,0.0,0.0,0.0,0.0,0.0,0.0,0.0,0.0,0.0,-4.0654,-4.0648,0.0,0.0,0.0,-3.9673,-3.9238,-3.8512,-3.8455,0.0,0.0,0.0,0.0,0.0,0.0,0.0,-4.073,-4.1289,-4.1816,-4.2323,-4.1933,-4.1513,-4.1383,-4.1172,-4.0771,-4.0183,0.0,-4.0185,-4.0861,-4.127,-4.2132,-4.3852,-4.4152,-4.4596,-4.5659,-4.5867,-4.6215,-4.7043,-4.7223,-4.7352,-4.7585,-4.7474,-4.7109,-4.6585,-4.6266,-4.6014,-4.5905,-4.5899,-4.5887,-4.586,-4.5148,-4.4414,-4.6238,-4.6238,-4.5385,-4.4948,-4.49,-4.5677,-4.555,-4.4868,-4.557,-4.5045,-4.37,-4.4367,-4.4285,-4.361,-4.3604,0.0,-4.3617,-4.3682,-4.3695,-4.3714,-4.37,-4.3744,-4.3814,-4.3833,-4.3812,-4.3847,-4.463,-4.4638,-4.3981,-4.4645,-4.4625,-4.3923,-4.3845,-4.3753,-4.3596,-4.3517,-4.314,-4.2396,-4.1614,-4.0801,-3.994,-3.9056,-3.8648,-3.8688,-3.8634,-3.8606,-3.8704,-3.94,-3.9841,-3.9938,-4.0671,-4.1091,-4.1072,0.0,0.0,0.0,0.0,0.0,0.0,0.0,0.0,0.0,0.0,0.0,0.0,0.0,0.0,-4.0885,-4.0228,0.0,-3.8876,-3.8814,0.0,0.0,0.0,-3.9223,-4.0024,-4.0812,-4.1578,-4.231,0.0,0.0,-4.2505,-4.2512,-4.2451,-4.2325,-4.0804,-3.9651,-3.9523,-3.9591,-4.0077,-4.1681,-4.2571,-4.3647,-4.5024,-4.5491,-4.5641,-4.5854,-4.5893,-4.6228,-4.7003,-4.7272,-4.7614,-4.8188,-4.7853,-4.732,-4.7301,-4.6562,-4.6047,-4.5817,-4.5782,-4.5769,-4.557,-4.4963,-4.4202,-4.7554,-4.8125,-4.7903,-4.7028,-4.5784,-4.5978,-4.5948,-4.5724,-4.5278,-4.4898,-4.4534,-4.4078,-4.378,-4.3604,-4.3604,-4.3616,-4.3634,-4.4278,-4.4598,-4.4628,-4.5273,-4.5566,-4.5597,-4.5643,-4.5651,-4.5678,-4.5858,-4.5879,-4.5703,-4.5878,-4.5876,-4.5692,-4.5664,-4.4967,-4.3649,-4.3582,-4.3493,-4.3305,-4.3091,-4.2582,-4.1755,-4.0288,-3.9511,-3.9574,-3.8889,-3.8842,-3.9494,-3.9692,-4.0111,-4.0755,-4.0935,-4.1028,-4.1025,-4.1018,0.0,0.0,0.0,0.0,0.0,0.0,0.0,0.0,0.0,-4.07,-4.0713,0.0,-4.1074,0.0,-4.174,-4.1604,-4.1496,-4.1462,0.0,0.0,-4.205,-4.2541,-4.2761,-4.2969,-4.2908,-4.246,-4.3554,-4.4114,-4.3397,-4.3838,-4.4178,-4.4072,-4.2528,-4.1357,-4.1212,-4.1165,-4.1495,-4.2514,-4.296,-4.348,-4.4568,-4.5379,-4.5867,-4.5893,-4.5922,-4.6277,-4.7123,-4.733,-4.7455,-4.7609,-4.754,-4.717,-4.655,-4.6227,-4.5857,-4.5248,-4.5036,-4.4777,-4.4145,-4.3831,-4.3613,-4.7962,-4.7718,-4.81,-4.7464,-4.6216,-4.6577,-4.6493,-4.6142,-4.6045,-4.6021,-4.6042,-4.5968,-4.5714,-4.5379,-4.5379,-4.5174,-4.4837,-4.5305,-4.5523,-4.5545,-4.603,-4.6246,-4.6249,-4.6289,-4.6289,-4.6306,-4.6305,-4.6301,-4.6297,-4.6295,-4.6287,-4.6292,-4.6264,-4.5755,-4.4804,-4.4794,-4.4608,-4.4234,-4.384,-4.323,-4.2422,-4.1462,-4.0789,-4.043,-3.9915,-3.9891,-4.0359,-4.0384,-4.0608,-4.1056,-4.1037,-4.098,-4.0986,-4.0971,-4.1112,0.0,0.0,0.0,0.0,0.0,0.0,0.0,0.0,0.0,0.0,0.0,-4.2237,-4.2786,-4.2863,-4.2902,-4.2973,-4.2978,-4.2986,-4.2982,-4.3404,-4.3844,-4.4216,-4.429,-4.4231,-4.4153,-4.4641,-4.4777,-4.425,-4.4221,-4.425,-4.4219,-4.3325,-4.2617,-4.2488,-4.2414,-4.2688,-4.3567,-4.3712,-4.4048,-4.4943,-4.5584,-4.5998,-4.5986,-4.6037,-4.626,-4.6711,-4.6816,-4.6863,-4.6885,-4.6865,-4.6734,-4.6259,-4.6154,-4.5772,-4.463,-4.423,-4.4033,-4.3608,-4.316,-4.2858,-4.791,-4.6699,-4.746,-4.7265,-4.6523,-4.7225,-4.7006,-4.6261,-4.7126,-4.7578,-4.7729,-4.8475,-4.8417,-4.7773,-4.7753,-4.7363,-4.664,-4.6523,-4.6484,-4.6464,-4.6347,-4.6307,-4.6303,-4.6301,-4.6295,-4.6296,-4.6296,-4.6296,-4.6296,-4.6288,-4.6284,-4.6284,-4.6231,-4.6206,-4.6216,-4.6247,-4.5898,-4.5143,-4.4311,-4.351,-4.2734,-4.263,-4.2147,-4.131,-4.1276,-4.1198,-4.1111,-4.11,-4.107,-4.1089,-4.1019,-4.0993,-4.0996,-4.1014,-4.1399,0.0,-4.2285,0.0,0.0,0.0,0.0,0.0,0.0,0.0,0.0,-4.3559,-4.3708,-4.3758,-4.3758,-4.3802,-4.386,-4.3864,-4.3872,-4.3879,-4.3977,-4.4343,-4.5078,-4.5174,-4.5421,-4.606,-4.5557,-4.5099,-4.4885,-4.4309,-4.3935,-4.407,-4.4028,-4.3888,-4.3718,-4.3537,-4.3711,-4.4628,-4.4742,-4.5002,-4.5665,-4.5988,-4.6092,-4.6119,-4.6154,-4.6203,-4.624,-4.625,-4.6215,-4.6231,-4.627,-4.6234,-4.6203,-4.6203,-4.5624,-4.4026,-4.3695,-4.3551,-4.3171,-4.2555,-4.208,-4.8063,-4.8418,-4.8574,-4.8164,-4.7364,-4.7503,-4.7084,-4.6347,-4.7206,-4.7981,-4.8626,-4.8805,-4.8805,-4.8649,-4.8652,-4.8516,-4.8301,-4.7656,-4.7364,-4.7325,-4.6632,-4.6296,-4.6296,-4.624,-4.6211,-4.6216,-4.6236,-4.6216,-4.6236,-4.6231,-4.6211,-4.6211,-4.6195,-4.6203,-4.6216,0.0,0.0,0.0,-4.5177,-4.466,-4.449,-4.3836,-4.3036,-4.2208,-4.2153,0.0,-4.1159,-4.1052,-4.102,-4.102,-4.1026,0.0,0.0,0.0,0.0,0.0,0.0,0.0,0.0,0.0,0.0,0.0,-4.55,-4.4918,-4.3646,-4.4197,-4.4642,-4.4655,-4.466,-4.4685,-4.4738,-4.4751,-4.4754,-4.4777,-4.5382,-4.588,-4.6053,-4.6046,-4.5863,-4.5293,-4.5665,-4.5679,-4.5078,-4.5323,-4.5674,-4.5625,-4.5687,-4.5675,-4.561,-4.4878,-4.4769,-4.5541,-4.5692,-4.5828,-4.6018,-4.612,-4.6158,-4.6199,-4.6199,-4.6175,-4.6106,-4.617,-4.6191,-4.6172,-4.623,-4.6267,-4.6217,-4.6237,-4.5756,-4.4023,-4.3688,-4.3232,-4.1825,-4.1369,-4.1206,-4.7994,-4.7647,-4.8076,-4.7764,0.0,-4.6963,-4.6719,-4.634,-4.7235,-4.8301,-4.9517,-4.9961,-4.9903,-4.9493,-4.9489,-4.923,-4.8762,-4.8372,-4.8196,-4.8157,-4.7738,-4.7538,-4.7504,-4.7064,-4.6844,-4.683,-4.6396,-4.6195,-4.6195,-4.617,-4.6137,-4.6137,-4.6107,-4.6102,-4.6104,-4.6054,-4.6044,-4.6132,-4.5745,-4.5351,-4.4908,-4.4475,-4.3832,-4.2987,-4.2934,0.0,0.0,0.0,0.0,0.0,0.0,0.0,0.0,-4.1822,0.0,-4.3236,-4.3678,-4.4299,-4.5138,-4.5304,-4.5503,-4.5922,-4.5975,-4.5667,-4.4832,-4.5246,-4.5538,-4.5553,-4.5546,-4.5557,-4.5592,-4.5597,-4.5601,-4.562,-4.5996,-4.6238,-4.6239,-4.625,-4.6087,-4.5737,-4.5967,-4.6065,-4.5653,-4.5946,-4.6231,-4.6257,-4.6245,-4.6249,-4.6186,-4.5761,-4.559,-4.5976,-4.6105,-4.6138,-4.6156,-4.6168,-4.6015,-4.5703,-4.5566,-4.5367,-4.4979,-4.5281,-4.5551,-4.5609,-4.5925,-4.6245,-4.6225,-4.6225,-4.5848,-4.4655,-4.3981,-4.33,-4.1967,-4.1369,-4.1025,-4.7588,-4.6374,-4.7077,-4.696,-4.6277,-4.6296,-4.6277,-4.6335,0.0,0.0,0.0,-5.062,-5.0557,-4.9889,-4.9859,-4.9561,-4.9034,-4.8878,-4.8878,-4.9015,-4.8872,-4.8794,-4.8755,-4.8067,-4.7638,-4.7443,-4.6742,-4.63,-4.6183,-4.6111,-4.6095,-4.6066,-4.5997,-4.5964,-4.5929,-4.5873,-4.5899,-4.5983,-4.6046,-4.5726,-4.5026,-4.4986,-4.4584,-4.3714,-4.3695,-4.3306,-4.2507,-4.2422,-4.2044,-4.1354,-4.1256,-4.1529,-4.2129,-4.2279,-4.2953,-4.4322,-4.455,-4.4944,-4.5713,-4.5833,-4.588,-4.5893,-4.5941,-4.6017,-4.6113,-4.6158,-4.6193,-4.6196,-4.6216,-4.6189,-4.6206,-4.6206,-4.6206,-4.6206,-4.6211,-4.6201,-4.6214,-4.6198,-4.6191,-4.6202,-4.6228,-4.629,-4.6269,-4.6269,-4.6289,-4.6289,-4.6287,-4.6289,-4.6228,-4.6113,-4.606,-4.6124,-4.6164,-4.6165,-4.6002,-4.5919,-4.5614,-4.482,-4.4676,-4.4421,-4.3936,-4.4175,-4.4676,-4.4968,-4.5527,-4.5936,-4.6162,-4.6206,-4.5919,-4.5133,-4.4426,-4.362,-4.2616,-4.1831,-4.1319,-4.653,-4.6308,-4.6444,-4.6377,-4.6211,-4.6211,-4.6211,-4.6289,-4.7142,-4.8074,-4.8986,-4.9118,-4.9098,-4.8962,-4.8981,-4.9327,-4.9853,-4.9132,-4.921,-4.9853,-4.9159,-4.8795,-4.8795,-4.8624,-4.814,-4.7439,-4.725,-4.6766,-4.6105,-4.6035,-4.6003,-4.5929,-4.5867,-4.5769,-4.564,-4.565,-4.562,-4.5592,-4.581,-4.5871,-4.5755,-4.5744,-4.5327,-4.4501,-4.4439,-4.4047,-4.3186,-4.3141,-4.3066,-4.2886,-4.2879,-4.2897,-4.2956,-4.3571,-4.4077,-4.4363,-4.5026,-4.5478,-4.5629,-4.568,-4.5742,-4.5814,-4.5925,-4.6016,-4.6113,-4.6158,-4.6201,-4.6196,-4.6209,-4.6209,-4.6206,-4.6206,-4.6201,-4.6206,-4.6201,-4.6195,-4.6201,-4.621,-4.6209,-4.6198,-4.6204,-4.6245,-4.6273,-4.6295,-4.6301,-4.6306,-4.6286,-4.6284,-4.6273,-4.623,-4.6189,-4.6186,-4.6206,-4.5918,-4.5421,-4.5131,-4.4715,-4.3941,-4.3793,-4.3702,-4.3401,-4.3596,-4.3992,-4.4713,-4.4929,-4.5319,-4.593,-4.6201,-4.5791,-4.5072,-4.4718,-4.4196,-4.2864,-4.2351,-4.1933,-4.6284,-4.6236,-4.6236,-4.6231,-4.6206,-4.6206,-4.6201,-4.6234,-4.6605,-4.7293,-4.8117,-4.8548,-4.8737,-4.8756,-4.8755,-4.8962,-4.9333,-4.9403,-4.9637,-4.9971,-5.0079,-5.0081,-4.9994,-4.9537,-4.9099,-4.8672,-4.8172,-4.7719,-4.7294,-4.6809,-4.6501,-4.6364,-4.5828,-4.5503,-4.5436,-4.5435,-4.5418,-4.5385,-4.5587,-4.5658,-4.5626,-4.5631,-4.546,-4.5098,-4.5067,-4.4704,-4.3921,-4.3858,-4.3616,-4.3104,-4.2975,-4.3116,-4.352,-4.3823,-4.4192,-4.4703,-4.5069,-4.5302,-4.5341,-4.5419,-4.5545,-4.5677,-4.5786,-4.5893,-4.5988,-4.6093,-4.6138,-4.6146,-4.6135,-4.6142,-4.615,-4.6137,-4.6157,-4.6137,-4.6196,-4.6196,-4.6203,-4.6215,-4.6211,-4.6206,-4.6201,-4.6225,-4.6245,-4.624,-4.6253,-4.6264,-4.6245,-4.6253,-4.625,-4.6222,-4.6205,-4.6171,-4.5855,-4.5402,-4.4994,-4.4506,-4.3856,-4.2984,-4.2852,-4.2649,-4.233,-4.2466,-4.298,-4.3378,-4.3829,-4.4292,-4.4805,-4.5209,-4.5209,-4.5092,-4.4897,-4.4454,-4.387,-4.3092,-4.2124,-4.6255,-4.6201,-4.6201,-4.6201,-4.6215,-4.617,-4.6177,-4.6176,-4.6189,-4.6539,-4.7196,-4.7844,-4.8102,-4.8093,-4.8097,-4.8195,-4.8458,-4.9236,-4.9731,-4.9943,-5.0759,-5.1125,-5.1023,-5.0363,-4.9955,-4.9705,-4.9052,-4.8498,-4.7979,-4.7284,-4.6738,-4.6398,-4.5648,-4.5265,-4.5246,-4.5243,-4.5268,-4.5255,-4.5337,-4.5381,-4.5381,-4.5377,-4.5411,-4.5451,-4.5438,-4.517,-4.4648,-4.4534,-4.419,-4.352,-4.331,-4.3493,-4.4045,-4.4028,-4.4297,-4.4957,-4.4991,-4.4991,-4.5038,-4.5175,-4.5303,-4.5473,-4.5599,-4.5703,-4.5801,-4.5938,-4.6037,-4.6066,-4.6095,-4.6084,-4.6093,-4.6084,-4.6084,-4.6113,-4.6141,-4.6149,-4.6149,-4.6154,-4.6157,-4.6157,-4.6177,-4.6151,-4.6169,-4.617,-4.6195,-4.6201,-4.6201,-4.6201,-4.6201,-4.6201,-4.6153,-4.5826,-4.5353,-4.4902,-4.4647,-4.3861,-4.2984,-4.208,-4.1935,-4.1673,-4.1295,-4.1557,-4.2021,-4.2313,-4.2836,-4.3405,-4.3615,-4.4129,-4.4518,-4.4526,-4.4506,-4.452,-4.4356,-4.3309,-4.2153,-4.622,-4.6209,-4.6203,-4.6209,-4.6201,-4.6138,-4.6102,-4.6095,-4.6114,-4.6105,-4.621,-4.6299,-4.6348,-4.625,-4.6316,-4.669,-4.7365,-4.8179,-4.8974,-4.9718,-5.061,-5.1037,-5.1004,-5.0914,-5.0461,-4.9722,-4.947,-4.8579,-4.7126,-4.6877,-4.6281,-4.5447,-4.5233,-4.5192,-4.5132,-4.5125,-4.5095,-4.5014,-4.5029,-4.5129,-4.5277,-4.5295,-4.5314,-4.5319,-4.5314,-4.5287,-4.5094,-4.5156,-4.5042,-4.49,-4.4794,-4.4763,-4.4768,-4.4781,-4.4795,-4.4895,-4.4895,-4.4895,-4.4919,-4.5038,-4.5132,-4.5159,-4.54,-4.5507,-4.5557,-4.565,-4.5809,-4.5925,-4.6014,-4.6026,-4.6076,-4.6037,-4.6026,-4.6066,-4.6037,-4.6007,-4.6017,-4.6017,-4.6017,-4.6013,-4.6021,-4.6017,-4.6027,-4.6074,-4.6123,-4.6177,-4.6203,-4.6203,-4.6203,-4.6183,-4.5878,-4.5287,-4.4904,-4.452,-4.3841,-4.2925,-4.2119,-4.1313,-4.1081,-4.1033,-4.0994,-4.1042,-4.1302,-4.1877,-4.2224,-4.263,-4.3183,-4.3712,-4.37,-4.3755,-4.3775,-4.3783,-4.3624,-4.3064,-4.2206,-4.6196,-4.6215,-4.6215,-4.6174,-4.6149,-4.6104,-4.6076,-4.6037,-4.5944,-4.5917,-4.5867,-4.5841,-4.5841,-4.5893,-4.5827,-4.6013,-4.6404,-4.77,-4.8423,-4.882,-5.0113,-5.0715,-5.0642,-5.0661,-5.0412,-5.0105,-5.0028,-4.9353,-4.8175,-4.7471,-4.6443,-4.527,-4.5485,-4.5461,-4.4967,-4.4895,-4.484,-4.4808,-4.4815,-4.4865,-4.4938,-4.5,-4.4778,-4.4326,-4.4307,-4.4332,-4.4335,-4.4294,-4.4455,-4.4881,-4.4821,-4.4764,-4.4719,-4.4685,-4.464,-4.4659,-4.4659,-4.4685,-4.4719,-4.4815,-4.4895,-4.4953,-4.5109,-4.5225,-4.5263,-4.5334,-4.5374,-4.553,-4.5703,-4.5835,-4.5861,-4.5861,-4.5873,-4.5925,-4.5937,-4.5937,-4.5937,-4.596,-4.5944,-4.5958,-4.5949,-4.5947,-4.5949,-4.6005,-4.6075,-4.613,-4.6146,-4.6154,-4.6154,-4.6154,-4.5765,-4.5017,-4.4421,-4.3732,-4.2925,-4.2062,-4.1422,-4.1053,-4.0917,-4.0888,-4.0907,-4.0917,-4.1081,-4.1412,-4.1498,-4.1663,-4.1887,-4.2507,-4.2788,-4.2877,-4.3378,-4.3615,-4.3604,-4.337,-4.2973,-4.6169,-4.6216,-4.6422,-4.6619,-4.6766,-4.6493,-4.6333,-4.6189,-4.5866,-4.5684,-4.5642,-4.5526,-4.5661,-4.5921,-4.5962,-4.5965,-4.6159,-4.7643,-4.8356,-4.8432,-4.9834,-5.0485,-5.038,-5.0377,-5.0377,-5.0336,-5.0329,-4.9839,-4.8886,-4.7922,-4.6797,-4.5824,-4.5937,-4.5741,-4.5168,-4.4877,-4.4704,-4.4716,-4.4704,-4.4667,-4.4685,-4.4712,-4.4386,-4.3655,-4.3561,-4.3498,-4.3302,-4.3454,-4.38,-4.4386,-4.4482,-4.4578,-4.4578,-4.4524,-4.4496,-4.4496,-4.4496,-4.4515,-4.4578,-4.4632,-4.4719,-4.4821,-4.4895,-4.4962,-4.5008,-4.5031,-4.5058,-4.5128,-4.5361,-4.5526,-4.5638,-4.5677,-4.5692,-4.5723,-4.5757,-4.5757,-4.5742,-4.5766,-4.5747,-4.5766,-4.5738,-4.5783,-4.5819,-4.5893,-4.5972,-4.6046,-4.6066,-4.6084,-4.6113,-4.6083,-4.5791,-4.4934,-4.4078,-4.3225,-4.2325,-4.1558,-4.1043,-4.0927,-4.0888,-4.0888,-4.0888,-4.0888,-4.0888,-4.113,-4.0946,-4.0966,-4.1286,-4.1674,-4.1936,-4.2081,-4.2594,-4.3315,-4.3571,-4.3734,-4.3997,-4.6122,-4.6249,-4.6941,-4.7686,-4.8394,-4.7456,-4.697,-4.6735,-4.5943,-4.5475,-4.5342,-4.5263,-4.564,-4.6307,-4.6511,-4.6587,-4.6715,-4.8165,-4.8911,-4.8965,-4.9885,-5.0325,-5.0302,-5.0307,-5.0264,-5.0188,-5.0184,-4.9689,-4.8674,-4.7818,-4.7238,-4.7051,-4.6391,-4.6002,-4.5772,-4.5078,-4.4689,-4.4607,-4.4651,-4.4621,-4.4587,-4.4587,-4.4237,-4.3535,-4.3485,-4.307,-4.2442,-4.2982,-4.3427,-4.3484,-4.4119,-4.4496,-4.4496,-4.4515,-4.4496,-4.4496,-4.4496,-4.4496,-4.4515,-4.4551,-4.4632,-4.4621,-4.4745,-4.4808,-4.4806,-4.4868,-4.4903,-4.4925,-4.4997,-4.5156,-4.5419,-4.5456,-4.5456,-4.5528,-4.5455,-4.5457,-4.5419,-4.5475,-4.5419,-4.5436,-4.5461,-4.553,-4.5601,-4.5719,-4.5866,-4.5968,-4.6005,-4.6017,-4.6075,-4.6113,-4.5715,-4.4947,-4.4091,-4.3216,-4.2364,-4.1509,-4.0994,-4.0917,-4.0917,-4.0917,-4.0907,-4.0888,-4.0946,-4.1024,-4.1238,-4.1257,-4.1024,-4.1005,-4.114,-4.1431,-4.1974,-4.2572,-4.3467,-4.4293,-4.4713,-4.6367,-4.6876,-4.7663,-4.8166,-4.8343,-4.7979,-4.7419,-4.6759,-4.6378,-4.582,-4.5295,-4.5154,-4.5258,-4.5555,-4.671,-4.7228,-4.7342,-4.8429,-4.8919,-4.8966,-4.9727,-5.0038,-4.9978,-4.999,-4.9936,-4.9871,-4.9862,-4.9409,-4.8588,-4.8136,-4.7711,-4.7259,-4.6864,-4.6439,-4.5814,-4.5009,-4.4344,-4.3912,-4.4269,-4.4325,-4.3912,-4.4261,-4.3904,-4.2634,-4.2521,-4.2171,-4.1337,-4.16,-4.222,-4.3292,-4.3603,-4.397,-4.4439,-4.4496,-4.4496,-4.4496,-4.4496,-4.4496,-4.4515,-4.4515,-4.4524,-4.4532,-4.4578,-4.4613,-4.4595,-4.464,-4.467,-4.47,-4.4729,-4.4846,-4.4995,-4.5135,-4.5218,-4.5281,-4.53,-4.5279,-4.532,-4.532,-4.532,-4.5321,-4.5381,-4.5438,-4.5531,-4.5654,-4.5795,-4.5919,-4.598,-4.6005,-4.6017,-4.6047,-4.5755,-4.5026,-4.4521,-4.4016,-4.317,-4.1809,-4.0971,-4.0971,-4.0991,-4.1057,-4.1057,-4.1632,-4.1807,-4.1878,-4.1966,-4.2228,-4.2189,-4.1723,-4.1607,-4.1344,-4.1848,-4.2691,-4.342,-4.4468,-4.5206,-4.7342,-4.8031,-4.8556,-4.8922,-4.8998,-4.8623,-4.7914,-4.697,-4.6555,-4.5891,-4.5137,-4.4991,-4.5095,-4.5445,-4.6525,-4.7384,-4.7928,-4.8789,-4.9162,-4.914,-4.9652,-4.9843,-4.9778,-4.9778,-4.975,-4.9711,-4.9711,-4.9372,-4.8871,-4.8796,-4.8465,-4.7984,-4.7429,-4.677,-4.611,-4.5077,-4.4177,-4.3866,-4.4233,-4.4214,-4.382,-4.4214,-4.3707,-4.228,-4.1999,-4.1492,-4.0471,-4.091,-4.168,-4.275,-4.3388,-4.3933,-4.4439,-4.4496,-4.4496,-4.4496,-4.4496,-4.4496,-4.4496,-4.4496,-4.4496,-4.4496,-4.4496,-4.4496,-4.4496,-4.4496,-4.4524,-4.4551,-4.457,-4.4635,-4.4704,-4.4821,-4.4943,-4.5057,-4.5057,-4.5038,-4.5103,-4.5103,-4.5125,-4.5132,-4.5194,-4.5319,-4.5419,-4.5566,-4.5715,-4.5852,-4.5919,-4.598,-4.5964,-4.5956,-4.5839,-4.5257,-4.4898,-4.451,-4.3908,-4.285,-4.2188,-4.211,-4.1941,-4.1782,-4.1762,-4.2346,-4.268,-4.2751,-4.2986,-4.3326,-4.3219,-4.2665,-4.2218,-4.1781,-4.2286,-4.3169,-4.3958,-4.4787,-4.546,-4.8987,-4.9524,-4.9641,-4.9944,-5.026,-4.9444,-4.8468,-4.7461,-4.6518,-4.566,-4.4833,-4.4719,-4.5115,-4.5795,-4.6048,-4.6871,-4.806,-4.906,-4.957,-4.9608,-4.9702,-4.9702,-4.9692,-4.9692,-4.9692,-4.9682,-4.9711,-4.9634,-4.948,-4.9461,-4.9394,-4.9145,-4.783,-4.7097,-4.6936,-4.5416,-4.4533,-4.4346,-4.4337,-4.4383,-4.4477,-4.4383,-4.367,-4.2254,-4.2055,-4.1304,-3.9802,-4.1116,-4.186,-4.2224,-4.3538,-4.4439,-4.4477,-4.4496,-4.4487,-4.4487,-4.4515,-4.4496,-4.4487,-4.4468,-4.4487,-4.4496,-4.4496,-4.4487,-4.4515,-4.4496,-4.4515,-4.4515,-4.4515,-4.4496,-4.4496,-4.4551,-4.4632,-4.4764,-4.4789,-4.4745,-4.4719,-4.4738,-4.4745,-4.4838,-4.4953,-4.5094,-4.5265,-4.5493,-4.5651,-4.5781,-4.5866,-4.5919,-4.5917,-4.5929,-4.5898,-4.5743,-4.5359,-4.4935,-4.4508,-4.4081,-4.3782,-4.35,-4.3283,-4.3101,-4.3016,-4.3347,-4.3514,-4.3605,-4.3918,-4.4208,-4.3809,-4.3313,-4.3042,-4.2809,-4.3355,-4.3675,-4.437,-4.5117,-4.5715,-4.9389,-4.9616,-5.0084,-5.0317,-5.0399,-4.9996,-4.8914,-4.7448,-4.6997,-4.6074,-4.4889,-4.4712,-4.4863,-4.5221,-4.5712,-4.6232,-4.6723,-4.807,-4.9097,-4.9636,-4.9711,-4.9682,-4.9634,-4.9634,-4.9604,-4.9563,-4.9551,-4.9551,-4.9521,-4.9521,-4.9521,-4.9265,-4.8363,-4.7556,-4.6993,-4.5885,-4.4862,-4.3783,-4.3661,-4.367,-4.3688,-4.3688,-4.3407,-4.2919,-4.2337,-4.1466,-4.0465,-4.0884,-4.1454,-4.1972,-4.3069,-4.3933,-4.4383,-4.4496,-4.4468,-4.4458,-4.4411,-4.443,-4.4373,-4.4373,-4.4383,-4.4421,-4.4421,-4.4458,-4.4487,-4.4515,-4.4515,-4.4496,-4.4496,-4.4496,-4.4496,-4.4496,-4.4551,-4.464,-4.4632,-4.464,-4.4667,-4.4719,-4.4745,-4.4789,-4.4948,-4.5118,-4.5285,-4.5473,-4.5651,-4.5765,-4.5872,-4.5906,-4.5893,-4.5905,-4.5898,-4.584,-4.5561,-4.5425,-4.5153,-4.4998,-4.4855,-4.4501,-4.4286,-4.4164,-4.4125,-4.4211,-4.4359,-4.45,-4.4812,-4.4758,-4.4358,-4.3998,-4.3726,-4.3679,-4.3945,-4.4336,-4.4763,-4.534,-4.5975,-5.0003,-4.9971,-5.0354,-5.0399,-5.0174,-4.9765,-4.87,-4.7294,-4.6825,-4.593,-4.4802,-4.4632,-4.4632,-4.4802,-4.5517,-4.5998,-4.6384,-4.7682,-4.8754,-4.9529,-4.9623,-4.9612,-4.9582,-4.9582,-4.9551,-4.949,-4.9509,-4.9459,-4.944,-4.9427,-4.9409,-4.9246,-4.8534,-4.7909,-4.7271,-4.6202,-4.5067,-4.4195,-4.3849,-4.3662,-4.3662,-4.3662,-4.3512,-4.3175,-4.2669,-4.1967,-4.121,-4.1424,-4.1713,-4.2106,-4.3025,-4.3915,-4.4374,-4.4421,-4.443,-4.4383,-4.4354,-4.4344,-4.4314,-4.4314,-4.4314,-4.4354,-4.4354,-4.4401,-4.443,-4.4458,-4.4468,-4.4515,-4.4496,-4.4496,-4.4496,-4.4496,-4.4496,-4.4551,-4.4551,-4.4578,-4.4632,-4.464,-4.4678,-4.4787,-4.4967,-4.5144,-4.5322,-4.5507,-4.5665,-4.5781,-4.5838,-4.586,-4.5867,-4.5867,-4.5867,-4.588,-4.577,-4.5744,-4.5854,-4.5854,-4.5893,-4.5537,-4.5162,-4.5062,-4.4973,-4.5173,-4.5348,-4.5279,-4.547,-4.5421,-4.5047,-4.464,-4.4349,-4.4451,-4.4575,-4.484,-4.522,-4.5671,-4.619,-5.0587,-5.0506,-5.0418,-5.0202,-4.9829,-4.8969,-4.7947,-4.6911,-4.6139,-4.5303,-4.4599,-4.4487,-4.4487,-4.4655,-4.5359,-4.6025,-4.6907,-4.777,-4.8539,-4.9159,-4.9434,-4.9459,-4.949,-4.9459,-4.9459,-4.9459,-4.9459,-4.9409,-4.9289,-4.9308,-4.9276,-4.9137,-4.8557,-4.8034,-4.7704,-4.6389,-4.5709,-4.5241,-4.4595,-4.424,-4.4202,-4.4128,-4.3903,-4.3164,-4.2996,-4.2585,-4.2053,-4.2408,-4.2567,-4.2268,-4.3511,-4.4242,-4.4318,-4.4317,-4.4296,-4.4306,-4.4314,-4.4285,-4.4285,-4.4255,-4.4293,-4.43,-4.4274,-4.4333,-4.4381,-4.4391,-4.4411,-4.444,-4.4458,-4.4468,-4.4468,-4.4487,-4.4487,-4.4487,-4.4515,-4.4515,-4.4496,-4.4515,-4.4599,-4.4756,-4.4905,-4.5073,-4.5349,-4.5517,-4.5665,-4.5765,-4.5805,-4.5814,-4.5814,-4.5827,-4.5814,-4.5814,-4.5827,-4.5841,-4.5854,-4.5874,-4.5893,-4.5815,-4.5567,-4.5551,-4.555,-4.5752,-4.5896,-4.5881,-4.5836,-4.5835,-4.568,-4.5215,-4.5098,-4.5304,-4.5384,-4.5414,-4.5629,-4.6021,-4.6176,-4.9461,-4.9404,-4.9964,-4.9702,-4.8943,-4.8531,-4.7476,-4.6081,-4.5742,-4.5094,-4.4504,-4.4344,-4.4373,-4.4437,-4.5185,-4.569,-4.627,-4.7448,-4.8122,-4.844,-4.9019,-4.9276,-4.9327,-4.9295,-4.9262,-4.9281,-4.9313,-4.9262,-4.9211,-4.9211,-4.923,-4.9179,-4.8954,-4.8548,-4.7975,-4.7503,-4.6645,-4.5562,-4.4703,-4.4341,-4.4248,-4.3706,-4.3575,-4.3922,-4.3351,-4.292,-4.2608,-4.2746,-4.3189,-4.3642,-4.4015,-4.4314,-4.4306,-4.4314,-4.4285,-4.4237,-4.4226,-4.4177,-4.4116,-4.4085,-4.4123,-4.4197,-4.4221,-4.4263,-4.433,-4.4322,-4.4344,-4.4344,-4.4344,-4.4373,-4.4344,-4.4373,-4.4373,-4.4373,-4.443,-4.4468,-4.4496,-4.4515,-4.4552,-4.4701,-4.4891,-4.5112,-4.5315,-4.5494,-4.5648,-4.5765,-4.581,-4.58,-4.5786,-4.5786,-4.5786,-4.58,-4.5814,-4.5814,-4.5814,-4.5814,-4.5833,-4.5847,-4.5796,-4.5805,-4.5811,-4.5911,-4.5959,-4.5975,-4.5891,-4.5848,-4.5835,-4.5602,-4.5832,-4.5869,-4.5841,-4.5735,-4.5872,-4.6158,-4.6169,-4.8376,-4.827,-4.8681,-4.8453,-4.7834,-4.7391,-4.6599,-4.5627,-4.5167,-4.4811,-4.4371,-4.4314,-4.4314,-4.4416,-4.548,-4.6003,-4.6228,-4.774,-4.8488,-4.8581,-4.8992,-4.9211,-4.9244,-4.923,-4.9197,-4.9197,-4.9197,-4.9179,-4.9164,-4.915,-4.9131,-4.9079,-4.9079,-4.8822,-4.842,-4.7969,-4.7462,-4.6387,-4.5357,-4.4736,-4.4661,-4.3897,-4.3711,-4.4058,-4.3655,-4.3409,-4.3367,-4.3318,-4.362,-4.4046,-4.4177,-4.4195,-4.4177,-4.4177,-4.4147,-4.4116,-4.4116,-4.4067,-4.4005,-4.4005,-4.4042,-4.4079,-4.4123,-4.4172,-4.4251,-4.4263,-4.4255,-4.4285,-4.4285,-4.4333,-4.4333,-4.4333,-4.4333,-4.4314,-4.4373,-4.4411,-4.4458,-4.4487,-4.459,-4.4726,-4.4905,-4.513,-4.5316,-4.5522,-4.5629,-4.5731,-4.5746,-4.5761,-4.5742,-4.5757,-4.5757,-4.5771,-4.5766,-4.5747,-4.5752,-4.5757,-4.5771,-4.58,-4.5847,-4.5899,-4.5937,-4.5964,-4.5964,-4.5941,-4.5893,-4.5867,-4.5841,-4.5854,-4.5879,-4.5917,-4.5977,-4.6017,-4.6095,-4.6123,-4.6138,-4.7321,-4.714,-4.7099,-4.6986,-4.6749,-4.5967,-4.5578,-4.5219,-4.4659,-4.4341,-4.4237,-4.4277,-4.4266,-4.4378,-4.5599,-4.6514,-4.6701,-4.8049,-4.8828,-4.8982,-4.9113,-4.9131,-4.9146,-4.9146,-4.9113,-4.9146,-4.9164,-4.9131,-4.9083,-4.9068,-4.9015,-4.8943,-4.8943,-4.889,-4.8686,-4.8203,-4.7831,-4.7311,-4.6136,-4.5356,-4.5058,-4.4371,-4.398,-4.398,-4.3999,-4.3906,-4.3912,-4.3931,-4.3986,-4.4005,-4.4005,-4.4005,-4.4005,-4.4005,-4.4005,-4.4023,-4.4005,-4.4005,-4.4005,-4.4005,-4.4005,-4.4023,-4.4023,-4.4055,-4.4135,-4.4165,-4.4195,-4.4207,-4.4255,-4.4255,-4.4237,-4.4255,-4.4255,-4.4255,-4.4285,-4.4344,-4.4401,-4.4458,-4.4571,-4.4795,-4.4986,-4.5182,-4.5381,-4.5549,-4.569,-4.5715,-4.5731,-4.5712,-4.5712,-4.5712,-4.5712,-4.5712,-4.5708,-4.5699,-4.5688,-4.5696,-4.5727,-4.5757,-4.5805,-4.5847,-4.5887,-4.5893,-4.5905,-4.5893,-4.5841,-4.5833,-4.5824,-4.5827,-4.5886,-4.5933,-4.5975,-4.6016,-4.6066,-4.6085,-4.6085,-4.6237,-4.6121,-4.6711,-4.651,-4.5859,-4.5604,-4.5144,-4.4475,-4.4307,-4.4165,-4.4085,-4.4048,-4.4067,-4.4123,-4.519,-4.5935,-4.6615,-4.7675,-4.8327,-4.8959,-4.8943,-4.8943,-4.8978,-4.8959,-4.8978,-4.8978,-4.8978,-4.8943,-4.8943,-4.8962,-4.8943,-4.8909,-4.889,-4.889,-4.8834,-4.8686,-4.828,-4.7652,-4.6721,-4.5955,-4.5287,-4.4562,-4.4061,-4.4005,-4.4005,-4.4005,-4.4005,-4.4005,-4.4005,-4.4005,-4.4005,-4.4005,-4.4005,-4.4005,-4.4005,-4.4005,-4.4005,-4.4005,-4.4005,-4.4005,-4.4005,-4.4005,-4.4005,-4.4005,-4.4055,-4.4055,-4.4055,-4.4085,-4.4067,-4.4067,-4.4085,-4.4085,-4.4085,-4.4116,-4.4226,-4.4314,-4.4383,-4.4458,-4.4571,-4.4737,-4.4933,-4.5104,-4.5303,-4.5455,-4.5582,-4.5665,-4.568,-4.568,-4.568,-4.568,-4.5665,-4.5684,-4.568,-4.5677,-4.568,-4.5687,-4.5703,-4.5731,-4.5761,-4.5776,-4.5819,-4.5833,-4.5827,-4.5814,-4.5786,-4.5776,-4.5785,-4.5791,-4.5822,-4.5893,-4.5941,-4.5983,-4.5994,-4.6014,-4.6014,-4.519,-4.5046,-4.5406,-4.5251,-4.4817,-4.478,-4.4507,-4.416,-4.4085,-4.4055,-4.4005,-4.4005,-4.4005,-4.4079,-4.491,-4.5746,-4.6643,-4.7757,-4.8481,-4.8853,-4.8909,-4.889,-4.889,-4.889,-4.889,-4.889,-4.889,-4.889,-4.889,-4.889,-4.8909,-4.889,-4.889,-4.889,-4.889,-4.889,-4.867,-4.8243,-4.7463,-4.668,-4.5862,-4.5045,-4.4321,-4.4079,-4.4005,-4.4005,-4.4005,-4.4005,-4.4005,-4.4005,-4.4005,-4.4005,-4.4005,-4.4005,-4.4005,-4.4005,-4.4005,-4.4005,-4.4005,-4.4005,-4.4005,-4.4023,-4.4023,-4.4005,-4.4005,-4.4005,-4.4005,-4.4005,-4.4005,-4.4005,-4.4005,-4.4005,-4.4005,-4.4036,-4.4165,-4.4285,-4.4401,-4.4477,-4.4599,-4.4772,-4.4962,-4.5161,-4.5323,-4.5437,-4.553,-4.5635,-4.5635,-4.5635,-4.5635,-4.5635,-4.5635,-4.5654,-4.5654,-4.5654,-4.5654,-4.5657,-4.5693,-4.5706,-4.5715,-4.5731,-4.5727,-4.5746,-4.5765,-4.5731,-4.5731,-4.5735,-4.5738,-4.5746,-4.5791,-4.5838,-4.588,-4.5899,-4.5912,-4.5899,-4.5899,-4.4391,-4.4184,-4.4055,-4.4005,-4.4005,-4.4042,-4.4042,-4.4023,-4.4005,-4.4023,-4.4005,-4.4005,-4.4005,-4.4172,-4.4692,-4.5584,-4.6735,-4.8054,-4.8853,-4.8872,-4.889,-4.889,-4.889,-4.889,-4.889,-4.889,-4.889,-4.889,-4.889,-4.889,-4.889,-4.889,-4.889,-4.889,-4.889,-4.889,-4.8853,-4.8686,-4.798,-4.7348,-4.6568,-4.5732,-4.4822,-4.4153,-4.4005,-4.3974,-4.3992,-4.3992,-4.3992,-4.3974,-4.3955,-4.3986,-4.3974,-4.4005,-4.4005,-4.4005,-4.4005,-4.4005,-4.4005,-4.4023,-4.4042,-4.4116,-4.4228,-4.4246,-4.4265,-4.4283,-4.4209,-4.4061,-4.4005,-4.4005,-4.4005,-4.4005,-4.4005,-4.4036,-4.4135,-4.4255,-4.4401,-4.4524,-4.4718,-4.4889,-4.5076,-4.5245,-4.5362,-4.5475,-4.5549,-4.5586,-4.5586,-4.5586,-4.5586,-4.5603,-4.5603,-4.562,-4.562,-4.562,-4.564,-4.564,-4.5659,-4.5657,-4.5668,-4.5668,-4.5665,-4.5668,-4.5687,-4.5703,-4.5687,-4.569,-4.5709,-4.5703,-4.5735,-4.5789,-4.58,-4.5819,-4.5805,-4.5776,-4.5805,-4.4325,-4.4184,-4.4055,-4.4005,-4.4005,-4.4005,-4.4005,-4.4005,-4.4005,-4.4005,-4.4005,-4.4005,-4.4005,-4.4079,-4.4098,-4.5082,-4.6568,-4.8057,-4.8855,-4.8855,-4.8874,-4.8874,-4.8855,-4.889,-4.889,-4.889,-4.889,-4.889,-4.889,-4.889,-4.889,-4.889,-4.889,-4.889,-4.889,-4.889,-4.889,-4.8816,-4.8221,-4.7701,-4.7163,-4.6011,-4.4952,-4.4191,-4.4048,-4.3942,-4.3929,-4.3915,-4.3883,-4.3851,-4.3818,-4.3836,-4.3892,-4.3942,-4.3992,-4.3992,-4.3992,-4.4011,-4.4103,-4.4079,-4.4413,-4.4841,-4.5064,-4.5064,-4.5082,-4.5045,-4.4766,-4.4246,-4.4061,-4.4005,-4.4005,-4.4005,-4.4005,-4.4036,-4.4177,-4.4314,-4.4458,-4.4635,-4.4799,-4.4966,-4.5129,-4.5304,-4.538,-4.5473,-4.5549,-4.5586,-4.5586,-4.5586,-4.5586,-4.5586,-4.5603,-4.5603,-4.5603,-4.5603,-4.5603,-4.5603,-4.5622,-4.5622,-4.562,-4.562,-4.5618,-4.562,-4.562,-4.5637,-4.5657,-4.564,-4.5657,-4.5673,-4.569,-4.5706,-4.5719,-4.5712,-4.5715,-4.5715,-4.5765,-4.4237,-4.4104,-4.4055,-4.4005,-4.4005,-4.3942,-4.3942,-4.3961,-4.3897,-4.3929,-4.3961,-4.3961,-4.3974,-4.4005,-4.4005,-4.4883,-4.6465,-4.8009,-4.8694,-4.875,-4.8822,-4.8857,-4.8839,-4.8874,-4.889,-4.889,-4.889,-4.8909,-4.889,-4.889,-4.889,-4.889,-4.889,-4.889,-4.889,-4.889,-4.889,-4.8779,-4.85,-4.8073,-4.759,-4.6104,-4.5013,-4.4628,-4.4133,-4.3878,-4.3851,-4.3855,-4.3822,-4.3786,-4.3795,-4.3795,-4.3837,-4.3841,-4.3892,-4.3939,-4.3934,-4.4119,-4.4416,-4.4545,-4.4934,-4.5605,-4.5786,-4.5753,-4.5786,-4.5727,-4.544,-4.4817,-4.4116,-4.4005,-4.4005,-4.4042,-4.4005,-4.4036,-4.4214,-4.4389,-4.4468,-4.4672,-4.4825,-4.4997,-4.518,-4.5323,-4.5396,-4.5453,-4.553,-4.5586,-4.5586,-4.5586,-4.5586,-4.5586,-4.5568,-4.5566,-4.5566,-4.5568,-4.5568,-4.5568,-4.5568,-4.5568,-4.5568,-4.5568,-4.5586,-4.5568,-4.5586,-4.564,-4.5622,-4.5605,-4.5622,-4.562,-4.5657,-4.5657,-4.5654,-4.5651,-4.5651,-4.5671,-4.5703,-4.4177,-4.4005,-4.3974,-4.3974,-4.3974,-4.3897,-4.3883,-4.3851,-4.3837,-4.3837,-4.3883,-4.3883,-4.3897,-4.4016,-4.4294,-4.5004,-4.6363,-4.7755,-4.8346,-4.8642,-4.8697,-4.8751,-4.8768,-4.8785,-4.8802,-4.8785,-4.882,-4.8874,-4.889,-4.889,-4.889,-4.889,-4.889,-4.8874,-4.8874,-4.8855,-4.8855,-4.8839,-4.8837,-4.8447,-4.7482,-4.6372,-4.5434,-4.5308,-4.4661,-4.4354,-4.4454,-4.4478,-4.4441,-4.4312,-4.4143,-4.3977,-4.3962,-4.3839,-4.3805,-4.3928,-4.39,-4.4266,-4.4746,-4.4967,-4.5352,-4.6369,-4.6445,-4.6428,-4.6371,-4.6289,-4.6005,-4.5454,-4.4735,-4.4276,-4.4281,-4.4252,-4.4271,-4.4376,-4.4581,-4.4797,-4.4913,-4.5021,-4.5044,-4.5171,-4.5262,-4.5285,-4.5342,-4.5417,-4.5475,-4.5475,-4.5513,-4.5513,-4.5513,-4.5532,-4.5513,-4.5549,-4.553,-4.555,-4.555,-4.5513,-4.5513,-4.5513,-4.5513,-4.5513,-4.5532,-4.555,-4.555,-4.5568,-4.555,-4.5532,-4.5568,-4.5586,-4.5603,-4.5603,-4.5586,-4.5586,-4.5549,-4.5584,-4.5654,-4.4135,-4.4005,-4.3929,-4.3915,-4.3897,-4.3851,-4.3822,-4.3808,-4.3789,-4.3789,-4.3808,-4.3804,-4.3818,-4.3948,-4.4558,-4.5352,-4.626,-4.7147,-4.7978,-4.8477,-4.8605,-4.8642,-4.8642,-4.8641,-4.8677,-4.866,-4.866,-4.875,-4.882,-4.8855,-4.8855,-4.8874,-4.8855,-4.8857,-4.8787,-4.8802,-4.8767,-4.8679,-4.866,-4.8288,-4.757,-4.7165,-4.6631,-4.6205,-4.5854,-4.5653,-4.5512,-4.5496,-4.5534,-4.5441,-4.4888,-4.4612,-4.4487,-4.3899,-4.403,-4.4209,-4.4223,-4.4173,-4.4952,-4.5266,-4.5838,-4.6926,-4.7222,-4.7257,-4.7111,-4.665,-4.6279,-4.6112,-4.5371,-4.4942,-4.4905,-4.4938,-4.4971,-4.5189,-4.5477,-4.5908,-4.6084,-4.5487,-4.5491,-4.5232,-4.5266,-4.5249,-4.5241,-4.5342,-4.5419,-4.5419,-4.54,-4.5419,-4.5438,-4.5458,-4.5476,-4.5494,-4.5494,-4.5495,-4.5496,-4.5477,-4.5476,-4.5457,-4.5457,-4.5457,-4.5476,-4.5476,-4.5457,-4.5457,-4.5438,-4.5475,-4.5531,-4.5549,-4.5568,-4.555,-4.5513,-4.5476,-4.5438,-4.5513,-4.5603,-4.3947,-4.3929,-4.3883,-4.3851,-4.3818,-4.3701,-4.3686,-4.3671,-4.3652,-4.3652,-4.3704,-4.3686,-4.3719,-4.3919,-4.4549,-4.536,-4.619,-4.6874,-4.7647,-4.8347,-4.8532,-4.855,-4.8569,-4.8587,-4.8569,-4.8587,-4.8569,-4.8623,-4.8714,-4.875,-4.8731,-4.8731,-4.8731,-4.8695,-4.8697,-4.8677,-4.8642,-4.8587,-4.8569,-4.842,-4.8034,-4.7611,-4.7169,-4.6818,-4.634,-4.6139,-4.6084,-4.6011,-4.5938,-4.5828,-4.5442,-4.5148,-4.4764,-4.4413,-4.4393,-4.4545,-4.4469,-4.4943,-4.5973,-4.612,-4.6783,-4.7482,-4.7924,-4.7923,-4.785,-4.7353,-4.6856,-4.6856,-4.6136,-4.5745,-4.5672,-4.5722,-4.5722,-4.5922,-4.6286,-4.6397,-4.6557,-4.6267,-4.5904,-4.5581,-4.5265,-4.5179,-4.5119,-4.5065,-4.5132,-4.5218,-4.5218,-4.5237,-4.53,-4.5399,-4.54,-4.5419,-4.5438,-4.5438,-4.5438,-4.5418,-4.5419,-4.5419,-4.5419,-4.5419,-4.5419,-4.5419,-4.5419,-4.54,-4.5419,-4.5438,-4.5494,-4.5475,-4.5476,-4.5476,-4.5438,-4.5419,-4.54,-4.5457,-4.5549,-4.3786,-4.3832,-4.3786,-4.3753,-4.3719,-4.3615,-4.3582,-4.3548,-4.3532,-4.3513,-4.3548,-4.3582,-4.3634,-4.3778,-4.4278,-4.498,-4.6065,-4.6599,-4.7407,-4.8031,-4.8379,-4.8418,-4.8475,-4.8494,-4.8513,-4.8532,-4.8495,-4.8514,-4.8514,-4.8514,-4.855,-4.8569,-4.8605,-4.8569,-4.8569,-4.8569,-4.8569,-4.8494,-4.8513,-4.8495,-4.8347,-4.7903,-4.7665,-4.7334,-4.6912,-4.6507,-4.6489,-4.6581,-4.6581,-4.6581,-4.6305,-4.5975,-4.5553,-4.5222,-4.5256,-4.5405,-4.5478,-4.5993,-4.6783,-4.7186,-4.759,-4.8012,-4.8324,-4.8252,-4.8289,-4.7849,-4.7573,-4.7589,-4.6875,-4.6488,-4.6431,-4.6467,-4.6502,-4.6576,-4.6814,-4.676,-4.6724,-4.6678,-4.6493,-4.6227,-4.5797,-4.5095,-4.4974,-4.4791,-4.4815,-4.4943,-4.5033,-4.5057,-4.5148,-4.5254,-4.53,-4.5322,-4.5361,-4.5361,-4.5379,-4.5378,-4.5361,-4.538,-4.5381,-4.5361,-4.538,-4.538,-4.5361,-4.538,-4.5381,-4.5361,-4.54,-4.54,-4.5419,-4.5419,-4.5419,-4.54,-4.54,-4.5438,-4.5495,-4.3634,-4.3615,-4.3634,-4.3634,-4.3615,-4.3513,-4.3479,-4.3513,-4.3479,-4.3479,-4.3513,-4.3532,-4.3513,-4.3569,-4.3771,-4.456,-4.5938,-4.5957,-4.6985,-4.7902,-4.8324,-4.8343,-4.8363,-4.8363,-4.8363,-4.8363,-4.8382,-4.8382,-4.8344,-4.8382,-4.8458,-4.8532,-4.855,-4.8532,-4.8532,-4.8495,-4.8458,-4.8382,-4.8401,-4.8344,-4.8344,-4.8214,-4.8159,-4.8177,-4.8122,-4.8141,-4.8122,-4.7921,-4.7829,-4.7792,-4.7294,-4.6873,-4.6507,-4.6085,-4.6085,-4.6397,-4.6544,-4.704,-4.7682,-4.7627,-4.7627,-4.8049,-4.8324,-4.8324,-4.8324,-4.8324,-4.8233,-4.8084,-4.7444,-4.7169,-4.7132,-4.7132,-4.7206,-4.7279,-4.7481,-4.7647,-4.7574,-4.7334,-4.7205,-4.693,-4.6396,-4.5753,-4.5254,-4.517,-4.4627,-4.4726,-4.4745,-4.4796,-4.4943,-4.5038,-4.5154,-4.5199,-4.5279,-4.5298,-4.5298,-4.5298,-4.5339,-4.5339,-4.532,-4.53,-4.5319,-4.5319,-4.5339,-4.5319,-4.532,-4.5319,-4.5319,-4.5341,-4.5361,-4.5399,-4.5399,-4.536,-4.536,-4.538,-4.5438,-4.3566,-4.3566,-4.3513,-4.3513,-4.3532,-4.3532,-4.3479,-4.3479,-4.3479,-4.3479,-4.3479,-4.3479,-4.3479,-4.3497,-4.3571,-4.436,-4.5736,-4.5902,-4.6948,-4.7829,-4.8324,-4.8324,-4.8324,-4.8324,-4.8324,-4.8324,-4.8324,-4.8324,-4.8324,-4.8324,-4.8344,-4.842,-4.8458,-4.842,-4.8364,-4.8402,-4.8364,-4.8326,-4.8324,-4.8324,-4.8324,-4.8324,-4.8324,-4.8324,-4.8324,-4.8324,-4.8288,-4.8306,-4.8324,-4.8251,-4.7974,-4.7626,-4.7221,-4.68,-4.6855,-4.7132,-4.7186,-4.7572,-4.8122,-4.7994,-4.8031,-4.8141,-4.8324,-4.8324,-4.8324,-4.8324,-4.8324,-4.8177,-4.8031,-4.7755,-4.7829,-4.7885,-4.7922,-4.8015,-4.8125,-4.8327,-4.8272,-4.7923,-4.7646,-4.7315,-4.6966,-4.6452,-4.6026,-4.5632,-4.5008,-4.4479,-4.4505,-4.456,-4.4745,-4.4919,-4.5042,-4.5154,-4.5235,-4.5277,-4.5277,-4.5277,-4.5277,-4.5277,-4.5277,-4.5277,-4.5277,-4.5277,-4.5298,-4.5277,-4.5277,-4.5298,-4.5298,-4.5319,-4.5339,-4.5359,-4.5338,-4.5338,-4.5317,-4.5319,-4.536,-4.3002,-4.2837,-4.3039,-4.3277,-4.3461,-4.3479,-4.3479,-4.3479,-4.3479,-4.3479,-4.3479,-4.3479,-4.3479,-4.3534,-4.3846,-4.4544,-4.5718,-4.6269,-4.715,-4.7865,-4.8324,-4.8324,-4.8324,-4.8324,-4.8324,-4.8324,-4.8324,-4.8324,-4.8324,-4.8324,-4.8306,-4.8306,-4.8324,-4.8306,-4.8306,-4.8324,-4.8324,-4.8324,-4.8324,-4.8324,-4.8324,-4.8324,-4.8324,-4.8324,-4.8324,-4.8324,-4.8324,-4.8324,-4.8324,-4.8324,-4.8176,-4.8011,-4.7679,-4.7457,-4.7457,-4.7459,-4.7496,-4.7774,-4.8141,-4.8306,-4.8306,-4.8324,-4.8324,-4.8324,-4.8324,-4.8324,-4.8324,-4.8324,-4.8288,-4.8324,-4.8324,-4.8233,-4.8196,-4.8197,-4.8216,-4.8363,-4.8324,-4.8104,-4.7939,-4.7681,-4.7314,-4.6929,-4.6488,-4.602,-4.5389,-4.4773,-4.4493,-4.458,-4.4693,-4.4889,-4.5052,-4.5148,-4.5213,-4.5275,-4.5277,-4.5277,-4.5277,-4.5277,-4.5277,-4.5277,-4.5277,-4.5277,-4.5277,-4.5277,-4.5277,-4.5277,-4.5298,-4.5298,-4.5298,-4.5277,-4.5297,-4.5317,-4.5317,-4.5298,-4.5298,-4.1886,-4.1266,-4.2032,-4.2782,-4.3387,-4.3479,-4.3479,-4.3479,-4.3479,-4.3479,-4.3479,-4.3479,-4.3479,-4.3644,-4.414,-4.5021,-4.5883,-4.6654,-4.748,-4.8104,-4.8324,-4.8324,-4.8324,-4.8324,-4.8324,-4.8324,-4.8324,-4.8324,-4.8324,-4.8324,-4.8324,-4.8324,-4.8324,-4.8324,-4.8324,-4.8324,-4.8324,-4.8324,-4.8324,-4.8324,-4.8324,-4.8324,-4.8324,-4.8324,-4.8324,-4.8324,-4.8324,-4.8324,-4.8324,-4.8324,-4.8324,-4.8194,-4.8121,-4.8102,-4.8102,-4.8121,-4.8177,-4.8251,-4.8324,-4.8324,-4.8324,-4.8324,-4.8324,-4.8324,-4.8324,-4.8324,-4.8324,-4.8324,-4.8324,-4.8324,-4.8324,-4.8324,-4.8324,-4.8324,-4.8324,-4.8324,-4.8324,-4.8324,-4.8084,-4.8011,-4.7642,-4.7241,-4.6801,-4.6348,-4.5755,-4.5221,-4.4726,-4.4599,-4.4704,-4.484,-4.5052,-4.5163,-4.5233,-4.5275,-4.5277,-4.5277,-4.5277,-4.5277,-4.5277,-4.5277,-4.5277,-4.5277,-4.5277,-4.5277,-4.5277,-4.5277,-4.5277,-4.5277,-4.5277,-4.5277,-4.5277,-4.5297,-4.5277,-4.5277,-4.5277,-4.1368,-4.1189,-4.1974,-4.2451,-4.2763,-4.3277,-4.3479,-4.3479,-4.3479,-4.3479,-4.3479,-4.3479,-4.3479,-4.3736,-4.4378,-4.5186,-4.5938,-4.6746,-4.7535,-4.8233,-4.8324,-4.8324,-4.8324,-4.8324,-4.8324,-4.8324,-4.8324,-4.8324,-4.8324,-4.8324,-4.8324,-4.8324,-4.8324,-4.8324,-4.8324,-4.8324,-4.8324,-4.8324,-4.8324,-4.8324,-4.8324,-4.8324,-4.8324,-4.8324,-4.8324,-4.8324,-4.8324,-4.8324,-4.8324,-4.8324,-4.8324,-4.8324,-4.8324,-4.8324,-4.8324,-4.8324,-4.8324,-4.8324,-4.8324,-4.8324,-4.8324,-4.8324,-4.8324,-4.8324,-4.8324,-4.8324,-4.8324,-4.8324,-4.8324,-4.8324,-4.8324,-4.8324,-4.8324,-4.8324,-4.8324,-4.8324,-4.8324,-4.8324,-4.8251,-4.8324,-4.8141,-4.8197,-4.7958,-4.7248,-4.6594,-4.5859,-4.535,-4.4823,-4.4764,-4.4889,-4.5052,-4.5163,-4.523,-4.5275,-4.5277,-4.5277,-4.5277,-4.5277,-4.5277,-4.5277,-4.5277,-4.5277,-4.5277,-4.5277,-4.5277,-4.5277,-4.5277,-4.5277,-4.5277,-4.5277,-4.5277,-4.5277,-4.5277,-4.5277,-4.5277,-4.0524,-4.0377,-4.1148,-4.1644,-4.2047,-4.3039,-4.3479,-4.3479,-4.3479,-4.3479,-4.3479,-4.3479,-4.3479,-4.3809,-4.4617,-4.5278,-4.6012,-4.7076,-4.7645,-4.8306,-4.8324,-4.8324,-4.8324,-4.8324,-4.8324,-4.8324,-4.8324,-4.8324,-4.8324,-4.8324,-4.8324,-4.8324,-4.8324,-4.8324,-4.8324,-4.8324,-4.8324,-4.8324,-4.8324,-4.8324,-4.8324,-4.8324,-4.8324,-4.8324,-4.8324,-4.8324,-4.8324,-4.8324,-4.8324,-4.8324,-4.8324,-4.8324,-4.8306,-4.8324,-4.8324,-4.8324,-4.8324,-4.8324,-4.8324,-4.8324,-4.8324,-4.8324,-4.8324,-4.8324,-4.8324,-4.8324,-4.8324,-4.8324,-4.8324,-4.8324,-4.8324,-4.8324,-4.8286,-4.8286,-4.8286,-4.8286,-4.8267,-4.8267,-4.8324,-4.8454,-4.855,-4.876,-4.8883,-4.8259,-4.7522,-4.674,-4.5969,-4.5436,-4.4915,-4.4981,-4.5076,-4.5167,-4.523,-4.5275,-4.5297,-4.5277,-4.5277,-4.5277,-4.5277,-4.5277,-4.5277,-4.5277,-4.5277,-4.5277,-4.5277,-4.5277,-4.5277,-4.5277,-4.5277,-4.5277,-4.5277,-4.5277,-4.5277,-4.5277,-4.5277,-3.9405,-3.8872,-3.9551,-4.0396,-4.1258,-4.2708,-4.3406,-4.3479,-4.3479,-4.3479,-4.3479,-4.3479,-4.3479,-4.3809,-4.5112,-4.581,-4.6195,-4.7517,-4.8067,-4.8269,-4.8324,-4.8324,-4.8324,-4.8324,-4.8324,-4.8324,-4.8324,-4.8324,-4.8324,-4.8286,-4.8286,-4.8286,-4.8229,-4.8249,-4.8231,-4.8267,-4.8267,-4.8267,-4.8324,-4.8324,-4.8324,-4.8324,-4.8324,-4.8324,-4.8324,-4.8324,-4.8324,-4.8324,-4.8324,-4.8324,-4.8324,-4.8306,-4.8306,-4.8324,-4.8324,-4.8286,-4.8286,-4.8286,-4.8286,-4.8286,-4.8286,-4.8286,-4.8267,-4.8324,-4.8324,-4.8324,-4.8324,-4.8286,-4.8286,-4.8286,-4.8267,-4.8267,-4.8267,-4.8267,-4.8267,-4.8267,-4.8267,-4.8267,-4.8344,-4.8438,-4.8587,-4.876,-4.8952,-4.857,-4.8164,-4.7466,-4.6665,-4.5968,-4.5464,-4.5071,-4.5163,-4.5192,-4.5254,-4.5275,-4.5275,-4.5275,-4.5277,-4.5277,-4.5277,-4.5277,-4.5277,-4.5277,-4.5277,-4.5277,-4.5277,-4.5277,-4.5256,-4.5256,-4.5277,-4.5277,-4.5277,-4.5277,-4.5277,-4.5277,-4.5277,-3.8909,-3.8781,-3.957,-4.0029,-4.0451,-4.1956,-4.2947,-4.3442,-4.3479,-4.3479,-4.3479,-4.3479,-4.3479,-4.3644,-4.5168,-4.5755,-4.6507,-4.7352,-4.8067,-4.8324,-4.8306,-4.8324,-4.8324,-4.8324,-4.8324,-4.8306,-4.8306,-4.8286,-4.8267,-4.8247,-4.8169,-4.8072,-4.8111,-4.8096,-4.8098,-4.8096,-4.8172,-4.8247,-4.8286,-4.8324,-4.8324,-4.8324,-4.8324,-4.8324,-4.8286,-4.8286,-4.8267,-4.8267,-4.8267,-4.8267,-4.8306,-4.8249,-4.8208,-4.8208,-4.8208,-4.8111,-4.8148,-4.8206,-4.8226,-4.8286,-4.8286,-4.8265,-4.8208,-4.8229,-4.8286,-4.8306,-4.8267,-4.8229,-4.8226,-4.8187,-4.8208,-4.8169,-4.8169,-4.8151,-4.8151,-4.8151,-4.8151,-4.8151,-4.8229,-4.8364,-4.8495,-4.8765,-4.8945,-4.9052,-4.859,-4.8031,-4.738,-4.6656,-4.593,-4.5451,-4.5163,-4.517,-4.5213,-4.5233,-4.5233,-4.5233,-4.5275,-4.5277,-4.5256,-4.5275,-4.5275,-4.5275,-4.5256,-4.5256,-4.5216,-4.5216,-4.5213,-4.5235,-4.5258,-4.5277,-4.5277,-4.5277,-4.5277,-4.5277,-4.5277,-3.8627,-3.8682,-3.9122,-3.9538,-4.0084,-4.1277,-4.2286,-4.2965,-4.3351,-4.3479,-4.3479,-4.3479,-4.3497,-4.3754,-4.5058,-4.5865,-4.6012,-4.7441,-4.8265,-4.8247,-4.8267,-4.8306,-4.8324,-4.8324,-4.8286,-4.8267,-4.8229,-4.819,-4.819,-4.8151,-4.8072,-4.8032,-4.7992,-4.8017,-4.802,-4.8035,-4.8087,-4.8126,-4.8206,-4.8247,-4.8267,-4.8324,-4.8286,-4.8229,-4.8247,-4.8247,-4.819,-4.819,-4.819,-4.819,-4.8172,-4.8151,-4.813,-4.813,-4.809,-4.8032,-4.805,-4.8108,-4.813,-4.8151,-4.8169,-4.8148,-4.8148,-4.813,-4.8153,-4.8155,-4.8153,-4.8132,-4.8108,-4.8105,-4.8068,-4.805,-4.805,-4.7992,-4.7992,-4.7992,-4.7992,-4.7992,-4.8132,-4.8269,-4.8495,-4.8713,-4.8903,-4.9075,-4.8945,-4.8258,-4.7805,-4.7363,-4.6441,-4.5607,-4.5261,-4.5122,-4.5144,-4.5167,-4.5167,-4.5189,-4.5211,-4.5211,-4.5192,-4.5192,-4.5233,-4.5213,-4.5192,-4.5151,-4.5135,-4.5132,-4.517,-4.5197,-4.522,-4.5258,-4.5277,-4.5277,-4.5277,-4.5277,-4.5277,-3.8446,-3.851,-3.8478,-3.9072,-3.9923,-4.0694,-4.1501,-4.2341,-4.3039,-4.3424,-4.3461,-4.3497,-4.3497,-4.3756,-4.4876,-4.5608,-4.6102,-4.7236,-4.8023,-4.8169,-4.8208,-4.8229,-4.8229,-4.8267,-4.8208,-4.8169,-4.8187,-4.813,-4.8032,-4.801,-4.801,-4.7992,-4.7951,-4.7933,-4.7933,-4.7951,-4.7943,-4.8034,-4.8101,-4.8187,-4.8247,-4.8286,-4.8247,-4.8169,-4.8169,-4.813,-4.805,-4.801,-4.7992,-4.7992,-4.8032,-4.805,-4.801,-4.797,-4.7951,-4.797,-4.7988,-4.7988,-4.8028,-4.805,-4.801,-4.801,-4.801,-4.801,-4.8014,-4.8056,-4.8093,-4.8046,-4.8038,-4.8002,-4.8024,-4.7947,-4.7888,-4.7888,-4.7888,-4.7888,-4.7888,-4.7929,-4.801,-4.8169,-4.8323,-4.855,-4.8606,-4.8751,-4.885,-4.8319,-4.7903,-4.765,-4.7203,-4.6164,-4.5678,-4.5371,-4.5109,-4.5133,-4.5099,-4.5099,-4.5122,-4.5122,-4.5103,-4.5125,-4.5148,-4.5125,-4.5084,-4.5065,-4.5045,-4.5106,-4.5148,-4.5156,-4.5201,-4.5258,-4.5277,-4.5277,-4.5277,-4.5277,-4.5277,-3.8415,-3.8415,-3.8415,-3.8921,-3.9652,-3.9973,-4.0921,-4.2219,-4.2454,-4.2947,-4.3406,-4.3446,-4.3411,-4.3613,-4.4401,-4.5057,-4.5787,-4.6718,-4.743,-4.7831,-4.8017,-4.8111,-4.8053,-4.8111,-4.8072,-4.8032,-4.805,-4.801,-4.7947,-4.7925,-4.7884,-4.7783,-4.7765,-4.7806,-4.7824,-4.7824,-4.7837,-4.7904,-4.7956,-4.8028,-4.809,-4.8072,-4.8072,-4.8072,-4.8053,-4.8028,-4.7988,-4.797,-4.801,-4.7992,-4.7992,-4.797,-4.7925,-4.7824,-4.7783,-4.7783,-4.7879,-4.792,-4.7943,-4.7925,-4.7907,-4.7925,-4.7925,-4.7842,-4.7866,-4.7929,-4.8006,-4.7975,-4.7951,-4.7956,-4.792,-4.7842,-4.7783,-4.7783,-4.7783,-4.7783,-4.7783,-4.7866,-4.7907,-4.8043,-4.8178,-4.8258,-4.8357,-4.8419,-4.8532,-4.8303,-4.7884,-4.7658,-4.777,-4.7165,-4.6611,-4.6158,-4.528,-4.5133,-4.5138,-4.5005,-4.5005,-4.5033,-4.5033,-4.508,-4.508,-4.5033,-4.4943,-4.4967,-4.4972,-4.5014,-4.5045,-4.5099,-4.5161,-4.5216,-4.5256,-4.5235,-4.5235,-4.5235,-4.5256,-3.8303,-3.8336,-3.8401,-3.8638,-3.9021,-3.9159,-4.0087,-4.1415,-4.1617,-4.2498,-4.3704,-4.3577,-4.3359,-4.3451,-4.4053,-4.4508,-4.5217,-4.6273,-4.6892,-4.7347,-4.7787,-4.7974,-4.7992,-4.801,-4.7988,-4.7988,-4.7888,-4.7824,-4.7692,-4.7819,-4.7759,-4.7681,-4.7681,-4.7717,-4.7717,-4.7717,-4.7772,-4.779,-4.7892,-4.7879,-4.7925,-4.7929,-4.7951,-4.7974,-4.797,-4.7925,-4.7866,-4.7866,-4.7866,-4.7847,-4.7847,-4.7866,-4.7801,-4.7759,-4.7699,-4.7717,-4.7795,-4.7832,-4.7837,-4.7861,-4.7842,-4.7842,-4.7801,-4.7759,-4.7759,-4.7824,-4.7824,-4.7832,-4.7814,-4.7801,-4.7801,-4.7741,-4.7741,-4.7741,-4.7741,-4.7741,-4.7741,-4.7741,-4.7783,-4.7842,-4.7956,-4.8052,-4.8138,-4.8281,-4.8364,-4.855,-4.8085,-4.8248,-4.8284,-4.8149,-4.7599,-4.7011,-4.6195,-4.5597,-4.5559,-4.5237,-4.4859,-4.4889,-4.4943,-4.4914,-4.4889,-4.4865,-4.484,-4.4846,-4.4833,-4.4862,-4.4896,-4.4966,-4.5052,-4.5087,-4.5129,-4.5192,-4.5192,-4.517,-4.5148,-3.8259,-3.8307,-3.8336,-3.8387,-3.8368,-3.8401,-3.9254,-4.0507,-4.0805,-4.2011,-4.3743,-4.3615,-4.3451,-4.3615,-4.3778,-4.4068,-4.4595,-4.5467,-4.6157,-4.6902,-4.7438,-4.7692,-4.7875,-4.7929,-4.7797,-4.7606,-4.7493,-4.7306,-4.7102,-4.7265,-4.7409,-4.7554,-4.7681,-4.7753,-4.7808,-4.7898,-4.8043,-4.8224,-4.8206,-4.7971,-4.7928,-4.7902,-4.7907,-4.7907,-4.7866,-4.7801,-4.7741,-4.7699,-4.7699,-4.7699,-4.7741,-4.7759,-4.7759,-4.7717,-4.7717,-4.7717,-4.7717,-4.7735,-4.7717,-4.7717,-4.7717,-4.7699,-4.7699,-4.7699,-4.7699,-4.7717,-4.7717,-4.7717,-4.7717,-4.7699,-4.7699,-4.7699,-4.7699,-4.7699,-4.7699,-4.7699,-4.7699,-4.7699,-4.7699,-4.7699,-4.7772,-4.7886,-4.7933,-4.8083,-4.8245,-4.8457,-4.8697,-4.8959,-4.9062,-4.8827,-4.8434,-4.7938,-4.7269,-4.6768,-4.6089,-4.558,-4.5115,-4.4764,-4.4815,-4.4764,-4.4712,-4.4712,-4.4712,-4.4693,-4.4707,-4.4669,-4.4732,-4.4802,-4.4895,-4.4943,-4.4967,-4.4991,-4.4967,-4.4943,-4.4938,-3.8225,-3.8207,-3.8241,-3.8259,-3.8241,-3.8289,-3.8849,-3.9756,-4.05,-4.1447,-4.2559,-4.3742,-4.4087,-4.4051,-4.332,-4.3464,-4.4245,-4.4823,-4.5639,-4.649,-4.6821,-4.7239,-4.762,-4.7806,-4.7366,-4.7089,-4.6812,-4.6395,-4.645,-4.6649,-4.6776,-4.683,-4.7554,-4.7995,-4.8599,-4.8647,-4.8749,-4.8876,-4.8749,-4.8514,-4.8297,-4.814,-4.7795,-4.7759,-4.7741,-4.7699,-4.7699,-4.7699,-4.7699,-4.7699,-4.7699,-4.7699,-4.7699,-4.7699,-4.7699,-4.7699,-4.7699,-4.7699,-4.7699,-4.7699,-4.7699,-4.7699,-4.7699,-4.7699,-4.7699,-4.7699,-4.7717,-4.7717,-4.7699,-4.7699,-4.7699,-4.7699,-4.7699,-4.7699,-4.7699,-4.7699,-4.7699,-4.7699,-4.7699,-4.7699,-4.7717,-4.7753,-4.7795,-4.7925,-4.8108,-4.8344,-4.8623,-4.8906,-4.9179,-4.919,-4.9183,-4.8668,-4.8133,-4.7194,-4.6269,-4.5959,-4.5526,-4.5081,-4.4685,-4.4659,-4.4632,-4.4597,-4.4578,-4.4532,-4.4495,-4.4484,-4.4568,-4.4597,-4.4651,-4.4685,-4.4738,-4.4764,-4.4745,-4.4719,-4.4693]}]]